GFSGL_850_thetae_003.txt.gz
Theta_e
309 307 306 306 304 302 302 301 301 300 298 294 293 293 292 291 290 289 289 289 289 289 290 290 290 289 290 290 291 290 290 291 292 292 292 292 291 292 292 293 294 296 297
305 304 305 305 303 302 301 301 299 296 295 293 293 291 290 289 289 289 289 289 289 289 289 289 288 287 286 289 290 290 290 290 289 290 291 291 291 291 291 292 292 293 295
302 304 305 304 303 301 300 298 296 295 294 292 290 290 289 289 289 289 289 288 288 288 287 287 286 286 285 285 288 289 289 290 290 289 289 289 290 290 291 291 291 291 293
298 303 302 301 302 300 297 296 294 294 292 290 289 289 288 289 289 288 288 288 288 287 287 286 286 285 285 284 286 287 288 288 289 289 288 288 288 289 288 289 289 290 291
297 297 299 301 301 298 299 296 295 294 290 289 289 288 289 289 289 289 288 288 287 286 286 284 283 282 283 285 285 286 287 287 287 287 286 286 286 285 286 287 288 289 291
295 295 296 297 299 299 298 297 293 292 290 290 289 289 289 289 289 288 288 287 286 284 283 282 281 282 283 284 285 285 286 286 285 284 284 284 284 284 284 285 286 287 287
294 294 296 297 297 296 295 294 293 293 290 289 289 289 289 289 288 287 286 284 284 284 282 281 280 280 281 282 282 283 283 284 284 284 284 284 284 283 283 283 283 284 284
293 294 294 295 295 295 294 294 293 292 290 289 289 289 289 288 287 285 284 284 284 283 281 280 280 281 281 281 281 281 282 282 282 282 282 282 282 283 283 283 284 284 284
293 294 294 294 294 294 294 293 292 290 289 289 289 288 288 287 285 284 284 283 282 281 280 280 279 279 280 281 281 281 282 282 282 282 282 282 282 283 283 283 283 283 283
293 293 293 292 294 293 292 292 291 289 289 289 288 288 287 285 284 284 283 281 281 280 279 279 279 280 281 281 280 281 281 281 281 281 281 282 282 282 283 283 283 284 284
293 292 291 292 293 292 292 290 290 289 289 288 288 288 285 284 283 282 281 280 279 278 278 278 278 279 280 280 280 280 280 279 279 280 280 280 281 281 281 282 282 282 283
293 292 292 291 291 291 291 290 289 289 289 288 288 286 285 282 281 279 279 278 278 278 278 278 279 279 279 279 279 280 279 279 280 280 280 281 281 281 282 283 283 283 283
292 291 291 291 290 290 290 289 289 289 288 288 287 285 283 282 280 279 278 277 277 278 278 278 278 278 278 279 279 279 279 280 280 280 280 280 281 281 282 283 283 284 284
291 290 289 290 289 290 290 289 289 288 288 287 286 284 283 281 280 279 277 277 277 278 278 278 277 278 278 278 278 278 278 279 279 279 280 281 281 282 283 283 284 285 286
291 289 288 287 288 289 289 289 289 288 287 286 285 284 283 282 280 278 277 277 277 277 277 277 277 277 277 277 277 277 278 278 278 279 280 281 281 282 283 284 285 286 286
291 289 288 287 288 289 289 289 288 287 286 284 284 284 283 282 280 278 277 277 277 277 277 276 276 276 276 276 276 277 277 277 278 279 280 280 281 282 283 284 285 286 286
291 289 289 288 287 288 288 288 287 285 285 284 284 284 283 282 281 279 278 277 276 276 276 276 275 275 275 275 276 276 277 277 278 279 279 280 281 282 282 283 284 284 285
290 289 289 289 288 287 286 286 285 285 285 284 284 284 283 282 281 279 278 277 276 275 275 275 275 275 275 275 275 276 276 276 277 278 279 280 281 281 281 282 282 283 283
289 289 289 289 288 286 286 285 285 285 284 284 284 283 283 283 281 279 278 277 277 275 275 275 275 275 275 274 275 275 275 276 276 278 279 279 280 280 280 281 281 281 282
289 288 288 288 287 285 285 285 285 284 284 284 283 283 283 282 281 280 279 278 277 277 275 275 275 275 274 274 274 274 275 275 276 277 278 279 279 280 280 280 280 280 281
288 288 288 287 286 285 285 285 284 284 284 283 283 283 282 282 281 280 280 279 277 277 277 275 275 275 274 274 274 274 274 274 274 275 277 278 278 279 279 279 279 279 280
287 287 286 285 284 285 285 285 284 284 284 284 283 283 282 282 282 281 280 279 278 277 277 276 275 275 275 274 274 274 274 274 274 274 276 276 277 278 278 278 279 278 278
286 285 285 285 284 284 285 285 284 284 284 284 283 283 283 282 282 281 280 279 278 278 277 276 276 275 275 275 274 274 274 274 273 273 274 275 275 276 277 277 278 278 278
286 285 284 284 284 284 285 284 284 284 284 284 284 284 283 283 282 281 280 279 279 278 277 276 276 275 274 274 274 274 274 273 273 273 273 274 274 274 275 276 277 277 277
287 287 286 285 284 284 284 284 284 284 284 283 283 283 283 282 282 281 280 279 279 278 278 276 276 276 275 275 274 274 274 273 273 273 273 273 274 273 274 274 275 275 275
287 287 286 284 284 284 284 284 284 284 284 283 283 282 282 282 281 281 280 279 279 279 278 277 276 276 276 276 276 276 274 273 274 274 273 273 273 273 273 273 273 274 274

GFSGL_850_thetae_006.txt.gz
Theta_e
300 300 300 301 303 304 302 301 300 300 299 298 294 293 290 289 289 289 288 288 288 288 288 289 288 288 288 287 287 285 288 289 291 290 289 290 290 291 291 292 292 293 295
299 298 300 303 303 302 302 301 301 299 297 295 293 292 290 289 288 288 288 288 288 288 288 288 287 286 285 286 286 285 284 287 289 290 290 289 290 290 290 291 291 291 292
298 297 297 296 296 298 301 301 297 294 293 294 291 290 289 288 288 288 288 288 288 288 288 287 287 285 285 284 284 284 284 285 288 289 289 289 289 289 289 289 289 290 291
297 296 295 294 295 298 300 296 295 297 294 292 290 289 289 288 289 289 288 288 288 288 287 286 284 283 282 282 283 284 285 285 286 286 287 287 287 288 288 287 288 288 290
295 294 293 292 294 294 295 295 296 293 292 291 289 289 288 288 289 289 288 288 287 286 284 283 283 281 281 282 283 284 285 286 286 287 286 285 286 286 286 285 285 285 287
294 293 293 292 292 293 293 295 294 293 290 291 290 288 289 289 288 288 287 286 284 284 283 283 282 280 280 280 281 282 282 283 283 284 285 285 284 284 284 283 283 284 284
294 293 293 293 292 292 293 295 294 293 293 290 289 289 289 288 288 287 286 285 284 283 282 281 280 280 279 280 280 281 281 281 282 282 282 283 283 283 283 283 283 283 283
294 293 293 293 292 292 293 293 293 292 291 289 289 288 288 288 287 285 284 284 283 282 281 280 279 279 279 279 280 281 281 281 281 281 281 281 281 281 281 282 282 282 283
293 293 293 292 291 292 292 292 292 292 289 289 289 288 288 287 285 283 282 281 280 280 279 279 279 279 279 280 280 280 280 281 281 281 281 282 282 282 282 282 283 283 283
293 293 292 292 291 291 292 292 291 289 289 288 288 288 287 285 284 282 280 279 279 278 278 278 278 278 279 280 280 280 280 280 280 280 280 280 281 281 282 282 283 283 283
293 293 292 291 291 291 291 290 290 290 289 288 287 287 285 284 282 281 280 278 278 277 278 278 278 279 279 279 279 279 279 280 279 279 279 280 280 281 281 281 281 282 282
293 293 290 290 290 290 290 290 290 289 288 287 287 286 285 283 281 280 279 278 277 277 278 278 278 278 278 278 279 279 279 279 280 280 280 280 280 281 281 281 282 282 282
292 292 290 289 290 289 290 289 289 288 288 288 287 285 284 282 281 280 279 277 277 278 278 278 277 277 278 278 278 278 278 279 279 279 280 280 280 281 281 282 283 283 284
292 292 291 288 287 287 289 289 288 288 288 286 285 284 283 282 281 280 278 277 277 278 277 277 277 277 277 277 277 278 278 278 278 279 279 280 281 282 282 283 283 284 284
292 292 290 288 287 287 288 288 288 288 287 285 284 284 283 282 281 280 278 277 277 277 277 277 276 276 276 276 277 277 277 277 278 279 280 280 281 282 283 284 284 285 286
291 291 290 289 287 287 288 288 287 287 285 284 284 284 283 283 282 280 279 277 276 275 276 276 275 275 275 275 276 276 277 277 278 279 280 280 281 282 283 283 284 285 285
290 291 290 289 289 288 287 287 285 285 284 284 284 283 283 283 281 280 279 278 277 275 275 275 275 275 275 275 275 275 276 276 277 278 279 280 281 281 282 282 283 284 285
290 290 289 289 289 288 286 285 285 285 284 284 283 283 283 282 282 280 279 278 278 277 275 275 275 275 274 274 274 275 275 276 277 278 279 280 280 280 281 281 281 282 283
289 289 289 289 288 287 286 285 285 284 284 284 283 283 283 282 282 281 280 279 278 278 276 275 275 274 274 274 274 274 274 274 276 277 278 279 279 280 280 280 280 281 281
288 288 288 288 287 286 285 285 284 284 284 283 283 283 282 282 282 281 280 279 279 278 277 276 275 274 274 274 274 274 274 274 274 276 277 278 278 279 279 279 279 279 280
288 287 287 286 286 285 285 284 284 284 283 283 284 283 283 282 282 281 280 280 279 278 277 277 277 275 274 274 274 274 274 274 273 275 276 277 277 278 278 278 278 278 279
288 287 287 286 285 284 284 285 285 284 284 283 283 283 283 282 282 282 281 280 279 278 278 277 276 275 275 275 275 275 274 274 274 274 274 275 275 276 277 277 278 278 278
289 287 286 285 284 284 284 284 284 284 284 283 283 283 284 284 282 282 281 280 279 278 278 277 276 276 275 274 274 274 275 275 274 274 274 274 274 275 275 276 276 277 277
289 288 286 286 284 283 284 284 284 284 284 283 283 283 283 283 282 281 281 280 280 279 278 278 277 276 276 276 274 274 274 274 274 274 274 274 274 274 274 274 275 276 276
288 288 287 286 286 284 284 284 284 284 284 283 283 283 283 282 282 281 281 280 280 279 278 278 278 277 275 276 276 276 276 274 274 274 274 274 273 273 273 273 273 274 274
288 287 287 287 286 286 285 284 283 283 284 284 283 282 282 282 281 281 280 280 280 279 279 278 278 277 276 276 276 276 276 276 275 276 276 276 274 273 273 273 273 274 274

GFSGL_850_thetae_009.txt.gz
Theta_e
299 298 297 297 296 295 294 296 300 300 299 298 297 293 293 291 289 288 287 288 288 288 288 288 288 287 287 287 286 286 285 285 285 284 286 288 290 289 289 290 290 291 292
299 298 297 295 294 292 293 297 299 298 299 297 296 295 290 289 289 288 288 288 288 288 288 287 287 287 287 286 284 283 283 283 284 284 285 288 288 288 289 289 289 290 291
297 296 295 294 293 292 291 293 296 295 295 296 295 292 290 289 288 288 288 288 288 288 287 287 286 284 283 282 282 282 282 283 284 284 284 288 287 287 288 288 288 289 289
296 296 295 293 292 292 291 292 294 294 296 293 292 290 289 289 288 288 288 288 288 287 286 284 283 283 282 281 281 281 283 284 285 286 285 286 286 287 287 286 286 288 288
296 295 294 293 292 292 291 291 293 295 295 293 291 289 290 288 288 288 288 288 287 285 284 283 283 282 281 280 280 281 281 282 282 283 284 285 285 285 286 285 285 285 286
295 294 293 292 292 292 291 292 293 294 294 291 291 290 289 288 288 288 287 286 285 284 283 282 282 280 280 279 279 280 281 281 281 282 282 283 283 284 284 284 284 284 284
294 294 293 292 292 292 291 291 293 293 293 292 291 289 288 288 288 287 286 284 283 282 281 280 280 279 279 279 279 280 280 280 281 281 281 282 282 282 283 283 282 282 283
294 293 292 292 292 292 291 292 292 292 292 292 289 288 288 288 287 285 284 282 281 280 279 279 278 278 279 279 280 281 280 280 280 281 281 281 281 281 281 281 281 282 282
293 292 292 292 292 291 291 291 291 292 291 288 288 288 288 287 286 284 282 281 281 280 279 279 278 278 279 279 280 280 280 280 280 280 280 280 281 282 282 282 282 282 282
292 292 293 292 290 290 291 290 290 289 289 289 289 288 287 286 284 282 281 280 280 279 279 279 278 278 279 279 279 279 279 279 280 279 279 279 280 280 281 281 282 282 283
293 293 292 291 290 290 290 290 290 290 290 289 287 287 286 284 283 281 280 280 278 278 278 278 278 278 278 278 279 279 279 279 279 279 279 280 280 280 280 280 281 281 282
293 292 292 292 290 289 289 289 289 289 288 287 287 286 285 283 282 281 280 279 278 278 278 278 277 277 278 278 278 278 278 278 279 279 279 280 280 280 280 281 281 281 281
290 290 291 291 290 288 287 288 288 288 287 287 286 285 284 283 282 281 280 279 277 277 277 277 277 277 276 277 277 277 277 278 278 278 279 279 280 281 281 281 281 282 282
289 290 291 291 288 287 287 287 288 287 287 287 285 284 283 283 282 281 280 279 277 276 277 277 277 276 276 276 277 277 277 277 278 279 279 280 280 281 282 282 283 283 284
289 290 290 290 288 287 287 288 288 287 286 285 284 284 283 283 282 281 279 278 277 276 275 276 276 276 276 276 276 276 277 277 278 279 279 280 281 282 283 283 284 284 285
289 289 290 290 289 288 287 287 287 286 285 284 284 284 283 283 282 281 279 278 278 276 275 276 276 275 275 275 275 276 276 277 277 278 279 280 281 281 282 283 284 284 285
288 290 290 290 288 288 288 287 285 284 284 284 284 283 283 283 282 281 280 279 278 278 276 275 275 275 274 274 274 275 275 276 277 278 279 280 280 281 281 282 282 283 284
289 289 289 289 288 288 287 286 285 285 284 283 284 283 283 282 282 281 280 279 278 278 278 276 275 275 275 274 274 274 273 274 276 278 278 279 280 280 280 280 281 281 282
289 288 288 287 288 287 286 285 285 285 284 283 283 283 283 282 282 281 281 280 279 278 277 277 275 275 275 274 274 274 273 273 274 276 278 278 279 279 279 279 280 280 280
288 288 287 287 287 286 286 285 285 284 284 283 283 283 283 282 282 281 281 280 279 278 277 277 276 276 275 275 275 274 274 274 274 275 277 277 278 278 279 279 279 279 279
288 287 287 287 286 285 285 284 284 284 284 283 283 283 283 283 282 282 281 280 279 279 278 277 276 276 275 275 275 276 275 274 274 274 274 275 276 277 278 278 278 278 278
288 288 287 287 286 286 285 284 284 284 285 283 283 283 283 283 283 282 281 281 280 279 278 278 277 276 276 275 274 275 275 275 275 274 274 274 274 275 275 277 277 277 277
287 288 289 288 286 285 285 284 283 284 284 284 283 283 283 283 283 283 282 281 280 279 279 278 278 277 276 276 276 275 275 274 275 275 275 274 274 274 274 274 275 275 276
287 287 288 288 286 286 285 284 284 284 284 284 284 283 283 283 283 282 282 281 280 280 279 279 278 278 277 276 276 276 276 276 275 274 274 274 274 273 273 273 273 274 274
287 287 287 287 287 286 286 285 285 284 284 284 283 283 283 283 282 282 282 281 280 280 279 279 278 278 277 277 276 276 276 276 276 275 275 276 275 274 273 273 273 273 274
287 287 287 287 287 287 286 286 286 285 285 284 283 283 284 282 282 281 281 280 280 280 279 279 278 278 278 277 277 276 276 276 276 276 276 276 276 275 274 273 273 273 273

GFSGL_850_thetae_012.txt.gz
Theta_e
299 298 297 295 295 293 292 292 291 293 298 298 297 296 295 294 290 289 288 288 288 288 288 288 288 287 287 287 286 285 283 283 282 282 282 283 284 285 289 290 290 289 292
298 296 296 295 294 292 291 291 290 291 296 296 295 294 294 294 289 288 288 288 288 288 288 288 287 287 286 284 283 283 282 281 281 283 283 283 284 287 288 288 287 289 288
297 296 295 294 293 292 291 290 290 290 294 294 293 294 293 290 288 289 288 288 288 288 288 287 286 284 283 283 282 282 281 280 282 283 283 284 284 286 288 288 288 287 288
296 295 295 294 293 291 291 291 290 291 293 293 294 292 292 289 289 289 288 288 288 287 287 285 284 283 283 282 281 280 280 280 280 281 282 283 285 285 286 286 286 286 286
295 295 294 293 292 291 291 291 290 292 292 293 293 291 289 290 289 288 288 288 287 286 285 283 282 281 281 280 280 280 280 280 280 281 282 282 283 284 285 285 285 286 285
295 294 294 293 291 291 291 291 291 292 292 291 292 291 291 289 288 288 288 287 286 284 282 281 280 280 279 279 279 279 279 280 280 280 281 281 281 282 283 284 284 284 284
295 294 293 291 292 291 291 291 291 292 292 291 291 291 290 288 288 288 287 286 283 281 281 280 279 279 279 279 279 279 279 280 281 281 281 281 281 282 281 282 282 283 283
294 293 292 292 292 291 290 290 290 291 291 291 291 289 288 288 288 287 286 283 282 281 280 279 279 279 279 278 279 280 280 280 280 280 280 280 280 281 281 281 281 281 282
293 291 292 292 292 291 290 290 290 290 290 289 288 288 289 287 286 285 283 281 281 281 280 279 279 278 278 279 279 279 279 279 279 279 280 279 279 280 281 282 281 281 281
291 292 292 292 291 291 289 290 290 290 290 290 289 288 287 287 285 283 281 281 281 280 279 279 278 278 278 278 278 278 278 279 279 279 279 279 279 279 280 280 281 282 282
290 290 290 291 291 291 289 289 289 289 289 289 288 287 287 285 283 282 281 280 279 278 278 278 278 278 277 277 277 278 278 278 278 279 279 279 279 280 280 280 280 280 281
289 289 289 289 291 291 289 287 287 289 288 287 287 287 285 284 282 282 281 280 278 277 277 278 278 277 277 276 276 277 277 277 278 278 279 279 279 280 280 280 280 280 280
289 289 289 290 291 290 288 287 287 288 287 287 287 286 284 283 282 282 281 280 279 277 276 276 277 276 276 276 276 277 277 277 278 278 279 279 280 280 281 281 281 281 281
289 289 289 290 290 290 288 287 287 287 287 287 286 285 284 283 283 282 281 279 279 278 276 276 276 276 276 276 276 276 276 277 277 278 279 280 281 281 282 282 282 282 282
289 289 289 289 289 289 288 287 287 287 286 285 284 284 284 283 282 282 281 279 279 278 277 276 276 276 276 276 275 275 276 277 278 278 279 280 281 282 282 283 283 284 284
288 289 288 289 289 289 288 287 287 286 285 284 284 284 284 283 282 282 280 280 279 278 278 277 276 276 275 275 275 275 275 276 277 278 279 280 280 281 282 282 283 284 284
288 288 288 288 289 288 288 287 287 285 285 284 284 283 283 283 282 281 281 280 279 279 278 278 276 276 275 275 275 274 274 274 276 277 278 279 280 280 280 281 282 283 283
288 288 288 288 288 288 287 287 286 284 284 284 283 283 283 283 282 281 281 280 279 279 278 278 278 277 275 275 275 274 274 274 274 277 277 278 279 279 279 280 280 280 281
288 288 288 288 287 286 287 286 285 285 284 284 283 283 283 282 282 281 281 280 280 279 278 277 277 277 277 276 276 275 274 274 274 275 277 277 278 278 279 279 279 279 279
288 288 288 288 287 286 286 285 285 284 284 284 283 283 283 283 282 282 281 281 280 279 279 278 277 277 276 275 275 276 276 275 274 274 274 275 276 276 277 278 278 278 278
287 287 287 288 288 286 286 285 285 284 283 284 283 283 283 283 282 282 282 281 281 280 279 279 278 277 276 276 276 275 275 275 275 275 274 274 274 275 275 276 277 277 277
287 287 287 287 287 287 286 285 285 284 284 283 283 283 283 283 282 282 282 282 281 280 280 279 279 278 277 276 276 277 276 275 275 274 275 274 274 274 274 274 275 275 276
286 286 286 287 287 287 287 285 284 284 284 283 284 284 283 283 282 282 282 283 282 281 280 280 279 279 278 277 276 276 277 276 276 275 275 275 275 274 274 274 274 274 274
286 286 286 286 287 287 287 286 286 285 285 284 283 283 283 283 283 282 282 282 282 281 280 280 279 279 278 278 277 276 276 277 276 276 275 275 276 275 274 273 273 273 273
286 286 286 287 287 287 287 286 286 286 286 285 285 284 283 283 283 282 283 282 282 281 280 280 279 279 278 278 277 277 276 276 276 276 276 276 276 276 275 273 273 273 274
286 286 286 287 287 287 287 287 287 287 287 287 286 286 285 284 283 283 283 282 281 281 280 280 279 279 278 278 277 277 276 276 276 276 276 276 275 275 275 275 275 274 273

GFSGL_850_thetae_015.txt.gz
Theta_e
299 298 297 296 296 295 294 292 290 290 290 293 296 296 295 295 293 294 290 288 288 288 288 288 288 287 287 286 286 285 284 283 283 283 283 283 284 285 285 286 288 289 290
298 297 296 296 295 294 292 290 290 290 290 292 295 295 294 293 293 292 289 289 288 288 288 288 287 287 286 285 285 284 283 283 282 282 283 284 284 285 285 286 288 288 290
297 296 296 295 294 293 291 290 291 290 290 291 292 293 293 293 292 289 289 289 288 288 288 287 287 286 285 284 283 283 282 282 282 282 282 282 283 284 285 286 287 288 288
296 296 295 294 294 293 291 290 290 290 290 292 292 292 293 290 289 289 289 289 288 288 287 286 285 284 283 282 282 282 281 281 281 281 282 282 283 283 284 285 286 287 287
296 295 295 294 293 292 291 290 290 290 291 292 292 292 292 291 290 290 289 288 288 287 286 284 282 282 281 280 280 280 280 280 281 281 281 282 283 283 284 283 284 286 286
295 295 294 294 293 291 291 290 290 290 290 291 291 291 291 291 291 289 288 288 287 286 283 282 281 281 280 279 279 279 279 280 280 281 282 282 282 282 283 283 283 283 285
295 295 294 293 292 291 291 290 290 290 290 291 291 291 291 290 288 288 288 287 286 283 282 281 280 279 279 279 279 279 280 280 280 280 281 281 281 281 282 282 283 283 283
295 293 293 291 291 292 291 290 290 290 290 290 290 289 288 288 288 287 287 285 283 282 281 280 279 279 279 278 279 279 280 280 280 280 280 280 281 281 281 281 282 282 282
292 290 290 291 291 292 291 291 289 289 290 290 290 289 289 289 287 287 285 283 282 281 280 279 279 278 278 278 279 279 279 279 279 279 279 280 280 280 280 280 281 282 282
290 289 289 289 290 290 290 291 289 289 289 289 289 289 288 287 287 285 283 282 281 281 279 278 279 278 278 278 278 278 277 279 278 278 278 279 280 280 279 279 280 281 282
289 289 289 289 289 289 290 291 289 287 288 289 288 288 287 287 285 284 282 282 280 280 278 277 278 278 277 277 276 276 277 277 277 277 278 279 279 280 280 280 280 280 281
289 289 289 289 289 290 290 290 288 287 287 288 287 286 287 286 284 283 282 281 280 279 278 277 277 277 277 276 276 276 277 277 277 277 278 279 279 279 280 280 280 280 280
289 289 289 289 289 289 290 290 288 287 287 287 287 287 286 285 283 283 282 281 280 279 279 276 276 276 276 276 275 276 276 277 277 278 278 279 280 281 281 281 281 281 281
289 289 289 289 289 289 289 289 288 287 287 287 286 285 284 284 283 283 282 281 280 279 279 277 277 276 276 276 275 275 275 276 277 278 279 280 281 282 282 282 283 282 282
289 289 288 288 289 289 289 289 288 287 287 286 284 284 284 284 283 283 282 281 280 280 279 279 277 277 276 276 275 275 274 276 278 278 279 280 280 281 282 283 283 283 283
289 287 288 288 288 289 289 288 288 287 286 285 285 284 284 283 283 283 282 281 280 280 279 278 278 277 276 276 276 275 275 274 276 278 278 279 280 280 281 281 283 283 283
288 288 288 288 288 288 288 288 287 286 286 285 284 284 283 283 283 283 282 281 280 280 279 278 278 278 277 276 276 275 275 274 274 276 278 278 279 279 279 280 280 281 282
287 288 288 288 288 287 287 287 287 287 286 285 284 284 283 283 283 282 282 281 281 280 280 279 278 277 277 276 276 277 276 275 274 275 276 277 278 278 279 279 279 279 279
288 287 288 288 288 287 287 286 286 286 285 284 284 284 283 283 283 282 282 281 281 281 280 280 279 278 277 276 275 275 275 276 275 274 274 275 276 277 277 278 278 278 278
287 287 287 287 287 287 287 287 286 285 285 284 283 284 283 282 282 283 282 282 282 281 280 280 279 279 278 277 276 276 275 274 275 275 275 274 274 275 275 276 277 277 277
286 286 286 287 288 286 286 287 287 285 284 284 284 283 283 283 283 283 282 282 282 282 281 280 280 279 279 278 277 276 276 275 274 274 275 275 274 274 274 274 276 275 276
287 286 286 286 286 286 286 287 287 286 285 285 284 284 283 283 283 283 282 282 282 282 282 281 280 280 279 278 278 277 276 276 276 276 274 274 275 274 274 273 274 274 275
287 286 286 285 285 286 286 287 287 287 286 285 284 284 283 283 283 283 283 282 282 282 282 281 280 280 279 279 278 278 277 277 277 276 276 275 275 275 274 274 273 273 274
286 286 285 285 285 286 287 287 287 287 286 286 285 285 285 284 283 283 283 283 282 282 282 281 281 280 280 279 278 278 277 277 277 276 276 276 276 276 276 274 273 274 274
285 285 285 285 286 286 286 287 287 287 287 286 286 286 286 286 286 285 284 283 283 283 282 282 281 280 280 279 279 278 277 277 277 276 276 276 276 276 276 275 274 273 274
284 285 286 285 285 285 285 285 285 286 286 286 286 286 286 286 286 286 286 285 283 283 283 282 281 280 280 279 279 278 277 277 276 276 276 276 276 275 275 275 275 275 275

GFSGL_850_thetae_018.txt.gz
Theta_e
300 298 297 297 297 297 296 295 294 294 294 294 294 296 296 296 295 295 294 294 293 291 291 291 291 290 289 288 288 288 287 287 286 286 286 286 286 286 286 286 287 288 288
299 297 297 297 297 296 296 295 294 294 294 294 294 294 294 294 294 294 295 293 291 291 291 290 290 289 288 288 287 287 287 286 285 285 285 285 285 285 285 286 286 287 288
298 297 297 297 297 296 296 294 294 293 293 294 294 294 294 294 293 294 292 291 290 290 290 289 288 288 287 287 286 285 285 284 284 284 284 283 284 284 285 285 286 287 289
298 297 297 297 296 296 295 294 294 293 293 293 294 294 294 292 292 291 291 290 290 289 289 288 287 286 285 284 283 284 283 283 283 283 283 283 284 284 285 285 286 287 288
297 297 297 296 296 295 295 294 293 293 293 293 293 293 293 292 291 291 290 290 289 289 288 286 284 283 282 281 281 282 282 282 282 282 283 283 284 284 284 284 284 285 286
297 297 296 296 295 295 294 294 293 292 292 292 292 293 293 292 291 291 288 288 288 287 285 284 283 282 282 281 280 280 280 281 281 282 283 283 283 283 284 284 284 285 285
296 296 295 294 294 294 293 293 293 292 292 292 292 292 291 290 289 288 288 287 286 285 284 283 283 282 282 281 281 280 281 281 281 281 281 282 282 283 283 283 283 284 284
296 295 293 293 293 293 293 293 293 292 292 292 291 291 290 289 288 288 287 286 285 283 283 282 282 282 281 280 280 280 281 281 281 281 281 281 281 281 282 282 282 283 283
295 292 292 291 292 292 292 292 292 292 291 291 290 290 290 288 288 287 286 285 284 283 282 282 281 280 280 279 279 280 280 280 280 280 279 279 279 279 280 281 281 282 283
291 290 289 290 291 292 291 292 292 291 290 289 289 289 289 288 287 287 286 284 283 282 282 281 280 279 279 278 278 278 279 279 279 279 279 280 280 281 281 281 281 282 283
290 289 289 290 290 290 291 292 291 291 290 289 288 288 288 287 286 286 285 283 282 282 282 281 280 278 277 277 276 277 277 277 278 279 279 280 281 281 282 282 282 282 282
289 289 289 290 290 290 291 291 291 290 289 289 287 287 287 286 286 285 284 283 282 281 280 281 279 277 277 277 277 276 276 277 278 278 279 280 281 281 281 282 282 282 282
289 289 290 291 290 290 291 291 291 290 289 289 288 288 287 287 285 284 283 283 282 281 280 279 279 278 277 277 277 276 277 277 277 278 279 279 279 281 282 283 282 282 282
289 290 290 289 289 288 289 290 290 290 289 288 288 288 287 286 286 285 284 282 282 281 280 280 279 279 278 278 278 278 277 276 276 277 278 278 280 281 282 283 284 284 283
290 290 290 290 289 288 288 288 289 289 289 288 288 287 286 285 285 285 284 283 282 281 280 279 280 279 279 279 278 278 277 276 276 276 278 278 279 280 281 282 283 285 284
289 290 290 289 289 289 288 288 289 288 288 287 286 285 285 284 283 283 283 283 282 281 280 281 280 280 279 279 278 278 278 276 275 276 276 277 278 279 280 281 282 283 284
289 289 289 289 289 289 289 289 288 289 288 287 286 285 284 284 283 283 283 283 282 281 280 281 281 280 279 279 278 278 278 277 275 275 276 276 277 278 279 280 280 281 282
289 289 288 289 289 288 288 288 288 288 287 287 287 286 285 284 283 283 283 283 282 281 281 281 281 280 279 279 278 277 276 276 276 275 275 275 276 277 278 279 279 279 280
289 288 288 287 287 287 287 287 287 287 287 286 286 286 285 284 283 283 283 283 282 282 283 282 281 280 280 279 278 277 277 276 275 276 275 275 275 276 277 278 278 278 279
289 288 287 287 287 286 288 287 287 287 287 286 286 286 285 285 284 283 283 283 283 282 283 282 282 281 280 279 278 277 277 276 276 275 275 275 275 275 275 276 277 278 279
289 289 288 287 287 287 287 287 286 286 287 287 287 286 285 284 284 284 284 284 283 283 282 282 282 281 280 279 278 277 277 276 276 276 276 275 275 275 275 275 276 277 277
288 288 288 287 287 286 286 286 286 286 287 287 286 286 285 285 284 284 284 284 284 283 283 283 282 281 280 279 279 278 277 276 276 276 276 276 275 275 275 275 275 275 276
287 287 286 286 286 286 286 286 286 286 287 287 287 287 286 285 285 284 284 284 284 283 283 282 282 282 281 280 280 279 278 277 276 277 277 276 275 275 275 275 275 274 274
286 286 285 285 286 286 286 286 286 286 287 287 287 287 286 286 286 285 285 285 284 283 283 283 282 282 282 281 280 280 279 278 278 277 277 276 276 274 274 275 275 274 274
286 285 285 285 286 286 286 286 286 286 286 286 286 286 286 286 286 286 286 286 286 286 284 283 283 282 282 281 280 280 279 278 278 277 277 277 276 276 276 275 275 274 274
286 285 285 285 286 285 285 285 285 285 285 285 285 285 285 285 285 285 285 285 285 285 286 285 283 283 282 281 280 280 279 278 278 277 277 277 276 276 275 274 275 274 274

GFSGL_850_thetae_021.txt.gz
Theta_e
308 304 300 300 300 300 299 298 297 296 296 295 295 296 296 296 296 296 296 296 296 295 294 293 293 292 292 291 290 289 289 289 289 288 288 287 287 287 286 286 286 287 287
304 304 301 300 300 299 299 298 297 296 296 295 295 295 295 295 295 295 295 295 295 294 293 293 292 291 290 290 289 289 288 288 287 287 286 286 286 286 285 285 286 286 287
305 301 300 300 300 299 299 298 297 296 295 295 295 295 295 295 294 294 293 293 293 293 292 291 291 290 289 288 287 287 286 286 286 285 285 285 285 285 285 285 285 286 286
301 300 300 300 300 299 298 297 296 296 295 294 295 294 295 294 294 293 292 292 292 292 291 290 290 288 287 286 284 284 284 284 284 283 283 284 284 284 285 285 285 285 286
301 300 299 299 299 299 297 297 296 295 295 294 294 294 294 294 293 292 292 292 291 291 290 289 287 286 285 283 282 282 282 282 282 283 283 283 284 284 285 284 285 285 285
301 300 299 299 299 298 296 296 295 295 294 294 294 293 294 294 293 290 290 289 289 289 288 287 286 285 284 283 283 282 281 281 282 282 283 282 282 283 283 284 284 284 284
300 299 299 298 298 296 295 294 294 295 294 294 293 293 293 293 291 289 288 288 288 288 286 285 285 284 284 284 283 281 281 282 282 282 282 282 283 282 282 283 283 284 284
299 298 298 297 295 294 294 294 294 294 294 293 293 292 292 291 290 289 288 287 287 286 285 285 284 284 283 282 280 280 281 281 282 282 281 281 281 281 280 281 282 283 283
299 297 296 294 294 293 293 293 293 294 294 293 292 292 291 291 290 288 287 287 286 286 285 284 283 282 282 279 279 280 280 281 281 280 280 280 280 280 280 281 281 282 282
297 295 293 292 293 293 293 293 293 293 293 292 291 291 291 290 289 288 287 286 285 285 285 284 283 282 281 278 277 277 279 280 278 278 279 280 281 282 282 282 282 282 283
293 291 292 292 293 293 292 292 293 293 293 292 291 290 290 289 288 287 286 285 284 284 283 283 283 282 279 278 277 278 278 276 277 279 280 281 281 282 283 283 283 283 283
291 290 292 292 293 292 292 292 293 293 292 292 291 290 289 289 287 287 285 284 283 283 282 283 282 280 279 279 279 278 277 278 279 279 280 281 281 281 282 282 283 283 283
290 291 292 292 292 292 291 291 292 292 292 291 291 290 289 289 288 287 285 285 283 283 282 281 281 281 280 280 279 279 279 279 278 279 279 280 280 281 281 283 284 285 283
291 292 292 291 291 291 291 290 290 291 292 291 290 290 289 289 288 287 286 285 284 283 282 282 281 281 281 281 281 281 280 279 278 278 279 279 280 281 281 282 283 284 285
290 290 290 290 291 291 291 290 289 290 290 290 290 289 289 288 287 286 286 285 284 283 282 281 282 282 282 282 281 281 280 280 279 278 278 279 279 280 281 281 283 284 285
290 289 290 291 291 291 290 290 289 289 289 289 289 288 287 286 285 284 284 284 283 283 282 282 282 282 282 281 281 281 280 280 279 277 278 278 278 279 280 281 282 282 283
290 290 290 290 291 291 290 289 290 290 289 289 288 288 287 286 285 284 283 283 283 283 282 282 283 282 282 282 281 281 280 279 278 278 278 278 278 278 279 280 280 281 281
290 290 290 291 290 289 289 289 289 289 289 289 288 288 288 286 285 284 283 283 283 282 282 282 283 283 282 282 281 281 280 279 278 277 277 277 277 277 279 279 280 280 280
291 291 290 289 288 288 287 287 287 288 288 288 288 287 287 286 286 285 284 283 283 283 283 284 284 283 282 282 281 280 279 278 278 277 277 277 277 277 278 278 279 279 280
292 291 290 289 289 288 288 287 288 288 288 287 288 288 287 287 286 285 285 284 284 284 283 283 283 283 283 282 281 280 279 279 278 278 278 277 277 277 278 277 278 278 279
291 291 290 290 289 288 288 288 287 287 287 287 287 288 288 287 286 286 286 285 285 284 284 284 283 283 283 282 280 280 279 279 278 278 277 277 276 276 277 277 277 277 278
291 290 289 288 288 288 288 288 287 286 286 287 287 287 288 287 286 286 286 285 285 285 285 285 284 284 283 282 281 280 279 279 278 277 277 276 276 277 277 277 277 276 277
290 289 288 287 287 286 286 286 287 287 287 287 287 287 287 288 287 287 286 286 286 285 285 284 284 284 283 283 282 281 280 279 278 277 277 277 276 276 276 276 277 277 276
289 288 287 287 286 286 286 286 287 286 286 286 286 287 287 287 287 287 287 286 286 286 286 285 284 284 283 282 282 282 281 280 279 278 278 278 277 276 276 276 276 276 276
289 288 287 286 286 286 286 287 286 286 286 286 286 286 286 286 286 286 286 286 286 286 286 286 285 285 284 283 283 282 281 280 280 278 278 278 277 277 277 275 275 275 276
287 287 287 286 285 285 284 284 284 285 285 284 284 284 285 285 285 285 285 285 285 285 285 285 285 285 285 284 283 282 282 280 280 279 278 277 277 276 275 275 275 276 276

GFSGL_850_thetae_024.txt.gz
Theta_e
307 309 308 305 301 300 300 300 299 297 297 296 296 295 295 296 296 296 296 295 295 295 295 295 294 293 292 292 291 290 289 289 288 288 287 287 287 286 285 285 285 285 285
308 307 305 301 301 301 300 300 299 298 297 296 295 295 295 295 295 294 293 294 293 294 293 293 293 292 291 290 289 288 288 287 287 286 286 285 285 284 284 284 285 285 285
306 304 302 301 301 300 300 300 299 298 297 296 295 295 295 295 295 295 294 293 293 293 292 292 291 291 290 289 288 287 286 284 284 284 284 283 283 283 283 284 285 285 285
305 304 301 301 301 300 300 300 298 297 297 296 295 294 294 294 294 294 294 293 292 292 292 291 290 289 288 287 286 285 283 283 282 282 282 282 282 282 283 283 283 284 283
306 302 301 300 300 300 300 299 298 297 296 295 295 294 294 294 294 294 293 291 291 291 290 290 289 287 286 285 284 284 283 282 281 281 281 282 282 283 282 282 283 283 283
305 302 301 300 300 299 299 298 297 295 295 295 295 294 294 293 294 293 292 289 289 289 289 288 287 286 285 284 284 284 283 282 281 282 282 282 282 282 282 282 281 281 282
305 302 301 300 299 298 297 295 295 294 295 295 294 294 293 293 293 292 290 288 287 287 287 287 286 285 285 284 284 283 280 281 281 281 282 282 282 281 281 280 280 280 280
303 301 299 299 298 295 294 293 294 294 294 294 294 293 293 292 292 291 290 288 287 287 287 286 285 284 284 283 282 279 279 279 280 281 281 280 280 280 280 280 280 280 281
301 299 298 296 295 293 293 293 293 293 293 294 294 293 292 291 291 291 290 288 287 286 286 285 285 284 283 283 281 279 278 278 280 280 279 279 280 280 281 282 282 281 281
300 296 296 294 294 293 293 293 293 293 293 293 293 292 291 291 290 290 289 288 286 285 285 284 284 284 283 283 280 279 279 279 278 278 279 280 280 281 282 283 283 282 282
297 295 293 293 292 292 292 292 293 292 293 293 293 292 291 290 290 289 287 287 286 285 284 283 283 283 283 281 280 279 280 279 279 279 279 279 280 281 281 281 282 283 283
293 293 294 291 291 292 293 292 291 292 293 293 293 292 291 290 289 288 288 287 286 285 284 283 282 282 281 281 281 280 280 279 279 279 278 279 280 280 280 281 282 283 284
294 293 290 291 292 292 291 290 290 290 292 292 292 292 291 290 289 289 289 287 286 285 284 283 282 282 281 281 281 281 281 280 279 279 278 278 279 280 280 281 282 283 284
292 290 291 291 290 290 291 291 291 291 289 291 292 291 290 290 289 289 288 287 286 285 284 283 283 282 282 282 281 281 281 280 280 279 279 278 279 279 280 280 282 283 284
290 290 290 290 290 291 291 291 291 290 289 289 290 290 290 290 289 288 287 286 286 286 285 284 283 282 282 282 281 281 281 280 280 279 279 278 278 278 279 280 281 282 283
290 290 290 290 290 290 291 291 290 290 289 290 289 289 289 289 289 287 286 285 284 284 284 283 283 282 283 282 281 281 281 280 280 279 278 278 278 278 278 280 280 281 281
290 290 290 290 290 290 290 289 289 289 289 289 289 289 289 289 288 287 286 285 284 283 283 283 282 282 283 282 281 281 281 281 280 278 278 278 278 278 278 279 279 280 280
291 290 290 291 291 290 289 288 288 287 287 288 288 288 288 288 288 287 286 285 284 283 283 283 282 282 282 282 282 281 281 280 279 278 278 278 278 277 277 278 278 279 279
291 291 292 291 291 290 289 289 288 288 287 288 288 288 288 288 287 287 286 285 284 284 283 283 283 283 284 284 283 282 281 280 279 278 278 278 277 277 277 277 277 278 279
292 292 292 291 291 290 290 289 288 288 288 288 287 287 287 287 288 287 287 286 285 285 284 284 283 283 284 284 283 282 281 280 279 279 278 278 277 277 277 277 277 277 278
292 292 291 291 291 290 289 288 288 288 288 288 287 286 287 287 288 288 287 286 286 286 285 284 284 284 283 283 283 282 281 280 279 279 278 277 277 277 277 277 277 277 277
290 291 290 291 289 289 288 287 287 286 286 287 287 287 287 287 287 287 288 287 286 286 286 285 285 285 285 284 284 283 282 281 280 279 278 278 277 277 277 277 277 277 277
289 288 289 289 289 289 288 287 286 286 287 287 287 287 287 286 287 288 288 288 287 287 286 286 286 285 284 284 284 284 283 282 281 280 279 278 278 277 277 277 277 277 276
286 287 287 289 289 288 287 286 286 286 286 287 287 286 286 286 286 287 287 287 287 287 286 286 286 286 286 285 284 284 283 282 282 280 280 278 278 278 277 276 276 276 276
284 285 285 285 286 288 287 286 285 285 285 285 285 285 285 285 285 285 285 285 285 285 285 285 285 286 285 285 285 285 284 283 282 281 280 279 278 278 278 277 277 277 276
284 284 285 285 286 287 286 285 284 283 282 282 282 282 282 283 283 283 284 284 284 284 285 284 284 284 285 285 285 285 285 283 282 282 280 279 278 278 278 277 276 276 276

GFSGL_850_thetae_027.txt.gz
Theta_e
312 310 308 309 306 303 301 299 299 299 298 297 296 295 295 295 295 295 295 295 294 293 293 293 293 293 293 292 291 290 290 289 288 287 287 286 285 285 284 284 283 284 284
311 308 308 307 303 301 300 300 300 299 299 298 297 296 294 294 295 295 294 295 294 293 293 293 293 292 291 291 290 289 288 287 286 285 284 283 283 283 283 282 282 283 283
310 308 308 306 301 301 301 300 300 299 299 297 297 296 294 294 294 294 294 294 293 292 292 292 292 291 290 289 288 287 287 286 284 283 282 282 282 282 282 282 282 282 282
309 308 308 304 302 301 301 300 300 299 298 297 297 296 295 294 294 294 294 294 293 292 291 291 290 289 288 288 287 286 285 284 283 282 281 281 281 282 282 282 282 282 282
308 308 306 303 301 301 300 300 299 298 297 296 295 295 295 294 294 294 293 293 293 290 291 290 289 288 287 287 285 285 284 284 283 281 281 281 281 281 282 282 282 281 281
308 307 306 302 300 300 299 299 298 297 295 294 295 295 295 294 294 293 292 292 289 287 287 287 288 287 286 285 285 284 284 282 280 280 281 281 281 281 281 281 280 279 280
308 307 302 301 300 299 298 297 295 294 293 294 294 294 294 294 293 293 292 291 290 288 287 286 286 286 285 285 284 284 282 280 279 279 280 281 281 280 280 280 280 281 281
307 304 301 300 298 297 296 294 294 293 294 293 293 293 294 293 293 292 292 291 290 288 287 286 285 285 284 284 284 283 281 280 279 279 280 280 279 279 280 281 281 282 282
303 301 300 297 296 295 295 294 293 293 293 292 293 294 293 293 292 291 291 291 290 288 286 285 285 284 284 283 283 283 281 280 280 279 279 279 279 280 281 281 281 282 282
299 297 296 296 297 295 293 293 293 292 292 293 293 293 293 293 292 291 290 289 288 287 286 285 284 283 283 283 282 281 280 280 280 280 279 279 280 280 280 280 281 281 282
297 298 299 299 294 293 292 292 293 292 292 291 292 293 293 292 292 290 289 289 288 287 286 284 283 283 283 282 281 280 280 280 280 279 279 278 279 279 280 280 281 282 282
300 300 298 294 293 291 292 292 292 291 290 290 292 292 292 292 291 290 289 288 288 288 286 285 284 283 282 281 281 281 281 280 280 280 279 279 278 279 279 280 280 281 282
297 294 294 290 291 292 292 290 290 290 291 290 290 291 291 291 291 290 289 289 289 288 286 285 284 283 282 282 281 281 281 281 280 280 279 279 278 278 279 279 280 282 283
294 291 290 290 290 290 290 290 291 291 291 291 289 289 290 291 290 290 289 289 288 287 286 285 285 284 283 282 282 281 281 281 280 280 279 279 278 278 278 279 280 281 282
290 290 290 290 289 290 290 290 290 291 291 290 289 289 289 288 289 290 290 289 287 286 285 285 285 284 283 282 282 282 281 281 281 280 279 279 278 278 278 279 280 280 280
289 290 290 290 290 290 290 290 290 290 288 288 289 289 289 290 289 289 288 288 287 286 284 284 284 283 283 282 283 282 281 281 281 280 280 278 278 277 277 278 279 279 279
291 291 290 290 290 290 291 291 290 290 289 288 287 288 288 289 288 288 288 288 287 286 285 284 283 283 283 282 282 282 281 281 281 281 279 278 278 277 277 277 277 278 279
292 292 292 291 291 291 291 291 290 289 289 288 288 288 287 288 288 288 288 288 287 286 285 284 283 283 283 282 282 282 282 281 281 280 279 278 277 277 277 277 277 277 278
291 292 292 292 291 291 291 291 290 290 289 288 288 288 288 287 287 287 287 288 287 286 285 285 284 283 283 283 283 283 283 282 282 281 279 278 278 277 277 277 277 277 277
290 291 291 291 291 291 291 291 290 290 288 288 287 287 288 287 286 287 287 287 287 287 286 285 285 284 283 283 283 284 283 283 282 281 280 279 278 277 277 277 277 277 277
288 288 288 288 289 289 289 290 289 289 288 287 286 286 286 287 287 287 287 287 287 287 287 286 286 285 284 284 283 283 283 283 283 282 280 279 278 278 277 277 277 277 277
286 286 286 286 287 287 287 288 289 289 288 286 286 286 287 287 287 287 286 287 287 288 288 287 286 286 285 285 284 284 284 284 283 282 281 280 279 278 278 277 277 277 277
281 281 282 282 283 285 285 285 287 289 287 286 286 286 287 286 286 286 286 286 287 288 288 287 286 286 286 285 285 285 284 284 284 283 282 281 280 278 278 278 277 277 276
280 281 281 282 283 284 285 285 287 287 286 285 285 285 285 285 285 285 285 285 286 286 287 287 286 286 286 286 285 285 285 284 284 283 283 281 280 278 278 278 277 277 277
279 279 280 280 281 281 281 283 283 283 283 283 283 283 283 283 283 283 283 283 284 285 285 285 285 285 285 285 285 285 285 285 285 284 283 282 280 279 278 278 277 277 277
277 277 277 277 278 278 278 278 279 279 279 280 280 280 280 280 280 280 280 281 281 281 282 283 284 284 284 285 284 284 285 285 285 284 283 282 280 279 278 278 277 277 276

GFSGL_850_thetae_030.txt.gz
Theta_e
319 317 316 314 311 309 308 305 300 300 301 300 298 297 296 296 294 293 294 294 294 294 294 293 293 293 293 292 292 291 290 289 288 287 286 285 283 283 283 283 282 282 282
317 316 315 312 310 309 306 302 301 301 300 299 299 298 296 296 294 293 294 294 295 294 294 293 292 292 292 291 290 290 288 287 286 285 284 283 282 282 282 282 282 282 282
316 315 313 310 308 309 303 302 301 300 299 299 298 297 296 295 294 294 293 293 294 294 294 292 292 292 291 290 289 288 287 286 285 284 283 282 281 282 281 281 282 282 282
316 314 311 309 308 306 302 301 301 300 299 298 297 295 295 295 295 294 294 294 293 293 292 291 291 290 290 289 287 287 286 284 284 283 282 280 280 281 281 281 281 281 280
315 312 310 308 307 303 301 301 300 298 298 297 295 294 294 295 295 294 294 293 292 292 291 289 289 289 288 287 286 285 284 284 283 282 280 279 280 280 280 280 280 280 280
314 310 308 306 303 301 301 299 298 298 296 294 295 293 294 295 294 294 293 293 292 291 290 288 287 286 285 286 285 284 284 283 282 280 279 279 280 280 280 280 279 279 281
310 307 305 304 301 300 298 297 297 298 296 295 293 294 294 293 293 293 293 293 292 291 291 289 288 286 285 285 284 284 283 282 281 279 279 279 279 279 279 279 280 281 281
307 306 305 301 300 298 297 298 299 298 295 293 293 293 293 293 293 293 292 292 291 291 290 289 287 285 285 284 284 283 283 282 281 280 280 279 279 279 279 280 281 281 281
306 301 298 297 297 298 299 300 297 294 293 292 292 292 292 293 293 293 292 291 291 290 289 287 286 285 284 284 283 282 282 281 280 280 280 279 278 279 280 280 280 280 280
299 297 297 298 301 300 299 295 293 292 292 291 291 292 292 293 293 292 292 291 290 289 288 287 286 284 284 283 282 282 281 281 280 280 280 280 278 278 279 279 280 280 280
299 300 300 301 300 296 294 292 291 292 291 291 290 289 291 292 292 292 292 291 290 289 288 287 286 284 283 283 282 281 281 281 280 280 279 279 279 279 278 279 279 280 280
300 301 300 297 293 291 291 291 291 290 290 290 290 290 289 291 291 291 291 291 290 289 288 288 286 285 284 282 282 281 281 281 280 280 280 279 279 279 278 278 279 280 281
298 294 293 291 290 290 290 290 290 290 290 290 290 290 289 288 289 290 290 291 289 289 288 288 286 285 284 283 283 282 281 281 280 280 280 280 279 278 278 278 279 280 281
292 290 290 290 290 290 289 289 289 289 289 290 290 290 290 289 289 288 288 290 290 289 289 287 286 285 285 284 283 282 282 281 280 281 280 280 279 278 278 278 279 280 280
290 289 289 289 289 289 289 290 290 289 290 290 290 289 288 288 288 289 289 288 289 289 288 287 286 285 284 284 283 282 282 281 281 281 280 280 279 278 278 278 278 279 279
290 290 290 290 290 290 290 290 290 290 290 290 289 288 288 287 287 288 289 289 288 288 288 287 286 285 284 283 283 283 282 282 281 281 281 280 279 278 278 278 277 278 279
290 291 291 291 291 291 291 291 291 290 290 290 289 290 289 288 287 287 288 288 288 288 287 287 286 285 284 283 283 283 282 282 281 281 281 280 278 278 277 277 277 277 278
290 290 290 291 291 291 291 291 291 291 290 290 290 290 288 288 288 287 287 288 288 288 287 287 286 286 285 284 283 282 282 282 282 282 281 281 279 278 278 277 277 277 277
288 288 288 288 288 289 289 289 290 290 290 291 289 289 288 287 286 287 287 287 287 287 287 288 287 286 285 284 283 282 282 282 282 282 282 281 280 278 278 277 277 277 277
283 284 285 284 285 285 286 287 287 287 288 288 289 288 288 286 286 287 287 286 286 286 287 287 287 286 286 285 283 283 283 283 283 283 282 282 280 279 278 277 277 277 277
281 280 280 280 281 281 282 283 284 284 285 286 286 287 288 286 286 286 287 286 286 286 286 287 287 287 286 286 284 283 283 283 283 283 283 282 281 280 278 278 277 277 277
279 279 280 280 281 281 282 283 283 284 284 285 286 287 286 286 286 286 286 286 286 286 286 287 287 287 287 286 286 285 284 284 284 283 283 283 282 280 279 278 277 277 277
278 278 279 279 279 280 280 281 281 281 283 285 286 286 286 286 286 285 285 285 285 285 286 286 286 286 287 286 286 285 285 285 284 284 284 283 282 281 280 278 278 278 277
277 277 277 277 278 278 278 279 279 280 280 281 281 282 282 283 283 284 284 283 283 284 285 285 285 285 286 286 286 286 285 285 285 285 284 284 283 282 280 278 278 278 277
276 276 276 276 276 276 276 276 276 276 277 278 278 278 278 279 280 280 280 281 281 282 282 284 284 285 285 285 285 285 285 285 285 285 285 284 283 282 280 279 278 278 277
275 275 274 274 274 274 274 274 274 274 274 275 275 276 276 276 277 277 278 279 279 279 280 281 281 282 283 284 284 285 284 284 284 285 285 284 283 282 281 279 278 278 277

GFSGL_850_thetae_033.txt.gz
Theta_e
326 325 323 320 318 315 314 311 309 309 307 300 303 300 298 295 295 295 293 293 293 293 294 294 293 293 292 291 291 291 290 290 289 288 287 286 284 283 282 282 282 282 282
325 323 320 318 315 314 312 310 308 305 301 302 300 299 298 295 295 294 294 294 293 293 294 293 293 292 292 291 291 290 289 288 286 286 286 284 283 282 280 281 282 282 281
323 321 319 316 315 314 310 309 308 303 302 301 299 298 296 295 294 294 294 295 294 293 293 292 292 292 290 291 290 289 287 287 286 284 284 283 282 281 280 280 281 281 281
320 319 316 316 315 313 310 308 303 301 301 299 298 297 295 295 294 295 295 294 294 293 292 292 292 289 289 289 288 287 286 285 284 284 283 282 281 280 280 280 281 280 279
318 317 317 315 313 310 307 303 301 300 298 297 296 295 296 294 294 295 294 294 293 293 292 291 290 288 287 286 285 285 285 284 284 283 282 281 280 279 279 279 279 279 280
317 317 315 310 306 304 302 301 299 297 296 295 299 299 296 294 294 294 293 293 293 293 292 291 290 289 289 287 285 284 284 284 283 282 281 280 279 279 279 279 279 280 280
316 314 310 307 305 303 301 299 297 297 299 299 299 296 293 293 293 293 293 293 293 292 291 291 290 289 288 286 285 284 284 283 283 282 280 280 280 279 278 278 279 280 281
312 309 307 305 302 298 297 297 298 298 299 300 295 293 292 291 291 293 293 293 292 292 291 290 290 288 286 285 284 284 283 283 282 280 280 280 279 279 278 279 279 280 280
307 305 301 298 297 297 298 298 299 300 298 294 292 291 291 290 291 292 292 292 292 291 291 290 289 287 286 284 284 283 283 282 281 280 280 280 279 279 279 278 279 279 279
302 299 298 298 298 299 299 300 299 296 293 291 291 290 290 289 289 290 292 292 292 291 290 289 288 287 287 285 283 283 282 281 281 280 280 280 279 279 279 278 278 279 279
299 299 300 300 300 300 297 293 292 291 291 290 290 289 289 289 289 290 292 291 291 291 290 290 288 288 287 285 284 283 282 281 281 280 280 279 279 279 279 278 278 278 279
301 301 301 298 294 292 291 291 291 291 290 289 289 289 289 289 289 288 290 290 289 290 290 290 288 288 288 286 284 283 282 281 281 280 280 280 280 279 279 278 278 278 279
296 294 292 290 290 290 290 290 290 289 289 289 289 289 289 289 289 289 289 288 288 289 290 289 289 288 288 286 285 284 283 282 281 281 280 280 280 279 279 278 278 278 279
290 290 289 289 289 289 289 289 289 289 289 289 289 289 289 289 289 288 287 288 289 289 288 289 289 288 288 286 285 284 284 282 281 281 281 280 280 279 279 278 278 278 278
290 290 290 290 290 290 290 289 290 290 290 290 290 290 290 289 289 289 288 287 287 288 289 288 288 288 287 286 286 285 284 283 282 281 281 280 280 280 278 278 278 278 277
290 290 290 290 290 290 290 290 291 291 291 291 291 290 290 289 289 290 288 287 287 288 288 288 288 288 287 287 286 284 283 283 282 282 281 281 280 280 278 278 278 277 277
290 290 290 290 290 289 289 289 289 287 289 290 290 291 291 290 290 289 288 288 287 287 288 288 288 288 287 287 285 284 283 283 282 282 281 281 281 280 278 278 278 278 277
287 286 285 284 284 284 284 285 286 287 287 287 286 287 288 289 289 289 287 287 287 287 287 287 287 287 287 287 286 285 283 283 282 282 282 281 281 281 280 278 278 278 277
283 282 282 281 281 281 280 280 281 282 283 284 285 285 286 286 288 288 286 286 286 287 287 286 286 287 287 286 286 285 284 282 282 282 282 282 281 281 280 278 278 278 277
281 281 280 280 280 280 280 280 281 282 282 283 283 284 284 284 284 285 286 286 286 286 286 286 286 286 286 287 286 286 285 283 282 282 282 283 282 281 280 279 278 278 277
280 280 279 279 279 279 279 280 280 280 281 281 281 282 284 285 285 286 286 286 286 286 286 286 286 286 286 287 287 286 285 284 283 283 283 283 282 282 281 279 278 278 278
279 278 278 277 277 277 278 278 278 279 279 280 280 281 283 284 284 284 285 286 285 286 285 285 285 286 286 286 286 286 286 284 283 283 283 283 282 282 281 280 278 278 278
277 277 277 277 276 276 277 277 277 277 277 277 278 279 280 279 279 280 280 281 282 284 284 284 285 285 285 284 285 286 286 286 285 284 284 284 283 283 282 281 279 278 278
276 276 276 276 275 275 275 275 275 275 275 275 275 276 277 278 278 278 278 279 280 281 282 283 283 284 284 285 284 284 286 286 285 285 285 284 284 283 282 281 280 278 278
275 275 275 275 274 274 274 274 273 273 273 273 274 274 274 275 275 276 277 277 278 278 279 280 280 281 283 283 284 285 285 285 285 285 285 285 285 284 283 282 280 278 278
274 274 274 273 273 273 273 272 272 272 272 272 272 272 272 272 273 273 274 275 276 277 278 278 278 279 280 281 282 283 284 284 284 284 284 285 284 284 284 283 281 279 278

GFSGL_850_thetae_036.txt.gz
Theta_e
329 327 326 325 325 322 321 321 320 318 313 307 309 305 302 299 296 295 296 294 294 294 293 292 293 292 292 292 291 291 291 290 290 289 288 286 285 284 283 282 281 281 281
324 325 325 325 322 321 320 319 317 314 308 307 302 301 299 298 295 297 296 294 294 294 294 293 292 292 291 292 290 289 289 289 288 287 286 285 284 283 282 281 281 281 281
324 324 323 322 321 320 318 316 313 308 305 301 301 300 298 296 296 297 294 294 294 294 294 293 292 291 291 289 288 289 288 288 286 286 284 284 283 282 281 281 281 281 281
324 323 322 319 318 316 314 310 307 304 304 300 300 299 297 296 299 295 294 294 295 294 293 293 292 291 290 289 288 287 286 286 285 284 284 283 282 281 280 280 281 280 279
323 320 318 317 315 312 311 309 304 301 300 299 297 296 296 299 299 297 294 295 294 293 293 293 292 291 290 289 287 287 285 284 284 283 283 282 282 280 280 280 279 279 280
320 318 316 314 311 310 308 306 302 301 299 298 296 297 299 299 295 294 294 294 293 293 293 292 292 291 290 289 288 287 285 284 284 283 283 282 281 280 280 279 279 279 279
317 316 313 310 308 307 303 301 300 299 298 296 297 299 298 298 294 293 293 292 292 293 293 292 291 291 290 289 287 285 284 284 283 283 282 281 280 280 279 279 278 278 279
314 311 309 308 306 303 300 298 298 297 297 298 299 299 296 293 291 291 291 291 292 292 292 292 291 290 290 288 286 285 284 284 283 282 281 280 280 280 279 279 279 278 278
309 307 305 303 301 298 297 298 297 299 299 299 298 294 292 291 290 289 289 290 291 292 292 291 291 290 289 288 286 285 284 283 283 281 280 280 280 279 279 279 279 278 278
305 303 300 299 298 298 299 299 300 299 298 293 292 291 291 290 289 289 289 289 290 292 291 291 291 290 289 288 287 286 284 283 282 281 280 280 280 279 279 279 278 278 278
300 300 299 299 300 300 299 296 291 291 291 291 291 290 289 289 289 289 289 288 289 291 290 289 290 290 289 288 287 287 286 283 282 281 281 280 280 280 279 279 279 278 278
301 301 300 296 293 291 290 290 290 290 290 290 290 289 289 289 289 289 289 289 288 289 290 290 289 289 290 288 288 287 286 284 283 282 281 281 280 280 280 279 279 278 278
294 292 290 290 289 289 289 289 289 289 289 289 289 289 289 289 289 289 289 288 288 287 288 288 288 288 288 289 288 288 286 285 283 283 281 281 280 280 280 279 278 278 279
290 290 290 290 290 290 290 289 289 289 289 289 290 290 290 290 290 290 289 289 289 288 287 287 287 288 288 288 288 287 286 285 284 283 282 281 281 280 280 280 278 278 279
290 290 290 290 290 290 290 289 290 290 290 290 290 290 290 290 290 290 290 290 289 289 288 287 287 287 288 288 287 286 287 286 284 283 283 281 281 280 280 279 278 278 278
290 290 289 289 288 287 286 286 285 284 284 284 284 286 287 287 288 288 289 289 289 288 288 287 287 287 288 288 288 287 287 286 285 284 283 282 281 281 280 280 278 278 278
287 286 286 285 284 283 283 282 282 282 281 281 281 283 284 285 285 286 287 287 288 288 287 287 287 286 287 287 287 288 287 286 285 283 283 282 281 281 280 280 279 278 278
284 284 283 282 282 281 281 280 280 280 281 281 281 282 282 282 283 283 284 286 287 287 287 286 287 287 287 286 286 287 286 286 284 283 282 282 281 281 281 280 279 278 278
283 282 282 281 280 280 279 279 279 279 280 280 280 281 281 282 283 283 284 285 285 285 286 285 286 286 286 286 286 286 286 286 285 284 282 282 281 281 281 281 280 278 278
281 281 280 279 279 279 278 278 278 278 278 278 279 279 279 280 280 282 284 284 285 285 286 286 286 286 286 286 286 286 286 286 285 284 283 282 282 282 281 281 280 278 278
280 279 279 278 278 278 277 277 277 277 277 277 277 277 277 278 279 279 278 280 281 282 283 284 285 285 285 285 285 285 285 286 286 285 283 282 282 282 282 281 281 279 278
279 278 278 277 277 276 276 276 275 275 275 275 276 276 276 276 277 278 279 279 279 278 278 281 283 283 284 285 285 285 284 284 285 285 283 283 283 283 282 282 281 280 278
278 277 277 276 276 276 275 275 275 274 274 274 274 274 274 275 275 275 276 277 278 278 279 279 280 282 283 283 284 284 284 283 285 285 284 283 283 283 283 282 282 281 278
277 276 276 275 275 275 274 274 274 273 273 273 273 273 273 273 273 274 274 274 275 276 277 278 279 279 280 281 282 282 283 283 283 285 285 284 284 284 283 283 282 281 279
275 275 275 274 274 274 274 273 273 272 272 272 272 272 272 272 272 272 273 273 274 274 275 276 277 278 278 279 280 281 282 282 283 284 284 285 285 284 284 284 283 282 280
274 274 274 273 273 273 273 272 272 272 271 271 271 270 270 271 271 271 271 272 272 273 274 274 275 276 277 278 278 279 281 282 282 284 284 284 284 284 284 284 283 282 280

GFSGL_850_thetae_039.txt.gz
Theta_e
325 326 326 326 325 325 323 322 322 321 317 315 310 304 306 304 299 296 296 299 298 294 294 294 293 293 293 291 291 292 292 291 290 290 289 288 286 285 284 283 282 282 282
325 325 321 322 322 322 321 321 321 320 318 312 305 304 304 300 298 297 297 300 295 294 294 294 293 293 292 291 291 291 290 290 289 289 288 286 285 284 283 282 281 281 281
325 324 323 322 322 322 323 320 319 318 315 310 303 303 304 299 297 296 298 299 295 295 294 294 294 293 292 292 290 289 289 288 288 287 286 285 284 283 282 281 281 281 281
325 324 324 323 323 321 320 318 316 315 310 304 302 301 299 297 297 296 299 299 295 295 295 294 293 293 292 291 290 289 289 288 287 286 285 284 284 283 282 281 281 281 281
325 324 323 320 319 317 316 313 309 305 301 301 300 299 297 297 296 299 299 295 294 294 295 294 293 293 292 291 290 290 288 287 286 285 285 284 284 283 281 281 281 281 281
320 318 318 316 314 313 310 306 304 302 301 299 297 296 296 299 299 298 297 294 293 293 294 293 293 293 292 291 290 289 289 287 285 285 284 284 283 282 280 281 281 281 281
317 317 315 314 311 309 306 306 304 301 298 297 298 300 300 299 298 297 293 292 292 291 292 292 293 293 292 291 290 290 289 286 285 284 284 283 283 281 280 280 281 281 281
314 313 311 309 308 306 304 302 300 299 298 301 300 299 298 298 296 292 291 290 290 290 290 292 292 292 292 291 290 289 288 286 285 284 283 283 281 280 280 280 280 280 280
310 308 307 305 304 303 301 302 298 300 299 298 299 299 297 293 291 291 290 289 289 289 289 290 292 291 291 291 290 289 288 287 286 284 283 282 281 280 280 280 280 280 280
304 303 302 300 299 299 298 299 300 300 299 296 294 292 291 291 290 289 289 289 289 289 288 288 291 291 290 290 290 289 288 287 286 284 283 282 281 280 280 280 280 280 280
301 300 299 299 300 300 297 293 291 291 291 291 290 290 290 290 289 289 289 289 289 289 289 288 288 291 290 289 289 289 289 288 286 285 283 282 281 281 281 281 280 280 279
301 301 299 295 292 291 290 290 290 290 289 289 289 289 289 289 289 289 289 289 289 289 289 288 288 288 289 289 289 289 289 288 286 285 284 283 282 281 281 281 280 279 279
295 293 291 290 290 290 289 289 289 290 290 290 290 290 290 290 290 290 290 290 290 290 289 288 289 288 287 288 288 288 288 287 286 285 285 284 283 281 281 280 280 280 278
291 290 290 290 290 290 289 289 289 288 288 287 287 286 286 286 287 287 287 287 289 290 290 289 289 288 287 287 287 288 288 287 286 286 285 284 283 282 281 280 280 279 278
290 290 290 289 288 287 286 285 284 283 282 282 282 283 283 284 284 284 285 286 286 287 287 288 288 288 288 287 286 287 287 287 285 285 285 285 283 282 281 281 281 279 278
289 287 287 286 285 284 284 283 283 282 281 281 281 281 282 282 282 282 283 283 284 285 286 286 287 288 287 287 286 287 287 287 286 286 285 285 284 283 282 281 281 280 279
286 285 285 284 283 283 282 282 281 281 281 280 279 279 280 280 281 281 282 283 283 283 284 287 287 287 287 286 286 285 286 286 287 286 285 285 284 283 282 281 280 280 279
284 284 283 282 282 281 281 280 280 279 279 278 278 278 278 278 279 280 280 282 284 284 285 285 285 286 286 286 285 286 286 286 286 286 285 285 284 283 282 281 281 280 279
283 282 282 281 280 280 279 279 278 278 278 277 277 277 277 277 277 278 279 279 279 281 282 283 285 285 285 285 285 286 286 286 286 285 285 285 283 282 282 281 281 280 279
282 281 280 280 279 278 278 278 277 277 277 276 276 276 276 276 276 277 277 278 279 279 279 280 282 284 285 285 285 285 285 285 285 285 285 285 284 282 282 282 281 281 279
280 280 279 278 278 277 277 277 276 276 276 275 275 275 275 274 275 275 275 275 276 277 278 279 280 279 281 282 283 284 285 285 284 284 284 285 284 282 282 282 281 281 280
279 278 278 277 277 277 276 276 275 275 275 274 274 274 274 274 274 274 274 274 274 275 275 277 278 279 280 279 281 283 284 284 284 283 284 284 284 282 282 282 282 281 281
278 277 277 276 276 276 275 275 274 274 274 273 273 273 273 273 273 273 273 273 273 273 274 275 276 278 279 279 279 280 282 282 283 282 282 284 284 283 283 283 282 282 281
277 276 276 275 275 275 274 274 273 273 272 272 272 272 272 272 272 272 272 272 272 272 273 273 274 275 277 278 278 279 280 281 282 282 282 283 284 283 283 283 283 282 282
276 275 275 274 274 273 273 272 272 272 271 271 271 271 271 271 271 271 271 271 271 271 272 273 273 274 275 276 277 278 279 280 281 281 282 282 283 284 283 283 283 283 282
274 274 274 273 272 272 272 271 271 270 270 270 270 270 270 270 270 270 270 270 270 271 271 272 273 274 274 275 276 277 278 279 280 281 281 282 283 284 284 284 284 283 283

GFSGL_850_thetae_045.txt.gz
Theta_e
332 330 329 325 324 324 324 324 325 323 322 322 321 318 314 312 312 304 303 302 300 300 300 301 300 299 299 298 298 298 297 296 296 295 295 295 294 293 293 292 291 289 288
333 332 331 326 325 325 326 326 325 322 321 320 321 319 313 313 308 303 302 299 299 299 301 301 299 299 298 298 298 297 296 296 295 295 294 294 293 293 292 291 290 289 288
332 331 330 329 327 328 326 325 324 322 321 320 318 314 312 309 304 301 302 299 300 302 301 300 299 299 298 298 297 297 296 295 295 294 294 293 293 292 291 290 289 289 288
331 330 328 327 324 324 323 322 321 320 318 316 315 313 308 306 301 302 300 301 301 300 300 299 298 298 298 297 297 297 296 295 295 294 293 293 292 291 290 289 289 288 288
326 325 324 322 320 319 317 316 317 318 316 315 313 309 306 305 303 303 302 298 299 300 299 299 298 297 298 297 297 296 295 294 294 294 293 292 292 291 290 289 289 288 287
321 319 317 316 315 314 314 315 313 311 310 309 308 307 305 303 301 302 299 299 299 299 298 297 297 296 296 295 295 294 294 294 293 293 293 292 291 291 290 289 288 288 286
315 313 312 313 314 313 312 310 308 306 303 301 302 301 300 300 299 298 298 299 299 298 297 295 295 294 294 294 294 294 294 293 293 293 292 291 291 290 289 289 288 287 285
311 310 311 311 312 310 308 306 304 303 303 303 301 299 299 299 299 299 299 297 295 294 294 294 294 293 293 293 293 294 294 293 293 292 292 291 290 290 289 288 287 285 285
309 308 308 307 306 304 303 303 302 301 301 301 301 300 299 298 296 295 292 291 293 293 293 293 293 293 293 292 292 292 292 292 292 292 291 290 290 289 288 287 286 284 284
307 306 305 304 304 303 302 302 301 299 297 296 297 297 296 295 295 294 292 292 291 291 292 292 292 292 292 292 291 291 290 290 291 291 291 290 290 289 288 287 285 283 284
305 304 304 303 303 301 299 298 297 297 296 296 293 294 294 294 293 293 292 291 290 290 289 289 289 290 291 291 291 291 290 289 288 290 291 290 289 288 287 286 286 284 284
304 303 300 297 295 296 296 295 294 295 295 295 294 294 293 293 292 292 290 288 287 285 285 285 286 287 288 287 287 289 290 289 288 288 289 289 289 288 288 286 285 285 285
299 296 295 295 294 294 295 294 294 293 292 291 290 290 290 289 288 288 287 285 283 282 281 281 281 281 281 284 285 286 287 288 288 288 288 288 288 288 287 287 286 286 285
296 296 294 294 293 292 291 290 290 290 288 287 287 287 287 286 286 285 282 281 280 280 280 280 280 282 282 284 285 285 287 287 288 288 288 287 287 288 287 286 286 285 284
294 293 292 290 289 289 288 287 286 286 284 283 283 282 282 282 281 279 279 279 279 278 279 280 283 285 286 286 285 286 287 287 288 287 287 287 287 287 287 286 285 285 284
291 290 289 288 288 287 287 287 285 284 283 283 282 281 280 280 279 278 278 278 278 278 279 282 282 283 283 284 285 287 288 288 287 287 287 287 287 287 287 286 285 285 284
289 288 286 286 286 285 285 285 285 285 283 282 281 280 279 279 278 278 278 278 278 278 280 280 280 280 280 281 282 283 284 288 287 286 286 286 287 287 286 286 285 285 284
287 286 286 285 284 283 283 283 283 283 282 282 281 280 278 279 278 278 278 278 279 279 278 278 278 278 278 278 279 280 284 286 287 286 286 286 286 286 286 286 285 285 284
284 284 284 283 283 282 281 281 280 280 281 280 280 279 278 278 277 277 276 277 277 277 277 277 276 276 276 276 277 278 281 282 285 286 286 285 285 286 286 286 285 285 284
284 283 282 282 281 281 280 279 279 279 279 279 279 278 276 277 276 276 276 275 275 275 274 274 274 274 274 274 275 276 278 281 282 284 285 285 285 285 285 285 285 284 284
283 282 281 280 280 279 278 278 277 277 277 277 277 276 275 275 274 275 274 274 274 273 272 272 272 272 272 272 273 274 275 278 280 281 282 284 285 284 284 285 285 284 284
281 280 279 279 278 278 277 276 276 276 275 276 275 274 273 273 273 273 273 272 271 271 271 270 270 270 270 271 271 272 273 274 277 278 280 281 283 283 283 284 284 284 283
279 278 278 277 277 277 276 275 275 274 274 273 273 273 273 272 272 271 271 270 270 270 269 269 269 269 269 270 270 270 271 272 274 276 277 279 280 282 283 283 284 284 283
278 277 277 276 275 275 274 273 273 273 272 272 272 272 271 271 270 270 269 269 268 268 268 268 268 268 268 269 270 272 273 274 274 275 276 277 279 280 282 283 283 283 283
277 276 275 274 273 273 272 272 272 271 271 271 270 270 270 269 269 269 268 268 267 267 267 269 269 267 268 270 272 273 273 274 274 275 275 276 278 279 281 282 283 283 283
275 274 273 272 272 272 271 271 270 270 269 269 268 268 268 268 267 267 267 266 266 267 269 267 269 270 271 271 272 272 273 273 274 274 275 276 277 279 280 282 283 283 283

GFSGL_850_thetae_048.txt.gz
Theta_e
331 331 330 330 326 325 323 324 324 324 324 324 322 321 320 318 315 314 311 310 304 304 301 302 302 302 302 301 299 299 298 298 297 297 296 296 295 295 294 294 293 292 292
333 333 332 330 330 327 325 323 326 324 323 322 320 320 319 318 314 312 309 306 303 302 302 303 302 301 300 300 299 299 298 298 297 296 296 295 295 294 294 293 292 292 291
333 333 332 330 328 327 327 326 323 322 321 320 320 319 317 312 310 308 305 302 301 302 302 302 301 300 300 299 299 299 298 298 297 297 296 295 295 294 293 293 292 291 290
331 330 331 330 328 327 325 323 321 321 320 319 317 315 314 312 309 308 305 302 302 302 302 300 300 299 299 298 298 298 298 298 298 297 296 295 295 294 293 292 291 291 290
330 330 331 329 324 323 321 320 320 319 317 316 316 314 312 309 308 306 302 302 301 300 299 299 299 298 298 297 297 297 297 297 296 297 296 295 294 294 293 292 291 290 289
327 326 325 322 320 317 316 314 314 315 314 313 311 309 308 306 304 302 300 300 299 299 299 299 298 297 296 296 295 295 295 294 295 295 294 294 294 293 293 292 291 290 289
323 322 319 317 316 315 314 313 311 309 308 305 304 303 302 300 300 300 298 298 298 298 298 295 294 294 294 294 294 294 294 294 294 294 294 294 293 293 292 291 291 289 289
317 315 314 314 313 312 310 309 307 305 304 303 303 301 301 301 299 298 298 297 296 292 292 294 294 293 293 293 293 293 293 293 292 293 293 293 293 292 292 291 290 290 289
312 311 311 311 310 308 307 306 304 303 302 302 301 300 299 299 297 296 295 293 292 291 291 291 291 291 292 292 292 292 292 292 291 291 290 290 291 292 292 291 290 289 288
310 309 308 307 306 305 304 303 303 302 301 298 297 297 297 295 295 295 294 293 292 291 290 289 287 286 285 286 288 290 290 290 291 291 291 290 289 290 291 291 290 289 288
307 306 306 305 304 303 302 299 299 298 298 297 296 294 295 294 294 293 292 292 290 288 286 285 284 283 282 282 282 284 286 287 287 287 287 288 289 289 289 290 289 289 288
306 306 305 303 300 299 297 296 296 295 295 294 294 294 294 294 293 292 290 287 286 285 283 282 282 282 281 281 283 283 282 282 284 285 285 287 288 288 289 289 289 288 287
304 301 298 296 296 296 296 295 295 295 294 293 292 289 290 290 289 287 286 285 283 282 282 281 281 281 281 284 285 286 286 286 286 286 286 288 288 288 289 288 288 288 287
298 297 296 295 294 294 293 292 292 291 290 289 287 287 287 286 285 284 283 282 282 281 281 280 280 281 282 283 284 284 286 287 287 287 287 287 288 288 287 287 287 287 287
297 296 295 294 292 291 290 290 289 288 286 285 285 284 283 283 283 281 281 281 280 280 279 279 281 282 281 280 281 281 283 284 285 286 287 287 287 287 287 287 287 287 286
295 294 292 290 290 289 289 288 287 286 285 284 283 282 282 281 280 280 280 279 279 279 279 279 280 279 279 278 278 279 279 281 283 284 288 287 287 287 287 287 287 287 286
292 291 289 288 288 288 287 286 286 286 285 284 283 282 282 281 280 279 278 278 278 279 279 278 278 278 277 277 277 277 277 278 281 283 286 286 286 286 286 286 287 287 286
289 287 287 287 286 285 285 284 284 284 284 283 282 281 280 280 280 278 278 278 278 277 277 277 277 276 276 276 275 275 275 277 279 282 283 286 286 286 286 286 286 286 286
286 287 287 286 285 284 283 282 282 281 281 281 281 281 280 279 279 277 277 277 276 276 275 275 275 274 274 274 274 274 274 274 276 279 281 281 285 286 286 286 286 286 286
285 287 287 287 284 282 282 281 281 280 280 279 279 279 279 278 277 276 276 275 275 274 274 273 273 273 272 272 272 272 272 273 275 276 278 280 282 285 285 285 285 285 286
288 286 284 281 281 281 280 279 279 279 278 278 278 277 277 276 275 275 274 274 274 273 272 272 271 271 271 271 271 271 271 272 273 273 276 278 280 281 284 284 284 285 286
284 282 282 281 280 279 279 278 277 277 277 276 276 276 275 274 274 273 273 272 272 271 271 270 270 269 269 269 270 270 270 270 271 272 274 276 278 280 281 283 283 284 285
282 281 279 278 278 278 277 277 276 276 275 275 274 274 273 273 273 272 271 271 270 270 270 269 269 269 270 270 269 268 269 269 271 272 273 274 276 278 279 281 282 283 285
279 278 277 277 276 276 276 275 275 274 274 273 273 272 272 272 271 271 270 270 269 269 269 268 269 269 269 268 269 270 270 270 269 270 271 273 275 276 278 279 281 282 284
279 278 277 276 275 274 274 273 273 273 272 272 271 271 270 270 269 269 269 268 268 268 268 269 269 269 269 270 270 270 269 269 270 271 272 273 274 275 277 278 279 282 282
277 275 275 274 273 273 272 272 271 271 271 270 270 269 268 268 268 267 267 267 266 267 268 269 269 269 269 270 269 269 270 271 271 272 272 273 274 275 276 277 279 281 282

GFSGL_850_thetae_051.txt.gz
Theta_e
328 328 329 329 329 328 325 322 323 324 324 323 322 322 322 321 321 319 318 316 312 309 308 303 302 302 304 303 302 302 301 300 299 299 298 298 297 296 296 295 295 294 294
328 329 329 329 327 329 328 326 324 323 324 323 322 322 321 320 320 319 317 314 309 308 306 304 302 304 302 300 300 300 300 299 299 298 298 298 297 296 296 295 294 294 293
323 329 329 328 328 328 328 327 326 326 323 323 322 321 319 318 318 317 313 309 308 307 304 302 303 301 299 300 299 299 298 298 299 298 298 298 297 297 296 295 295 294 293
329 330 330 329 330 330 328 326 325 323 323 321 321 320 319 318 315 311 309 307 307 304 301 301 301 299 299 298 298 298 298 297 297 297 297 296 297 296 296 295 295 294 293
332 332 331 329 330 328 326 325 323 321 321 320 319 318 316 314 311 308 307 306 302 300 300 300 299 298 298 297 297 296 296 296 295 295 295 295 294 294 294 294 294 293 293
330 330 330 330 331 328 325 322 321 320 319 318 317 315 313 310 307 306 303 301 300 300 299 299 298 298 294 293 294 294 294 294 294 294 294 294 294 294 293 294 293 293 291
331 330 329 329 326 324 320 319 316 316 315 314 313 310 307 305 304 302 300 300 299 299 298 297 295 293 294 294 293 293 293 293 293 293 292 292 292 292 292 292 292 293 292
327 327 325 323 323 320 316 313 313 311 309 307 304 303 302 301 300 300 299 298 297 297 294 292 293 293 292 291 291 291 291 291 291 292 292 291 291 291 291 291 290 291 292
323 321 321 320 317 314 313 310 308 306 304 303 303 302 300 300 299 298 296 296 294 292 291 291 291 290 288 286 285 284 284 284 283 283 283 284 286 290 290 291 290 290 290
320 317 314 313 312 310 308 306 304 303 302 301 300 299 299 297 296 295 294 294 293 292 291 289 286 285 284 283 282 282 282 283 283 282 281 281 282 282 283 285 290 290 290
312 311 310 309 309 307 306 304 303 302 300 298 297 296 296 295 294 294 294 293 292 290 287 285 284 283 282 282 281 282 284 285 285 285 285 285 284 284 284 287 288 289 289
309 308 307 306 306 305 303 299 299 299 298 297 297 295 294 294 293 293 292 291 287 285 284 284 283 282 281 281 281 282 283 284 285 286 286 286 286 286 286 286 288 288 288
308 307 306 305 303 301 299 298 297 297 296 295 294 294 293 292 291 290 289 286 285 283 282 282 281 281 280 281 281 280 280 281 282 283 284 284 285 287 287 287 287 288 288
306 305 302 300 298 297 296 295 295 295 295 294 294 291 290 289 288 287 285 283 283 282 282 281 280 280 280 280 280 279 279 279 280 281 282 284 284 286 287 287 287 287 287
303 299 297 296 296 296 295 294 294 294 292 290 289 287 286 285 284 283 283 282 281 281 280 280 280 280 279 279 278 278 278 278 279 280 281 283 285 287 287 287 287 286 287
298 296 295 295 293 293 292 291 290 288 287 286 285 284 284 283 282 281 281 280 279 279 279 279 279 278 278 277 277 277 276 276 277 279 280 281 283 286 286 286 286 286 286
296 295 293 291 290 289 289 288 288 286 286 285 284 283 283 282 281 281 280 279 279 278 278 278 277 277 276 276 275 275 275 275 275 276 278 280 281 283 286 286 286 286 286
294 293 291 289 288 288 287 286 286 285 285 284 283 282 281 281 281 280 278 277 278 277 277 276 276 275 275 274 274 273 274 274 274 275 276 278 280 280 284 286 286 286 286
291 289 288 287 286 285 285 285 284 283 282 282 281 281 281 280 280 279 277 277 276 276 275 275 274 274 273 272 272 272 272 273 273 273 274 276 277 280 280 284 285 285 285
288 286 286 287 288 288 287 284 282 283 282 280 280 280 280 279 279 278 276 276 275 274 274 273 273 272 272 271 271 271 272 271 272 272 273 274 275 277 279 280 283 284 284
288 288 288 287 286 285 285 284 283 280 279 279 278 278 277 277 276 275 275 274 274 273 273 272 271 271 271 271 271 270 270 270 271 271 272 273 274 276 277 279 280 283 283
287 286 285 284 284 283 280 279 278 278 277 277 277 276 276 275 274 274 273 273 272 272 271 270 270 270 270 270 269 269 269 270 270 270 271 272 273 274 276 278 279 281 282
284 283 283 281 280 278 278 277 277 276 276 276 275 274 274 273 273 272 272 271 271 270 270 269 269 269 269 269 269 269 268 269 269 269 270 271 272 273 275 276 278 280 281
282 281 279 277 277 277 277 276 275 275 274 274 273 273 272 272 271 271 270 270 269 269 269 269 268 268 269 269 269 269 269 268 268 268 269 271 272 273 274 275 277 278 279
278 278 277 276 275 275 274 274 273 273 272 272 272 271 271 270 270 269 269 268 268 268 268 268 268 268 269 269 269 269 268 268 269 270 270 271 272 273 274 275 276 277 279
276 275 274 273 273 272 272 272 271 271 270 270 270 269 268 268 267 267 267 267 267 267 267 267 268 268 269 269 269 269 269 270 270 270 270 271 272 273 273 274 275 276 278

GFSGL_850_thetae_054.txt.gz
Theta_e
325 325 325 325 325 325 325 326 325 325 324 325 323 324 324 322 320 322 322 321 319 318 316 312 310 309 305 303 303 304 303 302 302 300 300 300 299 298 297 297 297 296 296
326 324 323 326 325 325 326 326 326 320 324 323 324 324 323 322 322 322 321 320 319 317 314 311 308 306 304 303 301 300 300 299 299 299 299 299 298 298 297 297 297 297 296
327 325 323 327 328 327 325 324 325 325 321 323 323 323 322 321 321 320 319 318 315 315 311 308 306 303 302 302 299 299 299 298 298 298 297 297 297 297 296 295 295 296 296
328 325 323 323 328 328 327 323 323 325 326 324 323 322 321 320 320 319 318 316 312 309 308 306 303 301 302 299 298 298 297 297 296 296 295 295 295 295 295 294 294 294 294
328 326 326 324 326 329 328 327 323 325 324 322 322 321 320 320 319 317 314 311 309 307 305 302 300 300 299 298 297 296 295 295 294 294 294 293 293 293 293 293 292 292 293
327 327 327 325 327 328 327 327 327 325 323 321 321 321 320 318 316 313 310 308 307 304 302 300 300 298 297 297 294 293 293 293 293 293 293 293 293 292 292 291 291 291 291
330 329 329 329 329 327 326 326 324 323 320 320 319 318 316 314 312 308 307 305 302 301 300 299 297 297 297 294 292 292 292 292 292 292 291 291 290 289 289 290 290 290 290
328 329 328 327 326 327 325 323 321 319 317 316 315 314 312 310 308 305 303 301 299 299 298 297 297 295 292 291 290 289 287 285 284 284 283 283 283 282 281 281 283 285 288
329 329 327 326 325 323 322 319 318 316 314 313 311 310 307 305 302 301 300 298 298 297 296 294 292 291 291 289 285 284 285 284 283 283 284 284 285 284 285 283 283 286 286
327 327 325 324 322 322 319 316 314 311 309 306 304 303 302 301 299 298 298 296 296 294 293 292 291 289 285 284 284 283 283 283 283 283 283 283 285 285 285 286 286 284 286
324 323 322 320 318 317 314 312 310 306 304 303 302 300 299 299 299 297 295 294 294 293 292 289 286 284 284 283 283 282 282 282 282 281 282 281 282 285 286 286 286 286 286
320 319 317 315 313 311 310 308 306 304 303 301 300 299 298 297 295 295 294 293 292 291 287 285 283 283 283 282 282 281 281 281 280 280 280 281 281 282 285 285 286 287 287
316 313 311 310 309 308 306 304 302 301 300 299 298 296 295 295 294 293 293 291 289 286 283 282 282 282 281 281 281 280 279 279 279 279 279 280 281 282 283 285 286 287 287
311 310 308 307 305 304 302 301 300 299 298 297 296 295 294 293 292 291 289 288 284 282 282 281 281 280 280 280 279 279 278 278 278 278 278 279 280 282 284 286 287 286 287
309 307 305 304 303 300 298 298 297 297 296 295 294 293 293 291 289 288 286 283 282 281 281 280 280 280 279 279 278 278 277 277 277 277 277 277 279 281 282 285 286 287 286
306 305 303 301 299 297 296 295 294 293 292 291 290 289 288 287 285 283 282 281 281 280 280 279 279 279 278 277 277 277 276 276 275 276 276 276 278 280 281 283 285 286 286
305 300 297 296 295 295 294 293 292 290 288 286 284 284 283 282 282 281 281 280 279 279 279 278 277 277 277 276 275 275 274 274 273 274 274 275 276 278 280 281 282 285 286
300 296 295 293 291 290 289 288 287 287 286 286 286 285 283 282 282 282 281 280 279 278 277 277 276 276 275 275 274 273 273 273 273 273 273 274 275 275 278 280 280 282 285
294 292 290 289 289 289 288 288 288 286 286 285 283 283 284 282 281 280 280 279 277 276 276 276 275 274 274 273 273 272 272 272 272 272 272 273 273 274 276 278 279 279 283
291 290 290 289 288 287 287 286 286 285 283 283 282 281 280 279 279 278 278 277 276 275 274 274 273 273 272 272 272 271 271 271 271 271 271 272 273 273 274 276 277 279 280
290 289 288 287 287 286 285 284 283 282 281 280 279 279 278 278 277 276 276 275 274 274 273 272 272 271 271 270 270 270 270 270 271 270 271 271 272 273 273 274 276 277 278
287 286 286 285 284 283 282 281 280 279 278 277 277 277 276 276 275 274 273 273 272 272 271 271 270 269 269 269 269 269 270 270 270 270 270 270 271 272 272 273 275 276 278
284 284 283 282 281 280 280 278 277 277 276 276 275 275 274 274 273 272 272 271 271 270 270 269 269 269 269 269 269 269 269 269 269 269 269 270 270 271 272 273 274 275 277
281 281 280 279 278 277 276 275 275 275 274 274 273 273 272 272 271 270 270 269 269 268 268 268 268 268 268 269 269 269 269 268 268 269 269 269 270 271 271 272 273 274 275
279 278 277 276 275 275 274 273 273 272 272 272 271 270 270 269 269 268 268 267 267 267 267 267 267 267 268 268 268 268 268 268 269 269 269 269 270 271 271 272 273 274 275
276 275 274 273 273 272 272 271 271 270 270 269 269 268 268 267 267 266 266 266 266 266 266 266 267 267 268 268 268 269 269 269 269 269 269 269 269 270 271 272 273 273 274

GFSGL_850_thetae_057.txt.gz
Theta_e
317 316 316 316 316 317 317 317 318 320 322 325 324 324 323 323 323 322 321 320 321 321 319 319 317 315 312 311 310 306 304 303 302 301 300 300 299 299 299 298 297 297 297
322 321 321 320 319 319 320 320 322 321 323 325 324 323 320 323 323 322 320 320 321 320 320 318 316 312 310 308 305 304 303 301 300 300 299 298 298 298 297 296 296 296 295
324 324 324 324 323 323 323 323 323 323 319 320 326 322 323 323 323 321 321 321 319 319 319 316 311 310 308 306 303 303 302 301 299 298 298 297 297 296 294 294 294 293 293
325 325 325 325 325 325 324 324 325 325 325 321 321 324 323 323 322 320 321 320 319 318 315 313 310 307 305 303 302 302 301 298 296 296 295 294 293 293 293 293 292 292 292
326 326 326 326 326 326 325 325 326 326 323 324 325 325 324 322 321 321 319 319 318 315 311 310 306 304 302 301 301 300 297 295 294 293 292 292 291 290 291 291 291 291 290
326 326 326 327 327 327 324 325 328 327 326 323 322 324 322 321 320 319 319 318 315 312 310 308 303 301 300 300 298 296 296 293 292 292 291 290 289 288 286 283 283 283 284
324 326 327 327 328 327 326 327 326 326 326 323 323 321 321 320 320 318 317 314 311 308 307 303 301 300 299 298 296 296 293 292 291 290 288 285 284 283 283 284 283 283 283
326 326 326 327 327 327 326 324 324 325 324 324 324 321 320 318 316 315 312 310 307 304 301 300 300 299 297 295 296 292 291 289 286 284 284 284 284 284 284 285 285 285 285
328 328 328 328 327 326 324 325 325 324 324 322 320 318 317 315 313 310 307 305 302 301 300 299 298 297 296 293 291 290 287 285 285 284 284 283 283 282 282 285 285 285 285
329 328 328 327 327 326 326 322 322 321 320 317 315 313 312 310 307 304 302 301 300 298 298 297 295 293 292 291 287 285 284 284 284 284 283 283 282 281 281 281 284 284 285
330 329 326 326 325 325 325 323 320 317 314 312 310 308 306 302 301 300 298 297 297 297 295 293 292 291 288 285 284 283 283 283 282 281 281 281 281 281 280 281 282 283 284
327 327 325 325 324 322 321 318 314 312 309 306 304 302 301 300 299 298 297 297 295 294 293 292 289 285 284 283 282 282 281 281 280 280 280 280 280 280 280 280 282 283 284
324 322 321 319 317 314 313 311 309 305 303 302 300 300 299 298 297 297 295 294 293 292 290 287 284 283 282 281 281 281 280 280 280 280 279 279 279 279 279 280 282 283 285
320 317 315 312 310 308 306 304 303 301 301 301 299 299 298 297 295 294 293 292 290 288 285 282 282 281 281 280 280 280 279 279 278 278 278 278 278 278 279 280 281 283 285
314 312 309 307 306 304 303 302 302 301 300 299 298 297 296 295 293 292 290 288 286 283 282 281 281 280 280 279 279 278 278 278 277 277 277 277 277 277 278 278 281 282 283
311 308 307 306 304 303 302 300 298 298 297 296 295 294 293 291 290 289 287 284 285 282 280 280 279 279 278 277 277 277 276 276 275 275 275 275 275 276 277 277 279 280 281
309 307 305 304 303 301 298 298 297 292 291 290 290 289 289 288 286 283 283 282 280 279 278 278 277 277 277 276 276 275 274 274 274 273 273 273 274 274 275 276 277 279 280
305 303 302 299 297 295 293 291 290 290 289 287 287 287 285 284 285 283 282 283 281 279 277 277 277 277 276 275 274 274 273 273 272 273 273 272 272 273 274 275 275 277 278
297 295 295 293 292 291 290 290 289 289 288 287 286 285 284 283 282 281 280 280 279 278 277 276 276 275 274 273 273 272 272 272 272 272 272 272 272 272 273 273 274 276 277
295 294 292 291 290 289 289 289 288 287 286 285 283 282 281 280 280 279 278 278 277 276 275 275 274 273 272 271 271 271 271 271 271 271 271 271 271 272 272 272 273 274 276
290 289 289 289 288 287 286 285 284 283 282 281 280 279 279 278 278 277 276 275 275 274 273 273 272 271 271 270 270 270 270 270 270 270 270 270 270 271 271 272 272 273 274
287 287 286 285 284 283 282 282 281 280 279 278 278 277 276 276 275 274 274 273 272 272 271 271 270 270 269 269 269 269 269 269 270 269 270 270 270 270 270 271 272 272 273
284 284 283 282 281 280 280 279 278 277 276 276 275 274 274 273 273 272 272 271 270 270 269 269 268 268 268 268 268 268 269 269 269 269 269 269 269 270 270 271 271 272 273
282 281 280 280 279 278 277 276 275 274 274 273 273 272 272 271 271 270 269 269 268 268 267 267 267 267 267 267 267 268 268 268 268 268 268 268 269 269 270 270 271 272 272
279 278 278 277 276 275 274 273 273 272 271 271 270 270 269 269 268 268 267 266 266 266 265 265 265 266 266 267 267 268 268 268 268 268 268 268 268 269 269 269 270 271 272
275 274 273 273 272 272 271 271 270 270 269 268 268 268 267 267 266 266 265 265 265 265 265 265 265 266 266 267 267 267 268 268 268 268 268 268 268 269 269 269 270 271 272

GFSGL_850_thetae_060.txt.gz
Theta_e
315 316 316 315 314 314 315 315 315 314 315 316 318 320 322 323 322 323 323 322 322 322 321 320 321 318 318 318 316 313 311 309 306 305 304 304 301 300 299 297 297 297 296
317 315 315 316 315 315 315 315 315 315 316 317 318 318 321 323 319 321 321 321 323 322 320 320 321 319 319 316 313 311 309 307 305 303 302 301 301 299 297 296 295 293 293
322 320 318 316 315 316 316 315 315 315 316 317 321 321 322 323 322 322 322 323 322 322 320 320 319 318 317 313 311 307 306 304 303 301 300 299 296 294 293 292 291 290 289
324 323 322 322 321 320 318 318 319 318 319 321 320 319 322 322 321 323 322 323 322 320 321 319 318 316 313 310 308 305 303 303 302 300 297 294 293 291 290 289 288 288 288
324 324 324 324 323 323 322 322 323 324 324 324 323 323 323 324 321 324 323 323 321 319 319 319 316 311 308 306 304 303 302 302 300 297 294 292 291 290 288 287 286 286 286
323 323 323 324 324 324 324 324 324 325 325 324 324 325 325 324 324 324 323 321 320 319 319 315 310 307 306 304 302 301 300 299 297 294 292 291 289 286 285 285 285 285 284
322 323 324 324 325 325 325 325 325 325 325 325 324 326 324 323 324 323 321 320 320 318 313 310 308 305 303 302 300 300 298 296 294 292 291 287 285 285 285 284 284 284 284
323 323 323 324 325 325 325 326 325 326 325 325 324 322 322 322 323 320 321 319 314 311 309 307 305 303 301 300 299 297 296 294 291 289 285 285 284 284 283 283 283 282 283
324 324 324 324 325 326 326 326 325 325 322 324 321 321 322 323 321 320 315 313 310 307 305 303 301 300 299 298 297 296 293 290 287 284 284 284 283 283 282 281 281 281 282
326 326 326 326 326 326 325 325 325 322 322 322 321 320 319 317 315 312 310 309 307 304 302 300 299 298 297 296 293 291 288 285 284 284 283 283 283 282 281 281 281 281 281
327 327 328 327 325 324 324 321 321 321 320 319 317 316 314 310 309 306 305 303 302 301 299 298 297 295 293 292 290 285 284 284 283 283 282 282 282 281 281 280 280 280 281
328 328 328 327 324 322 322 323 321 319 318 316 313 310 307 305 304 302 300 299 298 297 296 295 294 292 291 286 283 283 283 282 282 281 281 281 280 280 280 279 279 279 280
329 328 326 324 323 321 318 318 315 313 312 311 308 307 305 302 301 299 298 298 297 296 294 292 291 288 284 282 282 283 281 281 281 280 280 279 279 279 278 278 278 278 279
326 325 323 322 319 317 313 311 310 309 307 307 305 302 301 300 299 298 297 296 294 292 291 289 284 282 281 282 283 281 280 280 279 279 278 278 278 278 277 277 277 278 279
323 321 319 317 314 312 309 306 304 303 302 302 302 301 300 299 297 295 293 292 291 289 285 282 283 283 283 280 280 279 279 279 278 278 278 277 277 276 276 276 276 277 277
318 315 313 310 308 307 307 306 303 302 301 300 299 298 297 294 293 292 291 290 288 284 285 283 282 280 279 279 279 278 278 278 277 276 276 275 275 275 275 275 275 275 276
313 311 309 307 305 304 302 302 302 297 296 295 294 293 291 291 290 289 287 283 283 285 285 281 279 280 280 278 278 278 277 276 275 275 274 274 273 273 274 274 274 274 275
307 307 305 303 301 300 298 296 295 295 294 293 291 290 289 287 286 285 284 283 282 281 281 280 279 278 277 277 276 275 275 274 273 272 272 272 272 272 273 273 273 273 274
301 299 297 295 294 294 293 292 291 290 289 288 287 285 284 283 282 281 281 280 279 279 278 277 276 276 275 274 274 273 273 272 271 271 271 271 271 271 271 271 272 272 273
294 293 293 292 290 289 289 288 287 286 285 284 283 282 281 281 280 279 279 278 277 276 275 275 274 273 273 272 272 271 271 270 270 269 269 270 270 270 270 271 271 271 272
290 289 289 289 288 287 286 286 284 284 282 281 280 280 279 278 278 277 276 275 274 274 273 272 272 271 271 270 270 269 269 268 268 268 269 269 269 270 270 270 270 271 271
287 287 286 286 285 284 283 282 282 281 280 279 278 277 277 276 275 274 273 273 272 271 271 270 270 269 269 268 268 268 268 268 268 268 268 269 269 269 269 269 270 270 271
285 284 283 282 282 281 280 279 279 278 277 276 275 274 274 273 273 272 271 270 270 269 269 268 268 267 267 267 266 266 267 267 267 268 268 268 268 268 268 269 269 270 270
282 282 281 280 279 278 277 277 276 275 274 273 273 272 271 271 270 269 269 268 268 267 267 266 266 266 266 266 266 266 266 266 267 267 267 267 268 268 268 268 269 269 270
279 278 277 276 274 274 273 272 272 271 271 270 270 269 269 268 268 267 267 266 266 266 265 265 265 265 265 266 266 266 266 266 267 266 267 267 268 268 268 268 268 269 270
274 273 273 272 272 271 270 270 270 269 269 268 268 267 267 267 266 266 266 265 265 265 265 265 265 265 265 265 266 266 266 266 267 267 267 267 268 268 268 268 269 269 270

GFSGL_850_thetae_063.txt.gz
Theta_e
316 317 318 318 318 317 317 317 317 317 316 315 315 315 315 315 315 316 318 322 322 322 322 322 322 321 321 320 320 318 317 316 313 312 310 308 307 306 304 302 300 297 296
315 315 316 316 317 317 317 316 317 316 317 317 317 316 315 314 316 321 321 321 321 321 321 321 322 321 321 321 318 318 316 315 312 310 308 305 305 303 302 299 295 293 292
319 318 315 315 315 316 316 315 315 315 315 315 315 314 315 315 317 319 319 321 323 322 322 318 321 321 320 320 318 317 314 312 310 307 305 303 302 301 295 293 292 290 289
323 321 320 318 316 315 315 315 315 315 314 315 315 315 315 315 318 320 321 322 322 321 322 322 322 320 320 319 317 315 311 309 307 304 302 302 300 295 292 291 290 288 288
323 324 324 323 321 320 318 317 316 315 316 317 316 317 317 317 318 321 320 323 321 323 323 322 320 319 319 317 314 311 309 307 304 302 300 299 295 292 291 288 287 287 288
322 321 322 323 323 323 323 322 321 320 320 319 319 321 321 322 323 323 323 322 323 323 323 321 319 318 316 312 309 305 305 302 302 300 299 296 292 291 287 286 286 285 286
321 321 322 322 322 323 323 323 323 323 322 322 322 323 323 324 324 324 323 323 323 321 321 320 319 316 311 308 306 305 302 301 300 298 295 292 290 286 285 285 285 284 284
322 321 322 323 323 323 324 324 324 323 324 322 322 324 323 323 323 322 323 323 321 320 320 318 314 311 308 306 305 302 300 299 297 295 292 289 286 285 284 284 284 283 284
322 322 322 323 323 324 324 324 324 324 323 324 324 323 323 322 321 322 321 321 320 317 314 311 308 307 306 303 301 299 298 296 294 291 287 285 284 284 284 283 283 283 283
322 322 322 323 323 324 324 324 324 324 323 323 322 321 320 320 319 319 320 318 316 312 308 306 304 303 301 299 298 297 295 291 288 284 283 283 282 283 282 283 282 281 281
322 323 324 324 324 324 324 324 324 322 322 321 320 318 318 316 315 313 310 310 310 308 307 304 301 299 298 296 295 292 289 285 283 283 283 282 282 283 282 281 281 282 281
325 326 326 326 326 325 323 322 321 321 320 319 317 314 311 310 307 304 304 303 303 303 301 299 298 296 295 292 290 286 283 283 283 283 282 283 282 281 281 283 283 281 279
325 324 325 324 323 322 321 322 320 320 316 314 310 308 306 303 302 301 300 299 298 298 297 296 295 293 290 286 284 282 283 284 283 283 283 281 280 282 284 282 279 278 278
323 322 322 321 320 320 320 318 315 314 310 309 307 306 304 302 300 300 299 297 296 295 294 292 289 286 284 282 283 285 285 283 280 280 281 281 281 281 279 278 277 277 277
322 321 320 318 318 317 314 311 308 307 306 307 305 304 303 300 297 297 296 295 294 292 291 288 284 283 284 285 285 283 279 280 281 280 279 280 279 278 276 275 276 276 276
321 318 316 315 313 311 309 307 304 303 302 301 301 300 298 297 297 294 293 291 291 289 287 285 285 285 284 282 279 278 280 279 279 279 278 277 276 275 275 274 274 274 274
314 314 311 308 306 305 304 303 301 295 297 296 294 294 293 293 291 290 289 289 288 287 285 285 283 282 281 280 279 278 277 277 277 276 276 275 274 273 273 272 272 272 272
307 305 304 303 300 298 296 295 294 294 292 289 288 289 288 288 288 288 287 286 284 283 282 281 280 279 278 277 276 276 275 275 274 274 273 272 271 271 271 270 270 270 270
296 295 295 294 293 292 291 291 291 291 290 288 286 286 284 284 283 282 281 281 280 279 278 278 277 276 275 275 274 274 273 273 272 271 271 270 270 270 270 269 268 269 270
292 292 292 291 290 289 289 289 288 287 286 285 284 283 282 281 281 280 279 279 278 277 276 275 274 274 273 273 272 271 271 270 269 268 268 268 268 268 268 267 267 268 268
290 289 289 289 288 287 287 286 285 284 283 282 281 280 279 279 278 277 276 275 275 274 273 273 272 271 271 270 270 269 268 268 268 268 267 267 267 267 266 266 267 267 268
288 287 287 286 285 285 284 283 282 281 280 279 278 277 277 276 275 274 274 273 272 272 271 271 270 269 269 268 268 267 267 267 267 266 266 267 266 265 265 266 266 266 267
285 285 284 283 283 282 281 280 279 278 277 276 275 275 274 273 273 272 271 270 270 269 269 268 268 267 267 267 266 266 266 266 266 266 266 264 264 264 265 265 266 266 267
282 281 281 280 279 278 278 277 275 274 274 273 272 271 271 270 270 269 269 268 268 267 267 267 267 267 266 266 266 266 265 266 266 266 265 265 266 266 265 265 265 266 266
276 276 275 274 274 273 273 272 272 271 271 270 270 269 269 269 268 268 268 267 267 267 267 266 266 266 266 266 266 266 266 266 266 265 266 266 267 267 267 267 267 267 266
273 273 272 272 271 271 270 270 270 269 269 269 269 268 268 268 267 267 267 267 267 267 266 266 266 266 266 266 266 266 266 266 266 266 266 266 267 267 267 267 268 267 267

GFSGL_850_thetae_066.txt.gz
Theta_e
321 321 321 321 321 321 320 320 319 318 318 318 318 319 319 319 319 319 319 319 321 318 317 319 322 322 322 322 321 320 321 320 316 315 313 314 312 311 308 307 305 304 302
320 321 321 321 321 320 320 320 319 318 318 319 317 318 319 318 318 318 318 318 316 315 319 320 321 320 321 319 318 317 320 320 317 315 313 312 311 308 307 304 303 301 299
320 320 320 319 319 319 319 319 319 319 319 319 320 319 318 318 317 317 317 316 315 315 320 319 319 320 321 319 318 318 320 316 317 315 312 311 309 307 306 304 303 297 295
321 320 320 318 317 318 318 318 318 318 318 317 318 319 319 319 319 319 317 315 314 317 318 320 321 321 322 321 319 319 319 318 315 313 311 308 307 304 303 301 296 294 292
322 322 322 320 318 317 317 316 317 318 318 318 318 317 316 316 316 316 316 315 315 315 319 320 322 321 321 321 321 320 319 316 313 310 307 306 304 302 301 296 292 291 290
323 323 323 322 321 321 319 318 317 316 316 316 317 318 317 317 315 315 315 317 318 322 319 321 322 322 321 320 320 319 316 315 311 308 305 304 302 299 295 291 290 290 290
321 322 322 323 322 322 322 321 321 320 319 318 318 318 318 318 317 317 319 322 323 323 322 322 322 322 321 320 319 316 311 308 305 305 304 301 297 294 291 289 288 289 289
321 322 322 322 322 322 322 322 321 321 321 321 320 320 320 320 321 322 323 323 323 322 321 320 321 319 318 320 315 310 305 304 303 300 298 297 294 291 288 285 285 285 284
320 321 322 323 323 322 322 323 323 323 323 323 323 323 323 324 324 323 322 322 321 320 320 319 319 316 313 307 304 302 301 300 298 298 296 293 290 286 284 284 284 285 286
324 324 324 324 323 323 324 324 323 323 324 323 324 324 324 323 322 322 322 321 321 319 315 314 309 308 306 303 301 300 299 297 296 294 291 287 284 284 284 283 283 283 284
322 323 324 324 324 325 324 324 324 323 324 323 323 323 322 322 321 320 320 318 316 314 310 306 302 300 300 300 298 296 295 293 290 286 286 285 283 283 283 284 284 281 281
319 320 321 321 322 323 323 323 324 323 323 322 321 320 319 317 314 312 309 308 308 307 305 301 300 299 298 296 295 293 291 286 285 285 284 284 284 284 285 283 281 283 284
322 322 322 322 322 323 323 323 322 321 320 319 319 317 313 310 306 303 302 302 302 302 300 298 297 296 295 294 290 288 287 285 284 286 285 285 284 281 281 282 284 283 282
323 323 322 322 321 320 319 319 319 318 317 315 312 309 306 302 301 301 300 299 298 297 297 295 293 292 291 291 290 285 284 286 287 284 282 280 281 281 280 280 280 280 278
318 320 320 320 319 318 316 314 310 310 309 309 306 305 304 301 299 299 298 297 296 294 293 291 290 288 286 284 284 285 284 283 280 280 280 279 278 277 277 276 277 276 276
313 312 314 315 314 311 310 306 301 304 302 302 302 301 299 299 297 295 293 292 292 291 289 288 286 285 284 282 281 279 278 278 277 278 277 275 275 275 275 275 274 275 276
307 304 301 303 301 301 301 303 299 294 294 294 295 294 293 292 290 290 289 289 288 287 285 284 283 282 281 280 278 277 276 275 277 274 274 274 273 273 273 274 274 274 275
305 300 300 295 296 295 295 293 292 291 290 287 286 287 287 287 287 287 287 286 285 283 282 280 279 278 277 276 276 275 275 274 273 272 272 272 271 272 272 273 273 273 273
297 295 294 294 292 291 291 290 289 289 288 286 285 285 284 284 284 283 282 281 280 279 278 277 276 276 275 274 273 273 272 271 271 270 271 271 271 271 271 271 271 271 271
291 291 291 290 290 290 289 288 287 286 284 283 282 281 280 280 280 280 279 278 277 276 275 275 274 273 272 272 271 271 271 271 270 270 270 269 269 269 269 270 270 271 271
288 288 288 288 288 287 286 285 284 284 282 281 280 279 279 279 277 276 275 275 274 273 272 272 271 270 270 270 269 269 269 268 268 268 267 268 268 268 268 268 269 269 270
286 286 286 285 285 284 284 282 281 281 280 279 278 278 277 276 274 273 272 272 272 271 270 269 269 268 268 267 267 266 266 266 266 266 266 266 266 267 267 268 268 268 269
284 284 283 281 280 281 280 279 277 276 275 274 273 273 272 271 271 270 270 270 269 269 269 269 268 268 266 267 266 265 264 265 264 264 264 264 265 266 266 267 267 268 268
281 281 280 279 277 275 274 274 274 273 272 271 271 270 269 269 269 269 269 269 269 268 268 268 268 268 268 267 267 266 265 264 265 265 263 263 264 264 265 266 266 267 267
275 274 274 273 273 272 271 271 270 270 270 269 269 268 268 268 267 267 267 268 268 268 268 268 268 267 267 267 267 267 267 267 266 266 266 265 263 263 264 265 265 266 267
272 272 271 271 271 270 270 269 269 269 269 268 268 268 268 267 267 268 268 268 268 268 268 267 267 267 267 267 267 267 266 266 266 266 266 266 266 264 264 265 265 266 266

GFSGL_850_thetae_069.txt.gz
Theta_e
324 324 322 323 322 322 322 321 320 319 316 317 320 319 317 317 317 318 317 318 319 320 320 320 320 321 319 319 322 322 321 321 320 319 319 317 315 312 310 313 312 311 309
325 325 324 323 323 323 322 322 321 321 320 320 320 320 319 319 319 319 319 319 319 320 320 321 320 320 317 320 321 320 320 318 316 316 317 318 314 314 313 312 311 307 307
324 325 325 324 324 324 323 323 323 322 322 321 321 320 320 320 320 321 321 320 321 320 320 320 320 319 317 317 319 319 319 320 318 317 317 315 314 312 310 308 309 307 304
324 324 324 324 323 323 323 324 323 323 322 322 321 320 320 320 320 320 321 321 320 320 320 320 320 317 315 316 318 319 319 321 319 318 317 314 314 312 312 309 306 304 302
325 324 324 323 323 324 323 323 322 322 322 322 322 321 321 321 321 321 321 321 320 320 320 320 319 317 315 315 318 320 322 321 320 318 314 313 311 311 307 306 303 302 297
326 325 325 324 324 323 323 323 322 322 321 321 320 321 321 321 320 320 319 321 321 321 321 320 318 316 318 319 318 322 321 320 319 317 314 313 311 307 305 303 300 297 294
327 327 326 325 324 324 323 323 322 322 322 321 321 321 321 320 319 318 318 320 321 321 321 319 318 321 323 323 321 319 317 314 313 312 312 308 305 302 301 299 295 293 291
328 327 327 326 325 324 324 324 323 323 322 322 321 321 321 320 320 320 320 320 320 319 318 317 320 322 323 321 320 317 313 309 305 305 304 302 299 298 296 294 291 289 289
328 328 327 326 326 325 325 324 323 323 323 323 323 322 322 321 321 321 321 321 321 320 320 320 320 320 319 319 318 315 309 302 300 300 301 300 299 295 292 290 287 285 287
324 327 328 327 326 326 326 325 325 324 323 323 323 323 323 321 322 322 322 322 322 321 321 319 318 316 313 311 308 306 304 301 300 298 297 296 294 289 285 286 287 285 284
321 323 326 326 327 327 326 326 326 325 325 325 324 324 324 323 322 322 322 321 320 318 316 313 310 307 305 303 300 300 299 298 295 295 292 287 287 288 287 286 283 283 284
321 321 324 325 326 326 327 327 326 326 325 324 324 323 321 321 322 319 318 317 313 310 308 304 301 299 299 298 297 296 295 295 294 291 287 286 285 283 283 283 284 285 283
320 320 321 324 325 325 325 325 324 323 323 323 321 320 316 314 316 312 307 305 304 303 301 298 296 295 296 296 295 295 294 292 290 288 285 284 284 284 283 283 282 282 282
317 316 317 319 320 321 321 319 322 320 318 316 315 315 310 306 306 304 302 301 300 299 297 296 295 294 294 293 292 290 289 288 287 286 285 283 282 282 281 280 279 279 279
313 311 308 309 311 311 311 310 311 310 311 312 309 306 303 300 299 300 298 297 296 296 294 293 292 291 290 289 287 286 285 285 283 281 281 280 279 279 279 279 278 278 278
309 310 308 303 301 301 302 302 302 302 302 300 300 300 296 293 292 293 292 291 291 290 290 289 288 286 285 284 283 281 280 280 279 279 277 277 277 277 277 277 277 276 277
307 306 303 302 303 295 291 291 291 290 292 292 292 291 291 289 290 289 289 289 288 287 286 284 283 283 282 281 280 279 279 277 277 276 276 275 275 275 274 275 275 276 276
299 298 297 297 295 294 293 290 288 289 286 284 285 287 288 288 288 288 286 286 285 285 283 282 281 280 279 278 278 277 276 276 275 274 273 273 273 273 273 274 274 274 275
293 292 291 291 291 291 290 289 288 287 286 284 283 284 283 283 284 283 283 283 282 280 279 279 278 277 276 276 275 274 274 273 273 273 273 272 272 272 272 272 272 272 272
288 287 287 287 286 285 285 284 283 283 282 281 281 280 280 281 281 281 280 279 278 277 276 275 274 274 273 273 273 273 272 272 272 271 271 270 270 270 270 270 271 271 271
287 287 287 287 285 284 283 282 281 281 281 280 279 279 279 278 277 276 276 276 274 274 274 273 273 272 271 271 271 270 270 269 269 269 269 269 269 269 269 269 269 270 270
285 285 285 284 283 282 281 281 280 279 278 278 277 276 276 275 274 273 272 272 271 271 270 270 270 269 269 268 268 268 268 268 267 267 267 267 267 267 268 268 269 269 269
281 280 279 279 279 279 278 277 277 276 275 275 274 273 273 272 271 271 270 270 269 269 269 269 268 268 267 268 268 266 266 266 266 265 265 265 266 266 267 267 267 268 268
276 276 276 275 275 275 275 274 274 273 273 273 272 271 271 270 270 269 268 269 268 268 268 269 268 268 269 268 267 267 265 266 267 267 266 264 264 265 265 266 266 267 267
274 274 273 273 273 273 273 272 272 272 271 271 270 270 270 269 269 268 268 268 269 269 268 268 267 267 267 268 268 268 268 268 267 267 267 266 264 264 264 265 266 267 267
272 271 271 271 271 271 271 271 270 270 269 269 269 268 268 268 267 267 266 266 268 268 267 266 267 267 268 268 267 268 267 267 267 267 267 267 267 264 264 265 266 266 266

GFSGL_850_thetae_075.txt.gz
Theta_e
320 322 322 322 322 322 322 322 322 322 318 316 316 317 317 316 316 316 317 316 317 317 318 318 317 317 317 317 318 318 318 317 318 318 318 317 319 317 317 317 317 319 318
323 323 321 322 322 322 323 322 322 322 322 321 320 318 315 315 316 316 317 317 317 317 317 318 318 318 318 318 318 318 318 317 318 318 319 319 318 318 318 318 318 317 318
325 325 325 323 321 323 323 323 322 322 321 321 321 320 321 319 318 316 316 316 316 316 317 318 318 318 318 318 318 318 318 318 319 321 321 320 320 319 319 317 317 318 318
323 325 325 325 324 320 323 324 323 322 322 321 321 321 321 320 321 320 317 316 316 315 315 315 316 318 318 318 318 318 319 319 320 321 320 320 319 318 317 317 316 317 318
326 324 325 325 325 325 323 322 323 323 323 322 322 321 322 321 321 319 318 317 316 317 316 316 317 319 318 317 318 319 320 321 321 321 320 319 319 318 318 316 316 316 316
328 327 325 325 325 326 325 325 323 322 322 322 322 322 322 322 322 321 320 319 317 315 315 316 319 319 319 319 320 320 321 321 321 321 320 319 319 317 317 316 314 313 308
328 328 328 327 325 325 326 325 325 325 324 323 323 323 324 323 323 322 322 321 321 321 321 321 321 321 321 321 321 322 322 322 322 321 321 320 319 316 315 315 312 308 305
328 327 326 326 326 326 325 325 325 325 325 325 325 325 324 324 324 323 324 323 322 322 322 322 322 321 321 321 321 322 322 321 321 321 321 319 316 312 310 308 306 304 301
322 323 326 326 327 326 326 326 326 325 326 325 325 325 325 324 324 324 324 323 322 322 322 322 321 321 321 321 321 321 321 322 321 321 317 315 309 304 303 302 300 299 297
320 320 320 322 325 326 328 327 326 326 326 326 326 326 325 325 325 324 324 323 322 322 322 323 323 322 322 321 321 320 321 317 310 306 304 301 301 299 299 296 296 295 295
316 318 319 320 320 323 325 327 327 327 326 326 326 326 326 325 325 325 324 324 324 323 322 323 322 321 321 320 319 315 309 303 298 297 296 295 294 294 295 295 295 294 290
314 314 314 316 319 319 321 323 326 324 325 325 325 325 325 324 324 323 323 323 323 322 319 313 310 312 304 302 301 300 297 297 294 293 293 291 292 292 291 291 290 289 288
309 310 310 309 311 314 316 318 321 321 319 316 313 311 308 311 314 312 314 314 318 314 303 298 298 296 295 296 293 292 291 292 291 292 291 290 288 287 285 286 285 284 284
307 307 308 308 308 308 309 311 311 312 311 308 304 302 299 296 295 296 297 298 299 298 296 293 292 291 291 290 290 290 290 290 290 288 287 286 284 284 284 284 283 282 282
302 303 303 302 302 302 302 300 300 300 300 303 301 298 294 292 290 291 292 292 291 290 290 290 290 290 289 289 288 287 286 286 286 285 284 283 283 283 282 281 280 278 278
299 299 299 297 295 295 295 294 292 290 291 292 294 296 291 290 291 289 288 289 290 289 290 289 286 286 286 285 285 284 283 283 283 282 281 280 279 278 277 277 276 276 275
294 293 292 292 292 291 290 290 289 287 288 287 286 286 288 288 288 288 287 287 289 290 288 286 285 284 283 282 282 281 281 279 278 278 277 276 276 275 274 274 274 273 273
289 289 289 288 288 288 287 287 287 287 286 285 285 285 285 286 286 286 286 288 287 287 285 283 282 281 280 280 279 278 277 276 276 275 275 274 274 273 273 272 272 272 271
288 287 286 286 286 286 285 285 284 284 283 283 283 284 284 285 286 285 285 285 282 281 280 280 279 278 278 277 276 275 275 274 274 274 273 273 272 272 271 271 270 270 270
285 285 286 285 284 284 283 283 282 282 281 281 281 280 281 282 282 281 280 280 279 278 278 277 276 276 275 275 274 273 273 272 272 272 271 271 271 270 270 269 269 269 269
284 284 284 284 283 282 282 281 280 280 279 279 278 278 279 280 279 278 277 277 276 276 275 274 273 273 272 272 272 272 272 272 271 271 271 270 269 269 268 268 268 268 268
283 282 282 282 281 281 280 279 279 278 277 276 275 275 275 275 274 273 273 273 272 272 272 272 272 271 271 271 271 271 271 271 270 269 269 269 268 268 268 267 267 267 267
279 279 279 278 278 277 277 276 276 275 274 274 273 273 273 272 272 271 271 271 271 271 271 271 271 271 270 270 270 270 269 269 269 269 268 268 268 268 268 268 267 267 267
276 276 275 275 275 275 274 274 273 273 272 272 271 270 270 270 270 270 270 269 269 269 269 270 270 270 269 269 269 269 268 268 268 268 268 268 268 268 268 268 267 266 266
274 274 274 273 273 272 272 272 271 271 271 270 270 269 269 269 269 269 269 269 268 268 269 269 269 268 268 268 268 268 268 268 269 268 268 268 268 268 268 267 267 267 267
272 272 272 272 271 271 271 270 270 270 270 269 269 269 269 268 268 269 269 269 268 268 268 268 268 268 268 268 268 269 269 268 268 268 268 268 268 268 268 267 267 267 267

GFSGL_850_thetae_078.txt.gz
Theta_e
322 322 321 321 321 321 322 322 322 321 321 320 318 317 318 318 317 315 316 315 316 315 317 316 318 317 318 317 318 317 317 317 317 317 317 317 317 317 317 317 318 318 318
320 321 322 321 321 321 322 322 322 321 320 319 318 318 318 319 319 317 317 319 319 317 317 317 317 317 318 318 318 317 317 317 317 317 318 318 317 317 318 319 319 318 318
321 320 320 320 322 321 321 321 321 321 322 322 320 318 315 315 318 318 317 317 319 318 318 317 317 316 317 317 318 318 317 317 317 318 318 318 317 318 318 318 317 317 317
323 322 322 322 321 321 321 322 321 321 321 321 322 322 320 315 316 317 317 317 316 316 316 316 316 316 316 317 317 318 318 318 317 318 318 318 318 319 319 320 319 319 319
325 325 323 322 323 324 323 321 321 321 321 321 321 322 322 321 321 320 320 319 320 319 318 318 317 316 316 315 315 315 315 316 318 318 319 319 320 320 319 320 319 319 318
326 325 325 324 325 325 325 324 323 321 320 322 322 322 322 321 321 321 321 321 321 320 320 320 319 318 317 316 316 317 316 317 318 318 319 319 319 320 320 319 319 318 317
325 325 324 324 325 325 325 325 325 325 324 323 322 321 322 322 322 322 322 321 322 321 321 320 320 319 318 317 316 316 317 319 319 319 319 320 320 321 320 320 319 319 316
325 325 325 325 324 324 324 325 325 325 325 325 325 324 324 323 322 322 322 322 322 322 321 321 321 321 321 321 321 321 321 321 321 321 321 321 320 320 319 317 315 312 309
319 321 323 324 324 325 325 324 325 325 325 325 325 325 325 325 324 324 324 324 323 322 322 322 322 322 322 321 321 321 321 321 321 321 321 321 320 319 314 309 307 305 302
316 315 318 319 319 320 323 325 325 324 325 325 325 325 325 325 325 325 325 325 324 324 324 324 323 323 322 322 321 321 321 321 320 316 312 313 308 303 301 300 300 299 298
309 311 313 315 317 318 317 318 321 323 324 324 324 325 325 325 325 325 325 325 325 324 324 324 324 324 323 323 322 320 318 313 302 298 298 297 296 296 296 295 294 294 294
308 309 310 310 311 313 315 316 316 318 320 319 319 320 320 318 321 320 321 323 320 317 315 306 301 301 304 307 308 306 300 296 295 295 294 292 293 293 293 293 292 292 291
305 307 307 307 308 308 310 312 314 314 314 314 313 310 308 306 307 306 303 307 308 306 301 298 298 299 299 297 293 293 293 293 293 292 291 290 291 290 289 289 289 288 287
302 303 303 304 303 303 304 303 303 303 302 301 301 301 300 299 299 299 300 298 300 299 296 293 292 292 292 291 291 291 291 291 291 289 288 286 286 286 286 285 284 284 284
302 302 301 300 299 298 298 297 296 294 295 295 294 295 294 293 291 291 292 293 293 292 292 292 292 292 291 290 289 288 288 288 288 287 286 285 284 283 282 281 281 280 279
297 297 297 297 296 294 291 290 289 289 290 290 289 290 288 288 289 290 291 291 290 290 291 290 288 287 287 286 286 285 284 283 283 282 282 281 281 279 279 278 277 276 275
293 292 292 292 291 291 290 288 287 286 287 286 286 286 286 287 287 288 289 289 288 289 289 286 285 284 283 283 282 282 281 280 280 280 279 278 276 275 274 274 273 273 273
289 289 289 289 289 288 288 287 286 286 286 285 285 285 286 286 286 286 286 286 286 286 284 283 282 281 281 280 280 279 278 277 276 275 274 273 273 272 272 272 272 271 271
288 287 287 287 286 286 286 286 285 285 284 283 283 284 284 284 285 284 284 285 283 282 280 280 279 278 278 277 276 275 274 274 273 273 272 272 272 272 272 271 271 270 270
286 285 285 285 284 284 284 284 284 284 283 283 283 282 282 282 284 283 282 281 280 279 278 277 276 275 274 274 273 273 272 272 272 272 272 271 271 270 270 270 270 270 270
284 284 284 284 283 283 282 282 281 281 281 280 280 279 279 280 279 278 277 277 276 275 274 273 273 272 272 272 272 271 271 271 271 270 270 270 270 270 270 270 270 269 268
282 282 282 281 281 280 280 279 279 278 277 277 276 275 275 274 274 273 273 273 272 272 272 271 271 271 271 271 271 271 270 270 270 270 270 270 270 270 269 269 268 268 267
280 279 279 278 278 277 277 276 276 275 274 273 273 272 272 272 271 271 271 270 270 270 270 270 270 270 270 270 270 270 270 270 270 270 270 269 269 269 268 268 268 267 267
276 276 276 275 275 275 274 274 273 273 272 272 272 271 271 270 270 270 269 269 270 270 270 270 269 270 269 269 270 270 269 269 269 269 269 269 268 268 268 268 267 267 267
274 274 274 273 273 273 272 272 272 271 271 270 270 270 270 270 270 270 269 269 269 269 269 269 270 270 269 269 269 269 268 268 268 268 268 268 268 268 268 268 267 267 267
273 272 272 272 271 271 271 271 270 270 270 269 269 269 269 269 268 268 268 268 268 268 268 268 268 268 268 268 268 268 268 268 268 268 268 267 267 268 268 268 267 267 268

GFSGL_850_thetae_081.txt.gz
Theta_e
321 322 322 323 322 322 322 322 322 322 322 322 322 321 320 321 322 322 321 321 321 320 320 319 317 316 318 317 318 318 316 316 317 317 317 317 317 317 317 317 318 317 317
320 322 321 322 322 322 322 322 322 322 322 322 321 320 319 318 319 321 321 320 320 319 318 317 316 315 316 317 317 316 317 318 318 317 318 318 317 317 317 317 318 317 317
321 320 321 321 321 321 321 322 322 322 322 321 321 321 321 320 319 318 317 318 317 316 316 316 316 317 316 317 317 317 317 317 318 318 318 318 318 317 317 317 317 318 317
322 321 321 321 321 321 321 321 321 321 321 321 321 321 320 320 319 318 319 320 320 318 316 316 317 317 318 317 318 318 318 317 317 317 317 317 317 317 317 316 317 316 318
324 323 323 322 321 321 321 321 321 320 321 321 320 320 321 321 321 319 318 317 316 317 318 318 317 317 316 316 317 316 316 316 316 316 317 317 317 317 317 317 318 317 317
325 325 325 325 324 323 323 323 322 321 321 321 320 321 321 320 321 321 321 321 321 319 318 319 320 319 319 320 319 319 319 317 317 317 317 317 316 317 317 318 318 318 318
324 323 323 323 324 324 324 324 324 323 323 323 322 321 321 320 320 320 321 321 321 321 321 321 321 321 321 321 321 320 319 318 318 317 317 317 317 317 318 318 319 319 319
323 322 323 323 323 323 323 323 324 324 324 324 324 323 323 323 322 322 322 322 322 322 321 321 321 321 321 321 320 320 319 320 320 320 319 319 319 318 318 319 319 319 318
320 320 321 321 322 322 322 322 323 323 323 323 324 323 323 322 323 323 323 322 322 322 323 323 321 321 321 321 321 321 321 321 321 321 321 320 320 320 320 318 315 313 309
313 315 317 318 318 318 319 319 321 321 321 322 322 322 323 322 323 324 324 324 322 322 321 321 321 321 321 321 321 320 318 318 317 313 312 314 312 307 303 302 302 301 300
307 309 310 311 313 314 314 315 316 317 319 319 319 320 319 318 318 320 320 320 320 319 318 317 316 316 319 319 320 316 313 309 306 297 294 293 293 295 296 296 295 295 295
306 307 308 308 309 309 310 311 311 313 315 315 312 311 310 310 310 310 311 310 310 310 311 309 307 307 303 305 307 308 303 299 298 296 295 294 294 292 291 291 291 292 291
302 304 304 304 304 304 305 306 307 307 307 307 306 304 302 301 301 301 301 302 303 302 300 298 297 297 298 298 294 293 294 294 294 293 292 291 290 289 289 289 288 288 287
302 301 301 302 302 302 303 302 302 301 300 298 298 297 296 296 295 295 295 295 295 295 293 293 293 293 292 291 291 291 291 291 291 290 289 287 286 286 287 286 286 285 284
297 296 297 298 298 299 299 298 297 294 295 295 293 293 292 291 290 292 292 292 292 292 292 291 291 290 289 288 288 287 287 287 286 285 285 284 285 285 285 284 283 281 280
295 295 294 293 292 292 291 290 289 290 291 291 290 290 288 288 289 290 290 290 290 289 291 290 288 288 288 286 286 286 285 285 284 284 284 283 282 281 279 277 276 276 275
292 291 291 291 290 289 289 288 288 287 287 287 287 287 287 287 287 287 288 288 288 288 289 286 286 285 284 284 283 283 283 283 282 281 278 277 276 276 275 275 274 274 274
289 288 289 288 288 288 287 287 286 286 286 286 285 286 286 286 286 286 286 286 286 286 285 284 283 282 281 281 281 280 279 277 276 275 275 275 274 274 274 274 273 273 272
287 286 286 286 286 286 286 286 285 285 285 285 284 284 284 284 285 285 284 285 284 283 282 281 280 279 278 277 276 275 274 274 274 273 273 273 272 272 272 272 271 271 271
285 285 285 284 284 284 284 284 284 284 284 283 283 282 281 281 283 282 282 281 280 278 277 276 275 275 274 273 273 273 272 272 272 272 271 271 271 271 271 271 270 270 270
284 283 283 283 283 283 282 282 282 281 281 280 280 279 278 278 277 277 276 275 275 274 273 273 273 272 272 272 271 271 271 271 271 271 271 271 270 270 270 270 269 269 270
281 281 281 281 280 280 280 279 279 278 278 277 276 274 274 274 274 273 273 272 272 272 272 271 271 271 271 271 270 270 270 270 270 270 270 270 270 269 269 269 269 269 269
278 278 278 278 278 277 277 276 275 275 274 273 273 272 272 272 272 272 271 271 271 271 271 271 270 270 270 270 270 270 269 269 269 269 269 269 269 269 269 269 269 269 269
275 275 275 275 275 274 274 274 273 273 272 272 271 271 271 271 270 270 270 270 270 270 270 269 269 269 269 269 269 269 269 269 269 269 269 269 269 269 269 269 269 268 268
274 274 274 274 273 273 272 272 272 271 271 270 270 270 269 269 269 269 269 269 269 269 269 269 268 268 268 268 268 268 268 268 268 268 268 268 268 268 268 268 268 267 267
272 272 272 272 271 271 271 270 270 270 269 269 269 268 268 268 268 268 268 268 268 268 268 268 268 268 268 268 268 268 268 268 268 268 268 268 268 268 268 268 268 267 267

GFSGL_850_thetae_084.txt.gz
Theta_e
321 322 322 323 322 322 322 322 322 322 321 322 322 323 323 321 321 320 319 319 321 322 320 320 320 318 318 316 319 319 319 319 319 318 317 317 316 316 317 317 318 318 318
321 321 320 321 322 321 321 321 321 322 322 321 322 322 323 321 321 320 320 320 320 321 320 320 319 318 318 318 318 317 317 317 318 318 317 316 316 317 317 317 318 318 318
320 321 322 320 320 320 321 321 321 321 321 321 321 322 321 321 321 321 320 320 320 321 321 321 320 320 319 318 318 317 316 315 315 316 317 317 317 317 317 317 317 316 316
321 320 320 320 320 320 320 320 321 321 321 321 321 321 321 321 320 319 319 319 319 320 320 320 320 319 318 318 317 317 317 318 317 317 318 318 318 317 317 317 316 316 315
323 323 322 321 321 320 320 320 320 320 320 321 321 321 321 321 321 321 320 319 319 319 318 318 318 319 318 318 318 317 318 318 317 318 318 317 317 316 316 317 316 316 316
324 324 323 323 322 322 322 321 321 321 321 321 320 320 320 320 320 320 320 320 321 321 321 320 320 320 319 317 316 315 317 318 318 318 317 317 317 317 316 316 316 316 315
323 323 322 323 323 323 323 323 323 323 323 323 322 322 322 321 321 320 320 320 320 320 319 320 321 321 321 321 321 321 321 320 320 320 318 317 317 318 317 317 316 316 316
322 321 322 322 322 323 323 323 323 322 322 323 323 323 323 322 322 322 322 322 321 322 322 322 322 322 321 321 321 321 321 321 320 320 319 318 317 317 317 316 316 315 315
318 318 319 319 320 320 321 321 322 322 322 321 321 321 321 321 321 322 322 322 322 322 321 320 320 320 319 320 320 320 318 317 317 318 318 318 317 315 315 314 313 311 307
313 314 314 316 316 318 318 318 319 320 320 319 319 320 320 320 321 321 321 321 320 320 320 318 320 317 318 318 318 316 315 312 312 310 305 303 302 305 304 303 304 303 301
307 307 308 310 311 312 312 313 314 315 317 317 315 315 314 314 313 313 315 315 316 315 315 313 312 312 312 314 311 311 309 308 308 306 301 301 299 299 298 297 295 296 296
303 305 305 305 306 306 308 309 309 311 311 312 311 310 309 308 306 306 307 308 308 308 307 305 303 301 301 302 304 304 303 296 296 296 294 293 292 292 291 291 291 291 291
301 300 302 303 303 303 303 303 304 304 305 305 304 303 302 301 301 300 300 300 300 300 299 297 295 295 295 296 294 293 293 293 293 293 291 289 288 287 287 288 288 288 288
299 299 299 300 300 300 301 300 299 299 297 296 296 296 295 294 294 294 294 295 294 294 293 293 293 292 292 291 291 290 290 290 289 289 288 287 286 287 287 287 287 286 286
295 295 295 295 295 296 295 294 292 290 292 292 291 291 291 291 290 291 291 291 291 291 291 290 290 290 289 288 288 287 287 286 287 285 285 285 285 285 283 281 280 279 279
294 294 293 292 292 292 291 290 288 289 290 289 288 289 288 288 288 289 289 289 289 289 290 290 289 288 288 287 286 286 285 285 285 284 283 281 279 278 277 277 276 276 276
291 290 290 290 290 289 289 289 289 287 287 287 286 286 286 287 287 287 287 287 288 287 289 287 286 286 285 284 284 284 283 282 279 277 277 276 276 275 275 275 274 274 274
289 288 288 288 287 287 287 287 286 287 287 286 286 286 286 286 286 286 285 285 286 286 285 284 283 282 281 280 279 277 276 275 275 274 274 274 274 274 273 273 273 273 272
286 286 286 286 286 286 285 286 285 285 285 285 284 284 284 284 284 284 283 284 284 283 281 281 280 278 277 276 275 274 274 274 274 273 273 273 273 272 272 272 272 272 271
284 284 284 284 284 284 284 284 283 283 283 283 282 282 281 281 282 282 281 280 279 278 276 275 274 274 274 273 273 273 273 273 272 272 272 272 271 271 271 271 271 270 270
282 282 282 282 282 282 281 281 281 280 280 280 279 278 277 276 276 275 274 274 274 274 273 273 272 272 272 272 272 272 271 271 271 271 271 270 270 270 270 270 270 270 270
280 280 280 280 280 279 279 278 278 277 275 275 274 274 273 273 273 273 273 272 272 272 271 271 271 271 271 271 271 271 270 270 270 270 270 270 270 270 270 269 269 269 269
277 277 277 277 277 276 276 275 275 274 274 273 272 272 272 272 271 271 271 271 270 270 270 270 270 270 270 270 270 270 270 270 269 269 269 269 269 269 269 269 269 269 269
275 275 275 275 274 274 274 273 273 272 272 271 271 271 270 270 270 270 270 270 270 269 269 269 269 269 269 269 269 269 269 269 269 269 269 269 269 269 268 268 268 268 268
273 273 273 273 273 272 272 271 271 270 270 270 269 269 269 269 269 269 269 269 269 269 269 269 268 268 268 268 268 268 268 268 268 268 268 268 268 268 268 268 268 268 268
272 271 271 271 271 270 270 270 269 269 269 269 269 269 268 268 268 268 268 268 268 268 268 268 268 268 268 268 268 268 268 268 268 268 267 267 267 267 267 267 268 268 267

GFSGL_850_thetae_087.txt.gz
Theta_e
326 322 322 321 323 322 322 322 323 324 324 325 325 323 324 322 321 321 316 312 315 315 314 317 318 317 319 320 320 318 318 319 318 319 318 318 318 318 317 317 317 317 317
323 321 321 321 320 321 321 321 322 322 322 322 322 323 323 322 322 322 320 313 313 315 317 317 318 317 318 318 318 319 318 318 317 317 316 317 317 315 316 316 316 316 316
321 322 320 320 321 321 321 320 321 321 321 321 321 321 322 323 322 321 322 320 318 317 318 319 320 321 321 320 319 318 317 317 318 318 318 318 317 317 316 316 316 317 317
320 321 321 320 320 320 320 320 320 320 321 321 321 321 321 322 321 322 322 321 321 321 320 319 320 320 321 321 320 320 320 319 319 318 318 317 317 317 318 318 318 317 317
320 321 320 320 320 320 320 320 320 320 320 320 321 321 321 321 321 321 321 321 320 320 319 319 319 319 319 319 319 319 319 319 319 319 318 318 317 317 317 318 318 318 318
321 322 322 322 321 321 321 321 320 320 320 320 320 320 320 320 320 320 320 320 319 320 320 320 320 320 320 319 318 318 318 318 319 318 317 317 317 318 319 319 318 317 317
322 321 321 322 322 322 322 321 322 321 321 321 321 321 321 321 321 320 320 320 319 319 319 319 319 319 319 320 320 320 321 321 320 318 318 317 317 317 316 316 316 317 316
321 320 320 321 321 320 320 321 321 322 321 321 321 322 321 322 322 322 322 322 322 321 320 319 319 319 318 319 319 320 319 319 319 318 317 317 316 316 315 314 313 313 311
318 318 317 318 319 320 320 320 321 321 321 321 321 321 320 320 321 321 321 321 320 321 320 320 319 319 319 318 318 318 317 316 313 313 313 312 312 311 311 310 308 309 307
314 313 314 316 317 317 317 318 318 319 319 318 318 318 318 317 317 318 319 319 319 318 318 318 319 317 317 316 315 314 312 311 311 308 306 306 305 304 302 301 301 301 299
305 306 308 310 310 311 311 312 313 313 313 312 313 311 311 311 311 311 311 312 312 313 312 311 310 309 309 308 307 308 307 307 301 299 299 298 297 296 296 295 295 295 294
303 303 303 305 305 306 306 307 308 308 308 308 307 307 306 305 304 305 305 306 306 307 306 303 301 300 300 300 300 299 297 296 296 296 295 293 293 292 291 291 291 291 291
301 302 303 304 303 302 303 304 303 303 304 303 302 301 300 299 298 298 299 299 299 300 298 296 294 294 295 295 294 294 294 294 293 293 292 291 290 289 289 289 288 288 288
298 298 298 299 299 299 300 299 298 298 297 297 296 295 294 294 294 293 294 294 294 294 292 291 292 292 292 291 291 291 291 290 290 290 289 289 288 287 287 287 286 285 283
295 294 294 294 295 294 294 292 292 291 292 292 291 291 291 291 290 290 290 290 290 290 290 290 290 289 289 289 289 289 288 288 288 287 286 286 286 284 282 280 279 278 278
292 291 291 291 291 290 290 289 289 289 290 290 289 290 289 289 289 289 289 289 289 288 289 289 288 288 287 286 286 285 285 285 284 282 281 279 278 277 277 277 277 276 276
290 289 289 288 288 288 288 288 288 287 288 288 287 287 287 287 287 287 287 287 287 287 288 287 286 285 284 283 283 281 279 278 276 276 276 276 276 275 275 275 275 275 274
288 287 287 287 287 286 286 286 286 286 286 286 285 286 285 285 285 285 285 285 286 285 285 284 283 281 280 278 276 276 275 275 275 275 274 274 274 274 274 274 273 273 273
286 286 286 286 286 286 285 285 285 285 285 285 284 284 284 284 284 284 283 284 283 283 281 280 278 276 275 275 274 274 274 274 273 273 273 273 273 272 272 272 272 272 271
284 284 284 284 284 284 284 284 284 283 283 282 282 282 281 281 281 281 280 279 278 277 276 275 274 274 273 273 273 273 272 272 272 272 272 272 271 271 271 271 271 271 270
282 282 282 282 282 282 282 281 281 280 280 279 278 276 276 275 275 275 275 274 274 273 273 273 272 272 272 272 272 272 271 271 271 271 271 271 270 270 270 270 270 270 270
278 279 279 279 279 279 278 278 277 275 275 274 274 274 273 273 273 273 272 272 272 272 271 271 271 271 271 271 271 271 270 270 270 270 270 270 270 270 269 269 269 269 269
276 276 276 276 276 275 275 274 274 273 273 273 272 272 272 272 271 271 271 271 271 270 270 270 270 270 270 270 270 269 269 269 269 269 269 269 269 269 269 269 268 268 268
274 274 274 274 274 273 273 273 272 272 271 271 271 271 270 270 270 270 270 270 270 270 270 270 269 269 269 269 269 268 269 268 268 268 268 268 268 268 268 268 268 268 268
273 273 273 272 272 272 271 271 271 271 270 270 270 270 270 270 269 269 269 269 269 269 269 268 268 268 268 268 268 268 268 268 268 268 268 268 268 268 267 267 267 267 267
271 271 271 271 271 270 270 270 270 270 269 269 269 269 269 269 269 269 269 268 268 268 268 268 268 267 267 267 267 267 267 267 267 267 267 267 267 267 267 267 267 267 267

GFSGL_850_thetae_090.txt.gz
Theta_e
320 324 322 322 322 322 322 323 323 324 324 321 322 321 321 320 317 320 321 319 312 309 311 315 313 313 315 317 318 315 316 317 318 318 320 321 320 319 318 317 317 316 316
321 323 323 323 322 322 322 325 323 324 324 324 321 320 322 320 320 322 321 320 314 310 315 315 313 312 311 317 318 317 318 319 317 318 318 316 317 317 317 317 317 319 318
325 324 322 322 322 322 321 322 322 323 323 323 323 324 323 322 322 322 322 322 321 315 312 311 311 311 315 317 317 316 318 317 318 320 318 318 319 319 319 320 319 319 319
325 322 321 321 321 321 321 321 321 322 322 322 322 322 322 322 322 322 322 322 321 320 316 313 315 316 316 318 318 319 319 321 320 320 319 319 319 319 320 319 319 319 319
322 322 321 320 320 320 321 321 320 321 321 321 321 321 322 322 322 322 321 322 322 321 320 318 316 316 319 320 320 320 321 321 320 320 320 319 319 320 320 319 320 318 318
323 323 322 321 322 321 320 320 320 320 320 321 321 321 321 321 321 321 321 322 322 322 322 321 321 320 320 320 320 319 319 320 320 320 320 320 319 319 319 318 318 318 318
321 321 321 320 321 321 321 321 320 320 320 319 319 319 320 320 320 320 320 320 320 320 320 319 319 319 319 319 319 319 319 319 319 318 319 319 318 317 317 317 317 317 316
320 321 321 321 321 320 321 321 321 321 321 321 321 321 321 321 321 320 320 319 319 319 320 320 320 320 320 320 320 320 319 319 319 318 318 316 316 315 314 314 313 313 313
317 318 318 319 319 319 320 320 320 320 321 321 320 320 320 320 321 321 321 321 320 319 318 318 317 317 317 318 317 317 316 315 315 314 312 313 312 310 311 308 307 306 304
310 312 312 314 315 315 316 317 317 317 318 317 316 316 317 317 318 319 319 318 318 317 316 316 315 314 315 314 314 313 313 311 309 303 308 300 303 302 300 300 300 300 300
305 303 305 309 311 308 310 311 311 311 311 310 310 310 309 311 311 312 313 313 312 311 309 308 308 307 306 306 306 306 305 303 300 299 298 298 297 296 295 295 295 295 295
303 300 304 305 304 302 304 305 305 305 306 305 305 304 304 304 303 305 306 306 306 306 304 302 300 299 299 299 300 298 297 296 296 295 294 294 293 293 292 292 292 291 291
302 301 301 300 299 299 299 300 301 301 300 299 299 300 298 298 298 298 299 300 300 299 298 295 294 294 294 295 293 294 294 293 293 292 292 291 290 289 289 288 288 288 287
298 297 296 297 295 294 294 295 296 294 293 291 291 292 292 293 293 293 294 294 294 293 292 291 291 292 292 292 291 291 291 291 290 289 288 287 286 286 285 284 283 282 281
296 295 295 293 293 292 292 291 292 292 291 290 291 291 291 292 290 291 291 291 291 291 290 290 290 289 289 289 289 289 289 288 287 286 285 283 282 280 279 279 279 279 279
293 293 292 290 290 288 289 289 290 289 290 290 290 290 289 289 288 289 289 289 289 288 289 289 288 286 285 285 285 285 285 284 283 281 279 278 278 277 277 277 278 278 278
289 289 288 288 287 286 284 283 286 286 287 288 288 288 288 288 287 287 287 287 287 287 287 286 285 283 281 281 280 279 278 277 277 277 277 276 276 276 276 276 276 277 277
287 287 287 287 286 286 286 285 285 285 286 286 285 286 285 285 285 285 285 285 285 285 283 281 279 278 277 276 276 276 276 275 275 275 275 275 274 275 275 275 274 274 275
285 285 285 285 284 284 284 284 283 283 282 281 281 282 282 282 282 283 282 283 281 279 277 276 275 275 274 274 274 274 274 274 273 273 273 273 273 273 273 273 273 273 273
283 283 283 282 282 282 281 281 280 279 278 279 280 279 276 277 278 278 278 277 276 275 274 274 274 273 273 272 272 272 271 272 272 272 272 272 272 271 271 271 271 272 272
279 280 281 280 280 279 278 278 278 277 277 276 276 276 275 275 275 274 274 274 274 273 273 272 272 272 271 271 271 271 271 271 271 271 271 271 271 270 270 270 270 270 271
277 277 278 278 277 277 276 276 275 274 274 273 273 274 274 273 273 273 273 273 273 272 272 271 271 271 271 271 271 270 270 270 270 270 270 270 270 269 269 269 269 269 270
275 275 275 275 275 275 274 273 273 273 272 272 272 272 272 272 272 271 272 271 271 271 271 270 270 270 270 270 270 270 269 269 269 269 269 269 269 268 268 268 268 268 268
273 274 273 273 273 272 272 272 272 272 271 270 270 270 271 271 270 271 271 271 270 270 270 270 270 269 269 269 269 268 269 269 269 269 269 269 268 268 268 267 266 267 266
272 272 271 271 271 271 271 270 270 269 269 269 269 269 269 269 269 269 270 270 270 269 269 269 269 268 268 268 268 268 268 268 268 268 268 268 268 268 267 267 266 266 266
271 271 270 270 270 269 269 269 269 268 268 268 268 268 269 268 269 269 269 269 268 268 268 268 268 268 268 268 268 268 268 268 268 268 267 267 267 267 266 266 265 264 265

GFSGL_850_thetae_093.txt.gz
Theta_e
328 326 326 326 325 324 324 323 324 324 322 322 322 321 322 323 324 324 324 324 323 319 320 319 317 318 320 319 318 318 315 320 318 318 317 316 316 320 320 319 319 318 318
326 325 326 326 324 323 323 323 324 323 322 323 322 322 322 322 321 320 318 315 314 319 320 316 316 320 319 318 315 314 316 316 319 317 315 315 316 317 317 317 319 318 317
324 323 324 326 324 324 323 323 324 323 323 323 322 322 321 320 318 319 319 320 321 322 321 314 312 313 317 316 312 313 313 313 317 317 316 317 318 318 319 319 319 318 318
322 323 324 325 324 322 322 323 324 323 323 323 322 321 322 321 321 321 320 320 322 322 320 316 316 318 314 313 313 313 312 314 315 316 318 318 319 320 320 319 319 320 320
322 322 322 324 323 323 322 322 322 323 323 323 323 322 323 322 322 322 322 322 322 322 321 319 318 316 315 313 312 312 313 316 318 318 319 320 320 320 321 321 321 321 320
322 323 322 323 321 322 322 322 322 322 322 323 322 322 322 322 322 322 322 323 322 322 322 321 319 319 318 315 314 315 315 320 322 322 322 322 321 321 321 320 320 320 319
324 321 321 322 321 320 320 320 321 321 321 321 323 323 323 323 322 322 322 322 322 322 322 322 323 322 321 321 321 320 320 320 321 321 320 319 319 318 318 318 316 315 315
322 323 322 322 322 322 322 323 323 321 321 320 320 320 321 321 322 321 321 321 322 321 321 320 320 320 320 320 320 320 320 319 319 319 319 318 317 316 316 314 313 313 311
319 320 320 320 320 321 322 321 321 321 322 321 320 320 320 320 320 320 320 320 320 319 319 320 320 320 319 319 319 318 317 316 316 315 314 310 309 310 307 306 306 305 304
308 311 315 316 318 318 318 319 319 319 320 319 319 318 318 318 319 320 320 319 319 318 317 316 316 316 317 316 313 313 311 309 307 305 304 301 302 299 300 300 300 299 299
297 298 304 306 310 309 308 309 308 308 309 309 309 308 308 310 311 311 311 313 311 311 309 308 309 307 309 308 311 306 306 303 300 299 298 298 297 296 296 295 295 295 295
297 295 298 297 300 301 300 301 301 299 302 301 302 302 302 302 304 305 305 306 305 305 304 302 300 298 300 300 300 298 298 297 297 296 296 295 294 293 292 292 292 291 291
295 296 297 297 301 299 297 297 301 292 296 296 297 297 297 296 297 298 299 299 300 300 298 296 295 295 295 295 295 295 294 294 293 292 292 291 290 289 289 288 288 287 287
293 294 296 297 298 298 299 297 299 298 297 295 293 293 293 294 293 293 293 294 293 294 293 292 292 292 293 292 291 291 291 290 290 289 287 286 284 285 284 284 283 282 283
289 290 288 291 292 294 294 295 294 292 293 292 291 292 291 291 290 290 290 290 290 289 289 289 289 289 289 288 288 288 287 286 285 285 284 283 282 281 281 280 280 281 282
289 288 287 287 288 289 289 289 288 289 290 290 289 289 289 289 288 288 288 288 288 288 288 287 286 284 283 282 282 283 284 284 282 281 280 279 280 279 279 279 279 280 280
288 287 286 287 287 286 285 285 286 285 286 287 287 287 287 287 287 287 287 286 286 286 286 284 282 281 280 280 280 279 278 278 277 278 278 277 278 278 278 278 278 278 279
287 287 287 286 285 285 284 284 284 284 285 285 285 285 285 285 285 285 285 283 284 284 281 279 279 278 278 277 277 276 276 276 276 276 276 275 275 276 277 276 277 275 275
285 284 284 284 285 284 283 282 281 281 280 280 280 281 282 283 283 283 283 281 279 278 277 277 276 276 276 275 275 274 274 274 274 274 274 273 274 274 275 274 275 274 274
281 281 281 281 280 280 280 280 279 279 278 279 279 279 277 277 277 276 276 276 275 275 275 275 274 273 273 273 273 272 273 272 272 272 272 272 272 272 273 273 273 273 274
280 279 279 279 279 279 279 278 278 277 276 274 275 274 274 275 274 274 273 273 273 273 273 273 272 271 271 271 272 271 270 270 270 270 270 270 270 271 271 271 272 272 273
278 278 278 278 277 277 277 277 276 276 276 275 274 273 273 273 273 272 271 271 270 270 271 270 270 270 270 270 270 269 269 269 269 270 270 270 269 270 270 270 271 271 271
277 277 277 277 277 276 276 276 275 275 274 274 273 272 272 271 271 271 270 269 269 270 271 270 269 269 270 270 269 268 269 269 269 270 270 269 268 268 268 268 269 269 270
275 275 276 275 274 275 274 274 274 273 273 273 272 271 271 270 270 269 270 270 270 269 270 270 270 270 269 269 269 268 269 269 269 269 269 269 267 266 268 266 267 268 268
273 274 274 273 273 273 273 273 272 272 272 271 271 270 270 270 269 268 267 268 269 269 269 269 269 269 269 269 269 269 269 268 268 268 268 268 268 267 265 265 266 266 266
272 272 272 272 272 272 272 272 271 270 270 270 269 269 268 268 268 267 267 267 268 268 268 267 268 268 268 267 269 268 268 268 268 268 268 268 267 265 265 266 266 265 265

GFSGL_850_thetae_096.txt.gz
Theta_e
331 330 329 327 326 326 326 324 324 325 324 324 324 323 325 325 325 324 324 323 321 323 323 322 322 322 321 321 317 314 320 322 321 319 319 319 319 319 318 318 319 317 318
329 328 326 325 325 324 325 323 324 323 323 322 322 322 323 324 324 324 324 324 324 324 324 323 322 322 322 320 317 317 316 318 318 317 315 315 317 317 316 316 315 316 317
327 326 324 324 324 323 323 323 323 323 321 321 321 321 321 323 324 324 323 321 322 323 324 322 320 318 319 317 316 318 319 318 316 314 315 314 314 316 317 318 317 319 319
326 325 323 323 323 322 322 323 323 322 323 322 322 322 321 322 322 322 322 321 320 316 315 318 320 321 318 316 315 317 318 318 315 313 313 312 312 314 317 318 319 320 320
323 323 324 324 324 323 324 324 324 323 323 322 322 322 321 321 320 319 319 319 319 319 321 322 322 317 316 315 314 314 313 313 315 313 312 312 314 318 320 320 321 321 322
323 322 323 323 325 324 323 323 323 324 323 323 323 322 322 321 321 321 321 320 320 320 320 321 322 318 317 317 318 317 316 314 315 317 316 316 320 321 320 321 321 321 320
322 322 322 324 323 324 323 322 322 323 323 323 323 323 322 322 321 322 322 321 321 321 321 321 320 320 320 319 318 317 316 315 315 315 316 318 321 320 319 319 318 318 317
322 322 322 321 320 320 321 322 321 321 322 323 322 323 323 323 322 322 322 321 321 321 321 321 321 321 321 321 321 320 319 319 320 320 320 319 319 318 318 317 316 314 312
312 318 319 320 321 320 320 320 321 320 321 321 321 320 320 321 321 321 321 321 321 320 320 320 320 321 321 320 320 320 320 318 316 316 316 315 312 313 312 310 310 307 306
298 305 307 311 315 318 319 319 319 319 319 318 318 318 319 319 319 320 320 319 319 319 318 318 319 318 318 317 316 314 312 310 310 311 308 305 305 302 302 302 302 301 301
293 298 301 301 302 305 308 311 314 314 315 313 311 309 309 311 313 314 314 313 312 311 308 307 308 309 309 310 309 308 305 302 300 300 300 300 299 297 296 295 295 295 295
297 297 296 296 294 294 295 296 298 301 302 302 302 300 300 300 302 304 304 304 302 304 303 300 299 300 300 301 301 299 299 297 296 296 296 295 294 293 292 291 291 291 291
295 296 297 298 296 294 296 293 292 294 296 295 297 298 298 296 295 299 301 300 300 299 297 296 296 296 296 295 293 293 294 293 293 292 291 291 289 289 289 289 288 288 287
292 293 294 295 295 296 296 295 292 292 296 289 292 294 292 292 294 291 294 292 292 293 292 291 291 292 292 292 291 290 289 289 288 287 285 285 285 285 286 284 283 283 283
289 289 290 290 292 291 292 291 291 290 291 290 289 289 291 289 287 288 288 290 291 291 290 288 288 288 287 287 287 287 286 286 286 285 284 283 282 281 281 280 280 281 281
287 288 287 286 287 287 288 288 288 289 289 289 289 290 289 288 288 288 289 289 289 289 290 289 286 285 284 283 284 284 283 282 281 281 280 280 280 279 279 279 279 280 280
286 285 285 285 285 285 285 286 286 286 287 288 288 288 288 288 288 287 286 286 287 287 287 284 283 282 281 281 280 280 280 279 278 278 278 278 278 278 278 278 278 277 277
285 285 286 285 284 284 284 284 283 283 283 284 284 284 284 285 284 284 283 284 284 283 282 281 280 279 278 278 277 277 277 277 277 277 277 277 276 276 276 276 276 276 275
283 283 283 283 283 282 282 282 282 282 282 281 281 281 280 282 282 282 282 282 280 279 278 278 277 277 276 276 276 275 275 275 275 275 275 276 275 275 274 274 274 274 274
280 280 280 280 280 280 280 280 279 279 279 279 278 278 277 277 278 277 277 277 277 276 275 275 275 275 275 274 274 274 274 274 274 274 274 274 273 273 272 272 272 272 273
279 279 279 279 279 278 278 278 278 277 277 276 275 275 275 275 275 275 275 275 274 274 274 274 274 274 273 273 273 273 272 272 273 272 272 272 271 271 271 271 271 271 271
278 278 278 277 277 277 277 277 276 276 276 275 274 274 274 274 273 273 273 273 273 273 273 272 272 272 272 272 271 271 271 271 271 271 271 271 270 270 270 270 270 270 270
277 277 277 277 277 277 276 276 276 275 275 274 274 273 272 272 272 272 271 271 271 271 271 271 271 272 271 271 270 271 271 270 270 271 270 270 270 269 269 269 269 269 269
275 275 276 275 275 275 275 275 274 274 273 273 273 272 271 271 270 270 270 270 270 270 270 270 270 270 269 269 269 270 270 269 269 269 269 269 269 269 269 268 267 267 267
273 274 274 274 274 274 274 273 273 272 272 272 271 271 271 270 270 269 269 269 269 269 269 269 269 269 269 269 270 269 269 268 268 268 269 269 268 268 266 266 267 267 266
272 272 272 272 272 272 272 272 272 271 271 270 270 270 269 269 269 268 267 268 268 268 268 267 268 268 268 268 269 268 268 268 268 268 268 268 268 268 267 267 267 267 266

GFSGL_850_thetae_099.txt.gz
Theta_e
331 332 332 332 331 330 328 327 326 326 324 325 325 325 324 325 325 325 325 324 324 325 325 323 322 320 320 322 322 322 321 321 321 321 321 321 321 322 321 320 319 317 316
332 331 330 330 328 326 326 325 325 324 324 323 323 324 323 324 325 325 325 323 324 325 324 323 323 321 320 323 322 321 320 319 321 321 320 319 320 319 318 318 317 316 316
330 330 329 327 326 324 324 324 323 323 322 322 322 322 322 324 324 324 324 324 325 324 323 322 322 320 321 323 321 320 320 318 317 316 317 318 317 315 315 315 314 314 315
327 327 327 325 323 323 323 322 322 322 321 321 321 321 321 322 324 324 324 324 324 323 322 323 321 321 322 321 319 318 319 318 316 317 316 316 315 313 313 313 312 316 318
324 325 324 323 323 322 322 322 322 321 322 321 321 321 321 321 322 323 324 324 323 322 323 323 323 321 316 317 317 319 317 315 316 317 319 318 315 313 313 314 313 319 320
323 323 324 324 324 323 322 323 323 323 323 322 322 321 321 321 321 320 320 323 322 321 322 320 317 319 320 319 318 317 317 317 316 315 314 315 314 313 315 315 318 319 321
321 323 323 324 323 324 324 324 323 323 323 323 322 321 321 321 321 321 320 319 319 319 319 319 319 320 320 317 317 319 318 318 318 318 316 316 318 317 316 319 319 318 319
310 316 320 322 324 324 324 324 324 322 323 323 322 321 321 322 322 320 320 320 320 319 320 320 320 320 320 318 318 317 317 317 317 317 318 316 316 316 317 317 316 315 314
302 305 310 317 322 322 321 322 321 321 321 321 320 319 320 321 322 321 321 319 318 319 319 320 318 319 319 318 319 319 319 318 317 317 317 316 315 315 314 313 312 310 309
298 297 299 303 310 318 318 317 317 316 317 316 316 316 317 318 319 316 316 319 319 319 317 318 318 317 318 318 317 315 314 312 310 311 308 306 305 304 304 305 305 303 302
295 295 297 296 295 300 307 306 305 305 304 305 307 308 309 311 313 313 312 314 314 315 314 312 312 310 313 312 311 309 307 305 302 302 301 301 299 298 299 298 298 297 296
294 295 297 296 294 294 298 299 299 299 299 298 298 298 301 300 301 302 304 306 304 306 304 303 301 302 302 304 304 303 302 301 300 299 298 297 295 294 294 293 294 293 292
294 294 294 295 294 295 296 296 298 297 296 295 295 295 292 294 295 295 297 298 300 300 298 296 297 299 299 297 297 295 296 298 298 295 294 292 291 291 290 291 290 289 288
291 291 292 294 293 293 293 294 294 294 294 295 294 291 291 291 292 292 291 293 292 294 293 292 292 293 294 293 293 293 292 291 292 292 290 289 288 288 288 287 285 284 283
289 288 289 290 291 292 291 291 290 289 291 291 289 291 291 290 290 291 290 291 291 291 291 292 291 289 289 289 289 288 288 288 287 287 286 285 285 284 283 281 281 281 281
287 287 286 286 286 286 287 287 287 287 288 288 288 289 287 286 286 289 290 289 287 287 289 288 287 287 286 285 284 283 283 283 282 282 281 281 280 280 280 280 279 280 280
285 285 285 285 285 284 285 285 285 285 285 285 285 285 285 285 285 286 287 288 286 286 286 284 283 283 283 282 282 280 280 280 279 279 279 278 279 278 278 279 278 277 277
283 283 283 283 283 283 283 284 284 285 285 285 285 284 284 284 284 284 283 284 285 284 283 283 283 281 281 280 279 278 278 277 278 278 277 277 277 277 277 276 276 276 276
281 281 281 281 281 281 281 281 281 281 281 281 281 281 280 281 282 282 282 282 282 281 279 279 278 277 277 276 277 277 276 276 276 276 276 275 275 275 275 274 274 274 274
279 279 279 279 279 279 279 279 278 277 277 278 278 277 277 277 278 278 277 277 277 276 276 276 275 275 275 275 274 275 275 275 274 274 274 274 273 274 273 273 273 273 273
278 278 278 278 278 278 277 277 277 276 276 275 275 275 275 276 275 275 275 275 275 275 275 274 274 273 274 274 274 274 274 274 273 273 273 273 273 273 272 272 272 271 271
277 277 277 277 277 277 276 276 276 275 275 274 274 274 273 274 274 274 273 273 273 273 273 273 273 273 272 273 273 273 273 273 272 272 272 271 272 272 271 271 270 270 270
276 276 276 276 276 276 275 275 275 274 274 273 273 272 272 272 272 272 271 272 272 271 271 272 272 271 271 271 271 271 271 271 271 270 270 270 270 270 270 270 269 269 269
275 275 274 274 274 274 274 274 273 273 273 272 272 271 271 271 271 271 271 270 271 271 271 271 271 270 270 271 270 270 269 270 270 269 269 269 269 269 270 270 269 269 268
273 273 273 273 273 273 273 273 272 272 272 271 271 270 270 270 269 269 270 270 269 269 269 270 270 270 270 269 269 269 269 268 268 268 269 269 269 269 269 269 268 268 268
271 271 271 271 271 271 271 271 271 271 270 270 270 269 269 269 268 268 268 268 268 268 268 269 269 268 269 269 269 269 268 268 268 268 268 268 268 268 268 268 268 267 267

GFSGL_850_thetae_102.txt.gz
Theta_e
330 328 328 330 331 334 336 331 329 328 328 326 327 326 324 326 324 324 325 326 326 325 324 325 325 324 321 321 319 321 320 322 322 320 320 319 320 319 320 321 320 321 320
329 328 328 329 332 332 330 329 327 326 325 326 325 324 324 324 325 325 324 325 326 325 325 325 325 324 322 319 323 322 322 322 322 321 320 321 321 320 319 319 318 319 316
329 330 330 331 330 329 328 326 324 324 323 322 322 322 323 323 324 324 324 325 325 325 324 325 324 324 323 321 322 322 322 321 321 318 321 321 321 319 319 319 319 317 317
326 327 329 329 328 327 325 323 322 322 321 322 321 321 321 321 322 323 323 324 324 324 323 324 324 324 323 320 322 320 322 320 319 318 318 318 318 317 317 317 315 314 315
324 325 325 325 324 323 322 322 321 321 321 321 321 321 321 321 321 321 324 324 323 323 324 323 324 324 324 320 319 319 321 321 320 319 317 316 317 316 316 316 315 313 313
319 324 324 324 324 323 322 321 322 321 322 321 321 321 321 321 321 321 322 324 323 324 324 324 323 322 321 320 320 320 319 320 319 317 316 317 317 315 319 317 315 314 316
311 319 322 324 324 323 322 322 323 323 322 322 321 321 321 321 321 320 320 321 321 323 323 322 322 321 321 320 320 320 318 316 317 318 317 316 317 317 315 315 315 317 316
307 309 314 316 321 323 324 324 322 322 322 322 321 321 321 321 321 320 320 319 319 320 320 320 320 320 319 319 320 318 318 317 317 317 317 317 317 316 315 317 317 316 316
302 303 303 304 308 315 315 320 322 321 321 318 319 319 320 320 321 321 319 318 319 319 319 319 319 319 318 319 319 318 317 318 319 319 318 319 318 317 317 316 315 313 311
295 297 299 300 299 301 304 306 311 317 319 316 315 315 317 318 320 320 319 318 318 317 317 317 318 318 318 318 317 316 317 316 316 316 315 315 315 314 313 310 308 308 307
293 294 296 297 299 294 294 298 302 301 309 310 309 309 309 311 311 310 311 313 313 313 312 312 311 311 313 312 310 311 312 310 308 307 307 305 305 305 304 303 302 300 299
293 294 293 294 295 295 296 295 295 296 298 301 301 300 301 302 303 304 306 307 306 307 304 301 302 304 305 304 303 303 303 302 300 301 300 299 298 297 298 298 298 296 293
292 293 293 294 293 293 293 295 296 294 293 294 295 295 293 294 296 298 299 301 301 303 300 298 299 299 299 299 298 298 297 297 296 296 296 296 294 293 291 290 290 289 288
291 291 291 292 292 292 293 291 292 292 290 289 290 290 291 291 292 293 295 295 296 295 294 294 294 294 295 294 293 293 293 293 293 292 290 288 288 288 288 287 286 286 286
289 288 288 289 290 291 290 289 288 287 288 288 287 288 289 287 287 289 291 292 293 293 294 293 293 293 292 291 291 290 289 288 289 288 288 287 286 285 284 283 282 282 282
287 287 287 287 287 288 288 288 288 287 287 287 286 287 286 286 287 288 288 288 288 289 291 290 289 289 289 288 288 286 286 286 285 284 283 283 282 281 281 280 280 280 280
285 285 285 285 285 285 285 286 286 286 287 287 286 286 285 285 286 286 287 287 287 287 289 288 287 286 286 285 284 283 283 282 281 280 280 280 280 280 280 279 279 278 278
281 281 282 282 283 283 283 283 283 284 284 284 284 284 283 284 284 284 284 284 285 285 285 284 283 282 282 282 281 279 279 278 278 278 278 278 278 278 277 277 277 276 276
280 280 280 280 280 280 280 280 280 280 281 280 280 280 281 281 282 282 281 282 282 281 280 280 279 278 277 277 276 276 276 276 276 276 276 276 276 275 275 275 275 274 274
278 278 278 278 278 278 278 278 278 276 277 277 277 277 276 276 277 278 277 277 277 277 276 276 276 276 276 275 275 275 275 275 274 274 274 274 274 274 274 274 274 273 273
277 277 277 277 277 277 277 276 276 276 276 275 275 274 274 275 275 275 275 275 275 274 274 274 274 274 274 274 273 273 273 273 273 273 273 273 272 272 272 272 272 272 272
276 276 276 276 276 276 275 275 275 275 274 274 273 273 273 273 273 273 273 273 273 272 272 272 272 272 272 272 272 272 272 271 271 271 271 271 271 271 271 271 271 271 271
275 275 275 275 275 274 274 274 273 273 273 273 272 272 272 271 271 271 271 271 271 271 271 271 271 271 271 271 270 270 270 270 270 270 270 270 270 271 271 271 270 270 270
274 274 274 274 273 273 273 273 272 272 272 271 271 271 270 270 270 269 269 269 270 270 270 270 270 270 270 270 270 270 270 270 270 270 270 270 270 270 270 270 269 269 269
272 272 272 272 272 272 271 271 271 271 271 270 270 270 269 269 269 269 268 268 268 269 269 269 269 269 269 269 269 269 269 269 269 269 269 269 269 269 269 269 269 268 268
271 270 270 270 270 270 270 270 270 270 269 269 269 269 268 268 268 268 268 268 268 267 268 268 268 268 268 268 268 268 269 268 268 268 268 268 268 268 268 268 268 268 268

GFSGL_850_thetae_105.txt.gz
Theta_e
333 336 333 328 327 326 328 329 331 331 329 328 328 328 326 324 324 323 323 323 324 324 325 325 324 325 325 323 321 321 321 319 319 319 318 319 318 319 319 319 319 319 319
329 327 328 327 327 327 327 329 331 330 328 327 327 326 324 323 323 322 323 325 325 325 325 325 324 324 324 325 322 321 320 320 320 319 316 320 319 319 319 319 320 320 320
325 326 326 326 327 326 329 330 328 326 325 325 325 324 324 323 323 322 323 324 324 325 325 325 325 324 325 324 323 321 320 318 320 320 318 320 320 320 320 320 320 320 319
324 327 328 328 328 329 328 328 326 324 323 322 320 321 323 321 322 321 321 322 323 323 323 325 325 325 324 324 323 321 319 320 322 321 321 321 320 320 321 320 319 317 317
317 323 325 325 325 325 324 323 322 322 321 320 320 322 322 320 320 321 321 321 322 323 324 325 325 325 324 324 324 321 322 323 321 321 321 320 319 320 320 318 318 318 318
310 312 321 324 325 324 323 322 321 321 320 320 319 319 321 320 320 320 320 321 322 323 324 324 324 324 323 323 324 322 322 321 321 320 319 319 319 318 317 316 316 316 316
304 309 312 319 322 323 323 322 321 321 320 321 322 321 321 321 320 320 320 320 320 322 323 323 323 323 323 323 321 321 322 321 321 320 320 319 319 317 317 317 317 316 317
303 304 307 307 312 315 318 320 321 320 321 321 321 321 321 321 321 321 320 320 319 319 319 321 323 322 321 322 322 321 320 320 320 319 318 318 318 317 317 316 316 317 316
298 299 301 302 304 304 306 307 309 308 317 317 318 319 320 320 320 320 320 319 318 319 319 318 318 318 321 321 320 320 320 320 319 319 318 318 317 317 317 317 317 316 314
294 295 296 298 300 301 301 301 299 300 302 304 312 312 316 319 319 318 316 318 317 318 318 318 317 318 319 319 318 318 317 316 317 317 317 316 317 317 317 316 313 314 313
293 295 296 295 296 296 298 300 298 297 294 295 300 305 307 307 313 311 310 312 313 314 313 313 316 316 316 316 316 316 315 313 311 308 311 310 310 308 309 309 308 305 304
293 294 294 294 294 294 295 295 296 298 295 292 291 295 296 298 300 302 304 306 305 307 308 306 305 306 306 308 309 307 305 304 302 302 301 300 300 300 300 300 300 299 299
292 292 293 293 293 294 294 293 292 291 292 292 289 289 291 292 293 295 297 298 301 301 299 299 299 300 300 300 298 298 298 299 299 298 297 295 294 294 294 295 295 294 294
290 290 290 291 292 293 293 293 291 291 290 290 289 289 288 289 289 291 292 293 294 294 292 293 295 295 295 294 294 294 294 294 294 294 293 292 291 291 291 289 288 287 287
288 288 288 288 288 289 289 289 288 286 287 287 287 288 289 288 287 288 290 289 291 292 292 292 293 293 292 292 292 292 291 290 291 290 289 287 286 285 285 284 284 283 283
285 286 286 286 286 287 287 286 286 286 286 285 286 286 286 286 286 287 288 288 288 288 290 290 289 288 288 287 286 286 286 286 285 284 283 283 282 282 281 281 281 281 281
282 282 282 283 284 284 285 285 285 285 285 286 285 285 284 285 285 286 286 287 287 288 289 287 286 285 285 285 285 284 284 283 282 281 281 280 280 280 280 280 279 279 279
280 280 280 280 280 280 280 280 282 283 283 283 283 283 282 283 283 283 283 284 285 285 285 284 284 283 282 282 282 281 281 280 279 279 279 279 279 278 278 278 277 277 276
279 279 279 279 278 278 279 279 278 278 278 278 278 278 278 279 279 281 281 282 281 281 279 279 278 278 277 277 277 277 276 276 276 276 276 276 276 276 276 276 275 275 275
277 277 277 277 277 277 277 277 277 277 276 276 276 276 276 276 277 277 277 277 277 276 276 276 276 275 275 275 275 275 275 275 275 274 274 275 275 275 274 274 274 274 274
276 276 276 276 276 276 276 276 275 275 274 274 274 274 274 274 274 274 274 274 274 274 274 274 274 274 274 273 273 273 273 273 273 273 273 273 273 273 273 273 273 272 272
275 275 275 275 275 275 274 274 274 273 273 273 272 272 272 272 272 272 272 272 272 272 272 272 272 272 272 272 272 272 272 272 272 272 272 271 271 271 271 271 271 271 271
274 274 274 274 274 273 273 273 273 272 272 272 271 271 271 271 271 271 270 270 270 271 271 271 271 271 271 271 271 271 271 271 271 271 271 271 271 271 270 270 270 270 270
273 273 273 273 272 272 272 272 271 271 271 271 270 270 270 269 269 269 269 269 269 269 270 270 270 270 270 270 270 270 270 270 270 270 270 270 269 269 269 269 269 269 269
272 271 271 271 271 271 270 270 270 270 270 269 269 269 269 269 268 268 268 268 268 268 268 268 268 269 269 269 269 269 269 269 269 269 269 269 268 268 268 268 268 268 268
270 270 270 269 269 269 269 269 269 269 269 268 268 268 267 267 267 267 267 267 267 267 267 267 267 267 267 267 268 268 268 268 268 268 268 268 268 268 268 268 268 268 268

GFSGL_850_thetae_108.txt.gz
Theta_e
328 329 333 332 335 332 333 330 329 328 329 329 327 328 329 328 327 326 325 324 323 322 324 323 323 323 323 324 324 324 323 322 322 322 321 319 318 316 318 318 319 319 319
323 328 331 333 335 332 330 329 329 328 329 328 329 328 328 327 325 324 322 323 323 323 322 323 324 323 324 324 323 324 324 323 321 320 320 318 319 319 318 317 319 320 320
321 326 328 330 331 330 329 327 326 326 328 330 328 327 326 324 323 322 322 322 322 324 325 323 325 324 323 324 325 324 324 323 321 321 320 319 319 320 319 319 319 320 320
316 323 324 325 326 327 327 326 327 328 326 325 324 324 323 321 321 321 320 320 321 321 322 321 323 324 324 324 324 324 323 323 321 321 320 319 318 317 319 320 319 320 320
312 319 323 325 325 327 326 325 323 323 322 322 320 319 318 319 321 320 320 320 320 320 321 321 322 323 321 324 324 324 323 323 320 321 320 319 319 316 317 320 320 320 320
307 306 310 312 319 324 323 322 321 321 321 320 319 319 319 318 320 319 319 320 320 319 321 323 323 322 322 325 324 325 324 323 321 321 320 319 320 318 318 321 320 320 319
301 304 307 310 307 313 319 320 321 320 320 319 318 318 317 318 319 319 318 320 320 320 319 319 323 323 323 323 324 323 323 323 322 322 318 320 320 320 320 319 318 319 318
299 302 302 305 304 306 308 313 316 316 316 315 313 317 316 317 319 319 320 320 320 319 319 318 319 322 322 323 323 323 322 321 320 320 320 321 320 321 319 319 319 318 317
294 295 297 297 302 302 302 304 304 305 308 309 309 308 311 314 316 319 319 319 319 318 318 318 317 318 318 322 322 322 319 320 319 320 320 319 320 319 319 319 318 317 317
293 292 293 295 296 297 299 299 300 300 301 301 298 296 301 307 304 308 312 313 315 315 316 317 317 318 316 314 314 315 316 317 318 319 318 318 318 318 318 317 317 316 316
292 294 294 295 294 294 296 296 297 297 298 298 300 295 294 296 298 301 303 306 308 308 311 312 313 314 317 317 316 317 318 317 316 316 316 313 312 310 311 311 310 309 310
292 293 293 294 294 293 293 293 294 295 295 294 293 294 294 292 294 295 297 299 300 303 303 302 302 303 307 308 310 311 314 311 310 307 308 303 303 301 303 303 304 303 302
290 290 290 291 292 293 293 292 292 292 292 292 292 292 290 290 291 291 292 294 294 296 294 294 294 297 299 301 299 299 298 299 299 300 300 299 298 297 297 297 297 297 297
287 287 288 289 289 290 290 290 290 289 289 289 290 290 290 291 290 290 290 291 290 291 291 292 293 293 294 293 294 294 295 295 295 294 293 291 291 292 293 292 292 290 291
283 284 285 285 286 287 287 286 286 285 286 287 286 287 288 288 287 288 289 289 289 289 291 291 291 290 290 290 290 290 290 290 291 289 288 288 288 288 289 287 286 285 286
281 281 281 281 282 283 284 285 285 284 285 285 285 285 285 284 286 288 288 288 288 288 290 289 289 288 288 287 287 287 286 286 285 285 285 285 285 285 284 282 282 282 281
280 280 280 280 280 280 280 281 282 282 282 283 284 284 284 283 284 285 285 286 286 287 288 286 285 284 284 284 284 284 284 284 283 283 282 281 280 280 280 280 280 281 281
278 278 278 278 279 279 279 278 278 278 279 279 279 278 279 280 280 282 282 283 285 285 285 283 282 282 282 282 282 282 282 282 282 282 282 282 282 281 280 279 278 278 278
277 277 277 277 277 277 277 277 277 277 277 277 277 277 277 276 277 278 278 279 279 278 278 278 277 277 276 276 276 276 276 276 277 277 277 277 277 276 276 276 276 276 276
276 276 276 276 276 276 276 275 275 275 275 275 275 275 275 275 276 276 276 276 276 275 275 275 275 275 275 275 275 275 275 275 275 275 275 275 275 275 275 274 274 274 274
275 275 275 275 275 274 274 274 274 273 273 273 273 272 272 273 273 273 273 274 274 273 273 273 273 273 273 273 273 273 273 273 273 273 273 273 273 273 273 273 273 272 272
275 275 274 274 274 274 273 273 273 272 272 271 271 271 271 271 271 271 271 271 271 271 272 272 271 272 272 272 272 272 272 272 272 272 272 272 272 271 271 271 271 271 271
274 274 273 273 273 272 272 272 272 271 271 271 270 270 270 270 270 270 270 270 270 270 270 270 270 270 270 270 270 271 271 271 271 271 271 271 271 271 271 271 271 271 270
272 272 272 271 271 271 271 270 270 270 270 269 269 269 269 269 268 268 268 269 269 269 269 269 269 269 269 269 269 269 269 269 269 269 270 270 270 270 270 270 270 270 269
272 271 270 270 270 269 269 269 269 269 268 268 268 268 268 267 267 267 267 267 267 267 267 267 267 268 268 268 268 269 269 269 269 269 269 269 269 269 269 269 269 269 269
270 270 270 269 269 269 269 269 268 268 268 268 267 267 267 267 267 266 266 266 266 266 266 266 266 266 267 267 267 268 268 268 269 268 268 268 268 268 268 268 268 268 268

GFSGL_850_thetae_111.txt.gz
Theta_e
321 327 331 331 331 332 333 333 333 333 332 332 332 330 329 329 334 332 329 327 328 329 328 327 325 323 325 324 323 323 323 322 322 323 323 323 323 323 322 320 318 314 315
317 324 329 331 330 331 331 333 334 333 333 332 330 329 327 329 331 329 328 327 326 325 324 323 322 322 324 324 323 324 323 323 322 322 323 323 322 323 323 322 319 318 318
314 320 326 327 329 329 330 332 333 331 330 328 328 328 329 329 328 328 326 324 323 323 324 325 323 323 323 322 325 324 324 323 323 323 322 322 323 322 320 319 319 319 319
310 317 320 323 325 325 327 329 328 329 329 328 328 328 328 327 326 324 323 322 321 321 321 321 321 322 323 323 324 323 323 323 323 323 321 323 322 320 319 319 318 319 319
305 313 314 316 321 323 325 325 325 324 324 324 323 323 323 323 322 321 320 320 320 320 319 319 320 320 321 321 322 322 323 323 322 323 320 320 320 319 319 319 319 317 319
298 302 306 308 313 320 320 321 321 321 321 321 320 320 319 318 319 319 319 318 320 320 320 320 319 319 320 323 322 322 323 323 322 321 322 320 320 321 319 320 319 319 319
298 299 303 303 303 305 306 311 317 317 319 320 318 318 316 316 317 318 318 318 317 317 319 320 320 319 318 322 322 322 323 323 323 322 322 321 320 320 319 318 317 317 319
295 296 299 299 300 304 304 304 305 305 312 312 314 314 313 315 317 318 317 317 316 317 318 319 319 318 318 320 321 320 322 322 322 323 323 321 320 320 321 319 318 316 318
294 296 296 298 299 298 299 302 300 300 302 303 302 304 307 310 311 311 314 312 313 313 314 316 317 318 318 318 319 319 318 321 320 321 320 320 320 319 319 319 318 317 318
291 292 293 294 294 294 294 293 294 296 298 298 298 298 299 300 300 303 307 306 306 308 309 310 313 314 316 314 314 314 314 314 314 315 319 319 319 319 318 319 319 319 319
290 291 292 293 293 292 292 293 292 293 294 295 295 295 295 297 298 299 298 301 301 302 304 305 306 305 310 309 309 310 311 310 313 314 314 314 314 317 317 317 316 317 318
289 290 290 291 291 291 292 291 292 292 292 292 292 291 291 293 293 294 297 296 295 297 298 297 296 298 301 303 304 304 303 303 307 312 312 312 311 310 311 311 312 309 307
286 287 288 288 289 290 291 291 291 291 291 290 291 290 290 290 290 290 292 293 294 294 293 292 293 294 294 296 295 296 297 298 299 302 300 299 299 300 301 300 300 300 301
283 283 284 285 286 287 287 288 288 288 288 288 289 288 288 289 289 289 290 290 290 292 292 293 293 292 293 292 293 293 293 293 294 294 293 292 291 292 294 294 295 293 295
281 281 281 281 282 282 283 284 284 284 284 285 285 285 286 285 285 287 288 289 288 289 290 291 292 292 291 291 290 290 289 289 289 288 288 288 288 289 289 289 289 290 290
280 280 280 280 280 279 279 280 280 280 280 281 282 283 283 283 284 285 287 287 287 288 290 289 288 288 288 287 287 287 287 287 286 286 286 286 286 285 285 285 285 284 284
279 279 279 279 279 279 279 279 279 278 278 278 278 279 279 279 281 282 283 284 286 286 287 286 285 284 284 284 284 285 284 284 284 284 284 283 283 283 282 281 281 281 282
278 278 278 277 277 277 277 277 277 277 277 277 277 277 277 277 277 278 279 280 281 281 281 281 281 281 281 282 282 282 282 282 282 282 282 282 281 282 281 282 281 281 281
276 276 276 276 276 276 276 276 276 276 276 275 276 276 276 275 275 276 277 278 277 277 276 276 276 276 276 276 276 276 276 277 278 278 278 278 277 277 277 277 277 277 276
275 275 275 275 275 275 275 275 274 274 274 274 274 274 274 274 275 275 275 275 275 275 275 274 274 274 274 274 274 274 274 275 275 275 275 275 275 275 275 275 275 275 275
275 275 274 274 274 273 273 273 272 272 272 272 272 271 271 272 272 272 272 272 272 272 273 273 273 273 273 273 273 273 273 273 273 273 273 273 273 273 273 273 273 273 273
274 274 274 273 273 273 272 272 271 271 271 270 270 270 270 270 270 270 270 270 270 270 270 271 271 271 271 271 272 272 272 272 272 272 272 272 272 272 272 272 272 272 272
273 273 272 272 272 271 271 271 270 269 269 269 270 269 269 269 269 269 269 269 269 269 269 269 269 269 270 270 270 270 270 270 271 271 271 270 271 271 271 271 271 271 271
272 272 271 271 271 270 270 270 270 269 269 269 269 268 268 268 268 267 267 267 268 268 268 268 268 268 268 268 269 269 269 269 269 269 269 270 270 270 270 270 270 270 270
272 271 271 270 270 270 269 269 269 268 268 268 268 268 268 267 267 267 267 267 267 266 266 266 266 267 267 267 267 268 268 268 268 268 269 269 269 269 269 269 269 269 269
271 271 270 270 270 269 269 269 269 268 268 268 267 267 267 267 267 267 266 266 266 266 266 266 266 266 266 266 266 267 267 268 268 268 268 268 268 268 268 268 268 268 268

GFSGL_850_thetae_117.txt.gz
Theta_e
298 303 305 307 313 318 321 324 327 330 330 332 333 332 331 331 333 337 334 330 334 332 330 331 330 332 331 331 329 329 329 329 328 328 327 327 325 326 325 323 323 323 323
299 301 300 307 314 322 328 328 330 330 330 331 333 332 331 330 332 332 335 335 330 331 330 327 330 330 331 330 329 329 328 329 327 326 325 325 324 324 324 322 323 323 323
297 295 299 307 318 326 325 324 327 327 329 331 332 331 332 332 331 332 333 331 333 330 326 327 331 329 328 328 329 327 326 326 327 325 325 324 324 325 324 323 322 323 323
295 292 296 306 315 320 322 325 328 329 330 330 331 332 331 331 332 331 331 333 330 327 330 329 328 327 327 326 326 325 324 325 323 326 325 323 323 324 323 324 323 323 323
293 296 296 301 305 309 313 315 318 321 324 324 325 328 329 329 328 329 328 329 329 329 328 326 325 324 324 323 322 322 322 322 322 324 324 323 323 323 323 323 323 323 323
292 294 297 299 302 301 302 302 308 308 311 314 318 321 323 324 324 324 326 325 326 326 325 324 323 322 321 321 320 319 319 319 320 319 320 322 323 321 323 322 322 321 321
291 291 293 294 299 299 300 301 301 301 302 304 305 309 314 319 318 320 319 319 319 320 319 319 319 319 319 318 319 319 318 318 318 318 318 320 321 321 322 322 321 321 321
292 291 293 296 294 295 295 297 299 298 298 300 299 300 303 303 307 309 312 310 313 308 314 316 317 318 318 318 318 318 317 317 317 317 318 319 321 321 320 320 321 321 320
290 291 292 292 293 292 292 291 294 293 296 297 296 297 297 299 301 301 305 304 303 303 305 307 306 309 310 311 312 314 313 313 313 314 315 316 316 319 319 319 319 319 319
288 289 290 291 292 291 291 292 292 293 293 294 294 293 295 296 300 298 300 300 300 301 299 300 302 303 303 305 307 308 308 308 309 310 310 310 310 313 315 318 316 318 319
285 285 287 288 288 290 291 292 292 291 292 291 292 293 293 292 292 294 296 297 295 296 298 298 297 297 299 299 300 301 301 301 302 306 307 306 306 309 311 312 313 313 312
282 283 283 283 284 284 284 285 286 287 288 288 289 289 289 290 291 292 291 292 293 293 293 292 293 293 294 296 297 297 297 297 299 300 302 303 304 304 305 305 306 309 308
282 282 282 282 282 283 283 283 283 283 283 283 284 284 284 285 287 289 289 290 290 290 289 290 291 291 292 293 293 294 294 295 295 297 297 296 297 297 296 298 298 301 304
281 281 281 281 282 282 281 281 281 281 281 281 281 281 281 282 283 283 285 287 289 289 289 289 289 289 289 290 291 290 289 289 289 290 290 290 291 293 294 294 295 296 298
281 281 281 281 281 281 281 280 278 278 278 279 279 279 280 280 280 280 282 283 285 286 286 287 288 288 288 288 287 287 287 287 286 286 287 288 288 289 290 290 292 291 291
281 281 281 281 281 281 281 281 280 278 278 277 277 277 277 277 278 279 279 280 280 281 282 282 281 281 281 281 281 282 283 284 284 284 283 284 285 286 286 287 287 288 288
280 280 281 280 280 280 280 280 280 279 279 278 277 277 277 277 278 277 277 278 278 279 279 279 279 278 279 279 278 278 279 280 281 281 281 282 282 283 284 284 284 285 285
279 279 280 280 279 279 279 279 279 279 279 278 277 276 276 275 275 276 277 277 278 277 277 277 277 277 277 277 277 277 276 277 278 279 279 280 280 280 280 281 281 282 282
278 277 278 278 278 278 278 278 278 278 278 278 277 275 275 275 275 274 274 274 275 275 276 276 275 275 275 275 275 275 276 276 276 276 277 277 278 278 278 279 279 280 280
278 277 277 278 277 277 277 277 277 277 277 277 276 274 273 274 275 274 273 272 273 273 273 273 273 272 272 273 273 273 274 274 275 275 275 275 276 277 277 277 277 277 276
277 277 276 276 276 276 276 276 276 276 276 275 275 274 273 273 273 273 273 271 271 271 270 271 271 271 270 270 271 271 271 272 272 273 273 274 274 275 276 276 276 276 276
276 276 276 276 276 275 275 275 275 275 275 274 274 274 272 273 272 272 271 270 269 269 269 269 269 269 268 268 268 268 269 269 269 270 272 272 273 274 274 274 275 275 275
276 276 276 276 275 274 275 274 274 274 274 273 273 273 272 272 271 271 270 269 269 268 268 267 267 266 266 267 267 267 267 267 267 269 270 271 271 273 273 273 273 274 273
275 275 275 275 275 274 274 274 274 273 273 273 272 272 271 271 271 271 270 269 268 268 268 267 266 266 267 267 266 266 268 268 268 268 268 269 270 271 271 271 271 271 271
275 274 275 274 274 274 274 274 273 273 273 272 272 272 271 271 270 270 270 269 268 268 267 267 266 265 265 266 266 266 267 267 268 268 268 267 267 268 269 269 270 270 270
274 274 273 273 273 273 273 273 273 272 272 272 272 271 271 271 270 270 269 269 268 268 267 267 266 266 265 264 265 265 265 266 266 267 267 266 266 267 268 268 268 269 269

GFSGL_850_thetae_120.txt.gz
Theta_e
293 294 296 298 301 304 307 309 315 318 317 316 324 325 320 324 329 330 332 332 332 334 332 330 334 331 331 332 330 331 330 330 329 328 328 327 327 328 327 326 325 324 323
291 294 296 298 300 304 307 312 318 317 319 327 326 325 316 328 331 330 329 331 331 331 335 334 334 330 331 332 328 328 328 328 328 327 327 327 328 327 326 325 323 323 323
290 292 294 295 299 301 304 313 319 323 323 324 324 325 329 330 332 331 330 332 331 331 331 333 334 334 331 331 330 331 328 328 327 327 326 325 327 324 325 325 324 324 324
290 291 292 292 295 297 299 310 313 317 319 319 321 324 326 327 330 331 331 330 331 332 330 330 331 332 330 328 329 328 327 328 327 326 324 325 323 325 325 323 324 324 325
290 291 290 289 291 295 301 303 305 310 315 311 315 320 322 324 325 329 330 331 330 330 329 328 327 327 329 328 328 323 322 325 325 324 323 322 321 322 322 322 322 323 323
289 289 290 290 290 292 300 300 302 302 301 300 307 310 314 313 314 319 327 328 328 327 327 326 325 326 325 325 325 324 324 322 320 320 319 319 319 318 320 321 320 322 322
291 291 292 292 292 292 295 297 298 296 298 300 300 299 299 300 303 309 315 316 315 318 317 318 319 319 319 320 319 320 320 319 319 318 318 317 317 315 316 319 321 321 321
289 290 292 293 293 294 294 293 298 292 297 297 298 297 298 297 298 300 304 307 301 308 308 311 308 310 312 312 315 315 317 317 316 314 313 314 314 315 316 318 320 320 320
285 286 288 291 293 293 293 294 296 293 294 296 296 298 294 298 297 301 301 300 299 302 299 301 305 305 305 306 307 307 309 311 311 310 308 307 307 311 314 314 315 316 318
282 283 283 284 285 287 289 290 291 292 292 294 292 295 293 294 293 296 296 299 299 300 300 299 301 299 298 300 303 302 302 303 304 304 304 305 305 305 305 308 312 313 314
282 282 283 283 283 283 284 284 285 285 286 286 288 290 290 291 292 293 294 293 293 295 294 295 296 295 296 297 297 297 297 298 299 299 301 302 303 304 304 307 307 307 311
282 283 282 282 282 282 283 284 284 284 284 283 284 284 284 285 287 289 290 290 291 291 291 291 291 291 292 293 295 294 294 295 295 295 296 297 299 301 302 302 302 302 304
282 282 282 283 283 282 282 282 282 283 283 283 282 282 282 283 283 283 284 286 288 288 288 288 289 289 290 290 291 291 291 290 291 290 290 291 292 293 295 296 297 298 299
282 282 282 281 282 282 282 282 281 281 280 280 280 280 280 281 281 281 281 282 282 283 285 286 287 286 286 287 288 288 288 287 286 284 286 287 289 290 292 293 295 295 295
282 281 281 281 281 281 281 280 280 279 279 278 277 278 278 279 278 278 279 279 280 281 282 282 283 283 283 283 283 283 284 285 285 284 284 285 286 287 288 288 290 290 291
281 281 281 281 281 280 280 280 280 279 279 278 278 276 276 276 276 277 278 279 279 279 279 279 279 279 278 279 279 280 280 281 281 281 282 282 282 284 285 285 286 287 286
280 281 280 280 280 280 280 279 279 279 279 278 278 277 276 276 276 276 277 277 277 277 277 277 276 276 276 276 276 277 277 278 279 279 280 280 280 281 282 283 283 284 283
278 279 279 279 278 279 279 278 278 278 278 277 277 277 275 276 276 275 274 275 275 275 275 275 274 274 274 275 275 275 276 276 276 277 278 278 279 279 280 280 281 281 282
278 277 278 278 277 277 277 277 277 277 277 276 276 276 275 275 274 274 273 273 272 272 272 273 273 272 272 273 273 273 274 274 275 275 276 276 278 278 278 278 278 278 279
278 277 277 277 277 276 276 276 276 276 275 275 275 275 274 274 273 273 273 272 271 271 270 271 271 271 270 270 271 271 272 272 273 274 274 275 276 276 276 276 276 276 276
277 277 277 276 276 275 276 275 275 275 275 274 274 274 273 273 272 272 272 271 270 270 269 269 269 269 269 269 269 269 270 270 270 272 272 273 274 274 275 275 275 275 276
277 276 276 277 276 275 275 275 274 274 274 274 273 273 272 272 272 271 271 271 270 269 269 268 268 268 268 267 267 267 268 269 269 270 271 272 272 273 274 274 275 275 275
276 276 276 276 275 275 275 275 274 274 274 273 273 272 272 272 271 271 271 270 270 269 268 268 267 267 267 267 266 267 268 268 268 269 270 271 271 272 272 272 273 273 274
276 275 275 275 274 274 274 274 274 274 273 273 273 272 272 272 271 271 270 270 270 269 268 268 267 267 266 266 266 266 266 266 267 268 268 269 269 270 271 271 271 271 271
275 274 274 274 274 273 273 273 273 272 272 272 272 271 271 271 271 271 270 270 269 269 268 268 267 267 266 266 265 265 265 265 266 267 267 268 268 268 269 269 270 270 270
274 274 273 273 272 272 272 271 271 271 271 271 271 271 270 270 270 270 270 270 269 268 268 268 267 267 267 265 265 265 265 265 265 265 266 267 267 268 268 268 269 269 269

GFSGL_850_thetae_126.txt.gz
Theta_e
288 288 288 289 291 292 293 295 297 299 302 305 311 313 314 315 315 313 312 314 319 326 328 327 327 326 322 323 323 325 329 331 330 327 328 327 328 327 328 328 328 327 327
288 288 288 288 290 291 292 294 296 300 302 306 311 313 312 313 315 315 314 317 319 321 324 326 326 329 326 326 322 321 329 329 330 327 327 327 327 326 326 327 324 326 326
288 288 287 287 288 289 291 293 295 298 301 304 308 310 310 311 313 317 315 318 324 323 323 325 323 321 319 325 327 329 329 327 330 328 327 327 327 325 323 322 321 321 325
289 288 287 287 287 288 289 292 294 295 297 300 301 304 308 310 312 316 319 319 319 319 321 322 317 322 320 322 322 327 327 328 329 329 328 327 326 324 324 324 324 324 324
290 290 288 288 288 289 289 291 294 295 295 295 296 298 302 309 309 312 315 317 317 319 319 321 323 320 325 329 329 328 328 328 327 328 327 327 325 326 325 325 324 324 323
291 291 291 292 292 291 291 294 293 293 294 295 295 293 296 298 300 303 305 306 308 308 310 311 312 318 321 322 328 329 330 328 328 327 326 325 325 324 324 324 323 323 322
284 285 289 291 293 292 294 294 293 294 294 293 294 293 292 294 300 301 300 301 301 301 301 302 304 304 309 309 311 309 315 320 324 325 324 324 323 322 322 321 321 319 318
283 283 284 284 284 285 287 289 290 292 293 293 292 292 292 293 295 297 299 299 299 297 298 300 300 300 302 306 307 307 306 303 309 307 314 316 316 316 315 315 315 314 314
282 282 282 283 283 283 283 283 283 284 284 285 286 286 289 290 293 295 296 295 292 295 295 297 298 298 299 301 304 302 302 301 302 300 301 301 304 309 307 308 309 308 309
281 281 281 281 282 282 282 282 282 282 282 283 283 283 282 283 283 286 289 291 292 292 292 292 294 295 296 298 300 298 302 300 301 300 296 299 297 301 302 304 304 304 304
282 282 281 281 281 281 281 281 281 281 281 281 281 282 281 280 281 282 282 283 285 286 288 289 289 290 292 294 295 294 292 293 295 295 296 298 297 296 298 299 300 299 301
281 282 281 281 281 281 281 281 280 280 281 280 280 280 280 280 279 279 280 281 281 282 282 283 285 288 289 291 291 290 290 291 291 292 291 291 293 291 292 293 294 295 296
281 281 281 281 281 281 281 280 280 279 279 279 279 279 278 279 279 279 279 279 279 280 280 280 281 282 282 285 286 287 288 289 288 288 287 286 286 287 288 289 290 292 292
281 281 280 280 280 280 279 279 279 278 277 277 277 277 277 277 276 277 278 278 278 279 279 279 279 279 280 280 280 281 283 283 283 283 284 284 285 286 286 287 288 289 289
280 279 279 279 278 278 278 277 277 275 275 276 276 276 276 275 274 274 275 276 276 277 278 278 279 279 278 278 278 278 278 279 280 280 281 282 282 283 283 284 284 285 286
280 279 278 278 278 277 277 276 276 275 275 274 275 275 275 274 273 274 274 275 275 276 277 276 275 275 274 274 275 275 275 276 276 277 278 278 279 280 280 281 282 282 283
279 277 277 277 277 277 276 276 275 275 274 274 274 274 274 273 272 272 273 274 274 275 274 273 273 272 272 272 272 272 273 273 274 275 275 276 277 277 278 278 279 279 281
278 277 277 276 276 276 276 275 275 275 274 274 273 273 273 272 272 272 272 273 273 273 272 271 271 271 271 271 271 271 271 271 272 272 273 274 275 276 276 276 276 277 278
278 278 277 276 276 276 275 275 275 274 274 273 273 273 272 272 272 271 271 271 271 270 270 270 269 269 269 269 269 270 270 270 271 271 272 273 273 274 274 275 275 275 276
277 277 276 276 276 275 275 275 274 274 274 273 273 273 272 272 272 271 271 270 270 270 269 269 269 269 269 268 268 269 269 270 270 270 270 271 272 272 273 273 274 274 275
277 276 276 275 275 274 274 274 274 274 273 273 272 272 272 271 272 271 271 270 270 270 269 269 268 268 268 268 268 268 267 267 268 268 269 270 270 271 271 272 272 273 274
276 275 275 275 274 274 274 273 273 273 272 272 272 272 271 271 271 270 270 271 270 270 270 269 269 268 268 267 267 267 267 267 267 267 267 268 269 269 270 270 271 272 272
276 275 275 274 274 273 273 273 272 272 271 271 271 271 270 270 270 270 270 270 270 269 269 269 269 268 268 267 267 266 266 266 266 266 266 267 267 268 268 269 269 270 271
275 275 274 273 273 272 272 272 271 270 270 270 270 269 269 269 269 269 269 269 269 269 269 269 268 268 267 267 267 266 266 266 266 265 265 265 266 267 267 268 268 269 270
275 274 273 273 272 272 271 270 270 270 269 268 268 268 268 267 267 267 267 267 267 268 268 268 268 267 267 267 267 266 266 265 265 265 265 265 265 266 266 267 267 268 269
274 273 272 272 271 271 270 270 269 268 268 268 267 266 266 266 265 266 265 265 266 266 266 267 267 267 267 266 266 266 266 265 265 265 265 265 264 265 265 266 266 267 268

GFSGL_850_thetae_129.txt.gz
Theta_e
288 287 287 287 288 289 290 291 292 294 297 299 302 306 307 307 309 311 313 313 312 311 312 320 326 325 324 326 324 324 323 324 327 327 325 328 327 328 328 328 326 326 328
287 287 287 286 287 288 289 290 292 293 295 298 302 305 308 309 309 310 312 315 315 317 318 320 324 324 325 325 325 322 323 324 325 325 323 327 328 327 327 327 327 327 328
289 288 287 286 286 287 288 290 291 293 294 297 301 304 306 308 309 310 310 311 317 316 318 325 322 321 326 326 326 325 322 323 324 322 323 325 326 327 327 326 327 326 326
290 289 289 287 286 287 289 290 290 291 292 292 293 295 299 301 305 307 310 313 313 316 318 322 324 325 325 326 327 324 322 321 320 321 321 326 327 327 327 326 326 325 323
290 291 290 290 290 290 290 291 292 293 293 293 294 295 294 294 299 302 303 307 311 311 313 314 317 318 320 320 319 320 324 324 322 325 328 327 326 328 327 327 326 324 323
284 284 287 291 293 293 293 294 294 294 293 295 296 295 294 292 295 295 298 300 304 304 304 304 307 308 311 317 317 317 319 323 325 327 327 326 325 325 326 326 326 325 325
284 283 283 283 284 285 287 290 293 293 294 294 293 291 292 293 294 294 294 295 297 297 298 299 301 301 301 304 306 307 308 317 318 322 323 320 321 321 323 324 323 323 324
283 283 283 283 283 283 284 284 284 285 285 285 285 287 289 289 292 294 295 294 295 294 294 294 295 297 298 301 302 305 305 307 308 306 307 308 304 306 306 314 312 318 321
283 282 282 282 282 283 283 283 283 283 283 283 283 283 283 283 285 289 293 293 292 292 293 292 294 292 293 298 299 301 300 300 299 302 303 302 305 305 303 305 306 307 310
282 281 281 281 282 282 282 282 281 282 282 282 282 281 281 281 282 283 284 285 286 288 289 290 290 290 292 294 296 295 295 295 296 299 300 300 300 301 301 305 300 301 303
281 281 281 281 281 281 281 281 282 281 281 281 281 280 280 280 279 280 281 281 282 282 282 283 286 287 290 291 291 291 290 290 293 293 293 293 293 294 295 296 297 297 297
281 281 281 280 280 280 280 280 281 281 281 280 280 280 279 279 278 279 279 279 279 280 280 280 280 281 284 286 287 286 287 288 289 290 290 290 290 290 290 290 291 292 293
281 280 280 280 280 280 280 279 279 279 278 278 278 278 278 278 278 278 278 278 278 278 278 278 279 279 280 281 281 282 284 284 284 285 284 284 284 285 286 288 288 289 290
281 280 279 279 278 279 278 278 278 277 277 277 277 276 276 276 276 277 277 277 277 277 277 277 278 278 278 278 279 279 279 279 279 280 280 281 282 283 284 285 286 287 287
280 279 278 278 277 277 277 276 276 275 276 276 275 275 274 274 273 274 275 275 276 275 276 277 278 278 277 276 276 276 276 276 277 277 278 278 279 280 281 281 282 283 283
280 279 278 278 278 277 276 275 274 274 274 274 274 274 274 273 272 273 273 273 274 275 276 275 275 274 274 274 274 274 274 274 274 274 275 276 276 277 277 278 279 279 280
280 278 278 277 276 275 275 275 274 274 274 273 273 273 273 272 272 272 272 272 273 274 273 272 272 272 272 272 273 273 272 272 272 272 273 274 274 275 275 276 276 276 277
278 277 277 276 275 275 275 275 274 274 274 273 273 273 272 272 272 271 271 272 272 271 270 270 270 270 270 270 270 270 271 271 271 271 271 272 273 273 274 274 274 275 275
278 277 276 276 276 275 275 275 274 274 274 273 273 273 272 272 272 271 271 271 270 270 269 269 269 269 269 269 269 269 269 269 269 269 270 270 271 272 272 273 273 273 274
277 277 276 276 276 275 275 274 274 274 273 273 273 272 272 272 271 271 271 270 270 270 269 269 269 268 268 268 268 269 269 269 269 269 269 269 269 270 271 271 272 272 272
277 277 276 276 275 275 275 274 274 274 273 272 272 272 271 271 271 271 270 270 270 270 269 269 269 269 268 268 267 267 267 268 268 268 268 267 268 269 269 270 270 270 271
276 276 276 275 275 274 274 273 273 272 272 272 271 271 270 270 270 270 270 270 269 269 269 269 269 268 268 268 267 267 267 266 267 267 267 267 267 267 268 268 269 269 270
276 276 275 275 274 273 273 272 272 271 271 270 270 269 269 269 269 269 268 268 268 268 268 268 268 268 268 267 267 267 266 266 266 266 266 266 266 266 266 267 267 268 268
275 275 274 274 273 272 272 271 270 270 270 269 269 269 268 268 268 267 267 267 267 267 267 267 268 267 267 267 267 266 266 266 265 265 265 265 265 265 265 266 266 267 267
274 274 274 273 272 272 271 270 270 269 269 269 268 268 267 267 267 267 266 266 266 266 266 266 266 266 267 267 267 266 266 265 265 265 265 265 265 264 264 265 265 266 267
274 273 273 272 272 271 270 270 269 269 269 269 268 267 267 267 266 266 266 265 265 265 265 265 265 265 265 266 266 266 266 265 265 265 264 264 264 264 264 264 265 265 266

GFSGL_850_thetae_132.txt.gz
Theta_e
288 286 286 286 286 286 287 288 289 290 292 293 296 300 302 304 303 305 306 308 310 311 310 310 312 318 323 326 325 324 326 324 323 322 322 320 321 324 326 327 327 327 326
289 287 287 287 288 286 287 288 288 289 289 291 294 298 301 304 305 306 307 308 309 311 315 313 315 312 315 322 323 323 325 324 323 323 322 322 320 322 325 323 326 326 327
290 290 290 289 287 287 287 288 289 289 288 289 292 294 298 301 304 305 307 309 310 311 313 315 318 320 323 325 323 323 324 324 323 324 323 322 321 324 323 323 323 326 326
288 290 291 290 289 289 289 290 290 289 288 288 289 290 293 296 300 301 302 304 306 308 310 312 315 317 318 319 323 322 323 323 323 322 323 324 323 323 323 322 323 324 326
283 284 286 288 289 290 290 290 291 291 291 292 291 291 291 293 294 296 298 298 299 301 302 302 309 311 315 317 318 319 322 322 322 321 322 322 322 322 321 321 321 322 325
283 283 283 283 284 284 285 286 287 289 289 291 292 292 292 291 293 295 297 296 295 296 297 298 301 304 305 310 314 316 316 317 319 321 320 321 322 322 323 322 323 325 325
283 283 283 283 283 283 283 283 284 284 283 284 287 289 289 290 292 293 295 296 295 293 293 294 295 297 299 301 302 304 307 311 313 312 313 315 319 317 322 322 323 324 323
283 283 283 283 282 282 283 283 282 283 283 283 283 283 283 283 286 290 293 294 294 294 292 292 293 293 294 295 296 297 298 300 300 300 300 302 304 306 309 308 310 313 315
283 283 282 282 282 282 282 282 282 282 282 282 282 282 283 282 282 283 284 284 285 287 288 290 290 291 292 294 295 293 292 292 291 291 293 295 298 299 305 303 303 307 307
283 283 282 281 281 281 281 281 281 281 281 281 281 282 282 282 282 282 283 283 283 283 282 283 284 287 289 290 292 290 291 289 292 293 293 293 295 295 297 298 298 300 301
282 282 282 281 281 281 281 281 281 281 281 281 280 280 280 280 281 281 281 281 280 280 281 280 280 281 282 285 287 287 286 288 289 287 288 291 292 292 292 293 293 294 294
281 282 281 281 281 281 281 281 281 281 281 280 279 279 278 278 278 278 278 278 279 280 279 279 278 279 279 280 281 281 282 283 284 285 286 286 286 286 286 286 288 289 290
281 281 281 281 280 280 280 280 280 279 279 279 279 278 277 276 277 276 276 276 277 277 276 276 278 278 278 279 278 278 279 280 280 280 280 280 281 281 283 284 284 285 284
280 280 280 279 278 278 279 278 279 278 278 277 277 277 276 276 275 275 275 276 276 276 276 277 277 276 276 276 277 277 277 276 276 277 276 277 278 279 279 280 281 282 283
280 280 279 278 278 277 277 277 276 275 276 276 275 275 275 274 273 273 274 275 275 275 276 276 277 277 276 275 275 275 274 275 275 275 275 276 276 276 277 277 277 278 279
280 279 278 278 277 277 276 276 275 274 274 274 274 274 273 272 272 272 272 273 273 274 275 274 273 273 273 273 273 272 272 272 272 272 273 273 274 274 275 275 275 276 276
279 278 278 277 277 276 276 275 275 274 274 273 273 273 272 272 272 272 272 272 272 273 272 271 271 271 270 270 271 271 271 271 271 271 271 271 272 272 273 273 274 274 275
278 278 278 277 276 275 275 275 274 274 273 273 273 272 272 271 271 271 271 271 271 271 270 270 269 269 269 269 269 269 269 270 270 270 270 270 270 271 271 271 272 272 273
278 277 277 276 275 275 275 274 274 274 273 273 273 272 272 271 271 271 271 270 270 270 269 269 269 269 268 268 268 268 268 268 269 269 269 269 269 269 270 270 270 271 271
277 277 276 276 275 275 274 274 274 273 273 272 272 272 271 271 271 271 270 270 269 269 269 269 269 268 268 268 267 267 267 267 267 268 268 268 268 268 268 268 269 269 270
277 276 276 275 275 274 274 273 273 273 272 272 271 271 271 271 270 270 270 269 269 268 268 268 268 268 268 268 267 267 267 267 267 266 266 267 267 267 267 267 267 268 268
276 276 275 275 274 274 273 273 273 272 272 272 271 271 271 270 270 269 269 268 268 267 267 267 267 268 267 267 267 267 267 266 266 266 266 266 266 266 266 266 266 267 267
276 276 275 275 274 273 273 272 272 272 271 271 271 270 270 269 269 268 268 267 267 267 267 266 266 267 267 267 267 266 266 266 266 265 265 265 265 265 265 265 265 266 266
275 275 275 274 273 273 272 272 271 271 271 271 270 269 269 268 268 268 267 267 267 266 266 265 265 266 266 266 266 266 266 266 266 265 265 265 265 264 264 264 265 265 265
275 275 274 273 273 272 271 271 271 271 270 270 270 269 269 268 268 267 267 267 266 266 266 265 265 265 265 265 265 265 266 266 265 265 265 264 264 264 264 264 264 264 265
275 274 273 273 272 271 271 271 270 270 270 270 269 268 268 267 267 267 266 266 266 266 266 265 265 265 264 264 264 264 264 265 265 265 264 264 264 264 264 263 263 264 264